Wetterdaten: Dienstag, 27.09.2016
Datum Zeit Temp. A. Feuchte A. Luftdruck Regen Wind Richtung Richtung Sonnenschein ET UV Solar Taupunkt Windchill Windben Empfang
27.09.2016 00:00 10,9 C 95 % 1020,9 hPa 0,0 l/m 1,1 km/h (1 Bft) S-SW 209 0 min 0,000 mm 0,0 UV-I 0 W/m 10,1 C 10,9 C 1,6 km/h (1 Bft) 98,00 %
27.09.2016 00:02 11,0 C 95 % 1021,0 hPa 0,0 l/m 0,0 km/h (0 Bft) S-SW 209 0 min 0,000 mm 0,0 UV-I 0 W/m 10,2 C 11,0 C 0,0 km/h (0 Bft) 100,00 %
27.09.2016 00:04 11,0 C 95 % 1021,0 hPa 0,0 l/m 0,0 km/h (0 Bft) S-SW 209 0 min 0,000 mm 0,0 UV-I 0 W/m 10,2 C 11,0 C 0,0 km/h (0 Bft) 100,00 %
27.09.2016 00:06 11,1 C 95 % 1021,0 hPa 0,0 l/m 0,0 km/h (0 Bft) S-SW 209 0 min 0,000 mm 0,0 UV-I 0 W/m 10,3 C 11,1 C 0,0 km/h (0 Bft) 100,00 %
27.09.2016 00:08 11,2 C 96 % 1021,1 hPa 0,0 l/m 0,0 km/h (0 Bft) S-SW 209 0 min 0,000 mm 0,0 UV-I 0 W/m 10,6 C 11,2 C 0,0 km/h (0 Bft) 97,87 %
27.09.2016 00:10 11,2 C 95 % 1021,1 hPa 0,0 l/m 1,7 km/h (1 Bft) S-SW 209 0 min 0,000 mm 0,0 UV-I 0 W/m 10,4 C 11,2 C 3,2 km/h (1 Bft) 100,00 %
27.09.2016 00:12 11,0 C 95 % 1021,1 hPa 0,0 l/m 1,8 km/h (1 Bft) S-SW 210 0 min 0,000 mm 0,0 UV-I 0 W/m 10,2 C 11,0 C 3,2 km/h (1 Bft) 100,00 %
27.09.2016 00:14 10,8 C 94 % 1021,1 hPa 0,0 l/m 1,6 km/h (1 Bft) S-SW 210 0 min 0,000 mm 0,0 UV-I 0 W/m 9,9 C 10,8 C 3,2 km/h (1 Bft) 100,00 %
27.09.2016 00:16 10,7 C 95 % 1021,1 hPa 0,0 l/m 0,9 km/h (0 Bft) S-SW 210 0 min 0,000 mm 0,0 UV-I 0 W/m 9,9 C 10,7 C 3,2 km/h (1 Bft) 100,00 %
27.09.2016 00:18 10,7 C 95 % 1021,1 hPa 0,0 l/m 0,0 km/h (0 Bft) S-SW 210 0 min 0,000 mm 0,0 UV-I 0 W/m 9,9 C 10,7 C 1,6 km/h (1 Bft) 97,87 %
27.09.2016 00:20 10,5 C 95 % 1021,1 hPa 0,0 l/m 0,0 km/h (0 Bft) S-SW 210 0 min 0,000 mm 0,0 UV-I 0 W/m 9,7 C 10,5 C 0,0 km/h (0 Bft) 95,74 %
27.09.2016 00:22 10,4 C 95 % 1021,1 hPa 0,0 l/m 1,7 km/h (1 Bft) S-SW 210 0 min 0,000 mm 0,0 UV-I 0 W/m 9,6 C 10,4 C 3,2 km/h (1 Bft) 100,00 %
27.09.2016 00:24 10,4 C 95 % 1021,1 hPa 0,0 l/m 3,1 km/h (1 Bft) S-SW 210 0 min 0,000 mm 0,0 UV-I 0 W/m 9,6 C 10,4 C 4,8 km/h (1 Bft) 100,00 %
27.09.2016 00:26 10,4 C 95 % 1021,1 hPa 0,0 l/m 1,7 km/h (1 Bft) S-SW 210 0 min 0,000 mm 0,0 UV-I 0 W/m 9,6 C 10,4 C 3,2 km/h (1 Bft) 97,37 %
27.09.2016 00:28 10,5 C 96 % 1021,1 hPa 0,0 l/m 1,4 km/h (1 Bft) S-SW 210 0 min 0,000 mm 0,0 UV-I 0 W/m 9,9 C 10,5 C 3,2 km/h (1 Bft) 100,00 %
27.09.2016 00:30 10,5 C 96 % 1021,1 hPa 0,0 l/m 1,4 km/h (1 Bft) S-SW 210 0 min 0,000 mm 0,0 UV-I 0 W/m 9,9 C 10,5 C 1,6 km/h (1 Bft) 100,00 %
27.09.2016 00:32 10,6 C 96 % 1021,1 hPa 0,0 l/m 1,0 km/h (0 Bft) S-SW 210 0 min 0,000 mm 0,0 UV-I 0 W/m 10,0 C 10,6 C 3,2 km/h (1 Bft) 98,21 %
27.09.2016 00:34 10,6 C 96 % 1021,1 hPa 0,0 l/m 0,0 km/h (0 Bft) S-SW 210 0 min 0,000 mm 0,0 UV-I 0 W/m 10,0 C 10,6 C 0,0 km/h (0 Bft) 98,00 %
27.09.2016 00:36 10,7 C 96 % 1021,2 hPa 0,0 l/m 0,7 km/h (0 Bft) S-SW 210 0 min 0,000 mm 0,0 UV-I 0 W/m 10,1 C 10,7 C 1,6 km/h (1 Bft) 100,00 %
27.09.2016 00:38 10,7 C 96 % 1021,1 hPa 0,0 l/m 1,4 km/h (1 Bft) S-SW 210 0 min 0,000 mm 0,0 UV-I 0 W/m 10,1 C 10,7 C 3,2 km/h (1 Bft) 94,00 %
27.09.2016 00:40 10,6 C 95 % 1021,2 hPa 0,0 l/m 2,5 km/h (1 Bft) S-SW 210 0 min 0,000 mm 0,0 UV-I 0 W/m 9,8 C 10,6 C 3,2 km/h (1 Bft) 97,44 %
27.09.2016 00:42 10,5 C 95 % 1021,1 hPa 0,0 l/m 3,1 km/h (1 Bft) S-SW 210 0 min 0,000 mm 0,0 UV-I 0 W/m 9,7 C 10,5 C 4,8 km/h (1 Bft) 94,55 %
27.09.2016 00:44 10,5 C 96 % 1021,2 hPa 0,0 l/m 3,7 km/h (1 Bft) S-SW 209 0 min 0,000 mm 0,0 UV-I 0 W/m 9,9 C 10,5 C 4,8 km/h (1 Bft) 97,62 %
27.09.2016 00:46 10,5 C 96 % 1021,1 hPa 0,0 l/m 4,0 km/h (1 Bft) S 189 0 min 0,000 mm 0,0 UV-I 0 W/m 9,9 C 10,5 C 4,8 km/h (1 Bft) 92,00 %
27.09.2016 00:48 10,6 C 96 % 1021,1 hPa 0,0 l/m 5,8 km/h (2 Bft) S-SO 149 0 min 0,000 mm 0,0 UV-I 0 W/m 10,0 C 10,6 C 8,0 km/h (2 Bft) 95,12 %
27.09.2016 00:50 10,7 C 96 % 1021,2 hPa 0,0 l/m 4,6 km/h (1 Bft) S-SO 149 0 min 0,000 mm 0,0 UV-I 0 W/m 10,1 C 10,7 C 6,4 km/h (2 Bft) 97,87 %
27.09.2016 00:52 10,7 C 96 % 1021,2 hPa 0,0 l/m 2,8 km/h (1 Bft) S-SO 149 0 min 0,000 mm 0,0 UV-I 0 W/m 10,1 C 10,7 C 4,8 km/h (1 Bft) 96,00 %
27.09.2016 00:54 10,6 C 96 % 1021,2 hPa 0,0 l/m 1,6 km/h (1 Bft) S-SO 149 0 min 0,000 mm 0,0 UV-I 0 W/m 10,0 C 10,6 C 3,2 km/h (1 Bft) 96,00 %
27.09.2016 00:56 10,6 C 96 % 1021,1 hPa 0,0 l/m 0,0 km/h (0 Bft) S-SO 149 0 min 0,000 mm 0,0 UV-I 0 W/m 10,0 C 10,6 C 0,0 km/h (0 Bft) 97,56 %
27.09.2016 00:58 10,7 C 96 % 1021,1 hPa 0,0 l/m 0,0 km/h (0 Bft) S-SO 149 0 min 0,000 mm 0,0 UV-I 0 W/m 10,1 C 10,7 C 1,6 km/h (1 Bft) 96,00 %
27.09.2016 01:00 10,6 C 96 % 1021,1 hPa 0,0 l/m 0,0 km/h (0 Bft) S-SO 149 0 min 0,000 mm 0,0 UV-I 0 W/m 10,0 C 10,6 C 0,0 km/h (0 Bft) 97,87 %
27.09.2016 01:02 10,6 C 96 % 1021,1 hPa 0,0 l/m 0,0 km/h (0 Bft) S-SO 149 0 min 0,000 mm 0,0 UV-I 0 W/m 10,0 C 10,6 C 0,0 km/h (0 Bft) 98,00 %
27.09.2016 01:04 10,6 C 96 % 1021,2 hPa 0,0 l/m 0,0 km/h (0 Bft) S-SO 149 0 min 0,000 mm 0,0 UV-I 0 W/m 10,0 C 10,6 C 0,0 km/h (0 Bft) 97,87 %
27.09.2016 01:06 10,5 C 96 % 1021,2 hPa 0,0 l/m 0,0 km/h (0 Bft) S-SO 149 0 min 0,000 mm 0,0 UV-I 0 W/m 9,9 C 10,5 C 0,0 km/h (0 Bft) 97,87 %
27.09.2016 01:08 10,4 C 95 % 1021,2 hPa 0,0 l/m 0,5 km/h (0 Bft) S-SO 149 0 min 0,000 mm 0,0 UV-I 0 W/m 9,6 C 10,4 C 1,6 km/h (1 Bft) 97,37 %
27.09.2016 01:10 10,3 C 95 % 1021,2 hPa 0,0 l/m 2,4 km/h (1 Bft) S-SO 149 0 min 0,000 mm 0,0 UV-I 0 W/m 9,5 C 10,3 C 3,2 km/h (1 Bft) 97,87 %
27.09.2016 01:12 10,3 C 95 % 1021,2 hPa 0,0 l/m 2,1 km/h (1 Bft) S-SO 149 0 min 0,000 mm 0,0 UV-I 0 W/m 9,5 C 10,3 C 3,2 km/h (1 Bft) 94,34 %
27.09.2016 01:14 10,2 C 96 % 1021,2 hPa 0,0 l/m 1,6 km/h (1 Bft) S-SO 149 0 min 0,000 mm 0,0 UV-I 0 W/m 9,6 C 10,2 C 3,2 km/h (1 Bft) 100,00 %
27.09.2016 01:16 10,2 C 96 % 1021,2 hPa 0,0 l/m 3,0 km/h (1 Bft) S-SO 149 0 min 0,000 mm 0,0 UV-I 0 W/m 9,6 C 10,2 C 3,2 km/h (1 Bft) 100,00 %
27.09.2016 01:18 10,3 C 96 % 1021,2 hPa 0,0 l/m 2,9 km/h (1 Bft) S-SO 158 0 min 0,000 mm 0,0 UV-I 0 W/m 9,7 C 10,3 C 4,8 km/h (1 Bft) 100,00 %
27.09.2016 01:20 10,2 C 96 % 1021,2 hPa 0,0 l/m 2,8 km/h (1 Bft) S-SO 159 0 min 0,000 mm 0,0 UV-I 0 W/m 9,6 C 10,2 C 6,4 km/h (2 Bft) 100,00 %
27.09.2016 01:22 10,2 C 96 % 1021,2 hPa 0,0 l/m 2,7 km/h (1 Bft) S-SO 159 0 min 0,000 mm 0,0 UV-I 0 W/m 9,6 C 10,2 C 3,2 km/h (1 Bft) 100,00 %
27.09.2016 01:24 10,1 C 96 % 1021,2 hPa 0,0 l/m 2,1 km/h (1 Bft) S-SO 159 0 min 0,000 mm 0,0 UV-I 0 W/m 9,5 C 10,1 C 3,2 km/h (1 Bft) 100,00 %
27.09.2016 01:26 10,1 C 96 % 1021,2 hPa 0,0 l/m 0,8 km/h (0 Bft) S-SO 159 0 min 0,000 mm 0,0 UV-I 0 W/m 9,5 C 10,1 C 3,2 km/h (1 Bft) 98,11 %
27.09.2016 01:28 10,1 C 96 % 1021,2 hPa 0,0 l/m 0,0 km/h (0 Bft) S-SO 159 0 min 0,000 mm 0,0 UV-I 0 W/m 9,5 C 10,1 C 0,0 km/h (0 Bft) 100,00 %
27.09.2016 01:30 10,0 C 96 % 1021,2 hPa 0,0 l/m 0,0 km/h (0 Bft) S-SO 159 0 min 0,000 mm 0,0 UV-I 0 W/m 9,4 C 10,0 C 0,0 km/h (0 Bft) 100,00 %
27.09.2016 01:32 10,0 C 96 % 1021,3 hPa 0,0 l/m 1,2 km/h (1 Bft) S-SO 159 0 min 0,000 mm 0,0 UV-I 0 W/m 9,4 C 10,0 C 3,2 km/h (1 Bft) 100,00 %
27.09.2016 01:34 9,9 C 96 % 1021,2 hPa 0,0 l/m 0,5 km/h (0 Bft) S-SO 159 0 min 0,000 mm 0,0 UV-I 0 W/m 9,3 C 9,9 C 3,2 km/h (1 Bft) 100,00 %
27.09.2016 01:36 9,9 C 96 % 1021,3 hPa 0,0 l/m 0,0 km/h (0 Bft) S-SO 159 0 min 0,000 mm 0,0 UV-I 0 W/m 9,3 C 9,9 C 0,0 km/h (0 Bft) 100,00 %
27.09.2016 01:38 10,0 C 96 % 1021,3 hPa 0,0 l/m 0,0 km/h (0 Bft) S-SO 159 0 min 0,000 mm 0,0 UV-I 0 W/m 9,4 C 10,0 C 1,6 km/h (1 Bft) 98,11 %
27.09.2016 01:40 10,1 C 96 % 1021,3 hPa 0,0 l/m 2,0 km/h (1 Bft) S-SO 159 0 min 0,000 mm 0,0 UV-I 0 W/m 9,5 C 10,1 C 3,2 km/h (1 Bft) 100,00 %
27.09.2016 01:42 10,1 C 96 % 1021,2 hPa 0,0 l/m 2,3 km/h (1 Bft) S-SO 159 0 min 0,000 mm 0,0 UV-I 0 W/m 9,5 C 10,1 C 3,2 km/h (1 Bft) 100,00 %
27.09.2016 01:44 10,1 C 96 % 1021,2 hPa 0,0 l/m 1,3 km/h (1 Bft) S-SO 159 0 min 0,000 mm 0,0 UV-I 0 W/m 9,5 C 10,1 C 3,2 km/h (1 Bft) 100,00 %
27.09.2016 01:46 10,1 C 96 % 1021,3 hPa 0,0 l/m 0,3 km/h (0 Bft) S-SO 159 0 min 0,000 mm 0,0 UV-I 0 W/m 9,5 C 10,1 C 1,6 km/h (1 Bft) 100,00 %
27.09.2016 01:48 10,1 C 96 % 1021,3 hPa 0,0 l/m 0,0 km/h (0 Bft) S-SO 159 0 min 0,000 mm 0,0 UV-I 0 W/m 9,5 C 10,1 C 0,0 km/h (0 Bft) 98,04 %
27.09.2016 01:50 9,9 C 96 % 1021,3 hPa 0,0 l/m 0,0 km/h (0 Bft) S-SO 159 0 min 0,000 mm 0,0 UV-I 0 W/m 9,3 C 9,9 C 0,0 km/h (0 Bft) 100,00 %
27.09.2016 01:52 9,9 C 96 % 1021,3 hPa 0,0 l/m 0,0 km/h (0 Bft) S-SO 159 0 min 0,000 mm 0,0 UV-I 0 W/m 9,3 C 9,9 C 0,0 km/h (0 Bft) 100,00 %
27.09.2016 01:54 10,1 C 96 % 1021,3 hPa 0,0 l/m 0,0 km/h (0 Bft) S-SO 159 0 min 0,000 mm 0,0 UV-I 0 W/m 9,5 C 10,1 C 0,0 km/h (0 Bft) 98,00 %
27.09.2016 01:56 10,1 C 96 % 1021,3 hPa 0,0 l/m 0,0 km/h (0 Bft) S-SO 159 0 min 0,000 mm 0,0 UV-I 0 W/m 9,5 C 10,1 C 0,0 km/h (0 Bft) 100,00 %
27.09.2016 01:58 10,1 C 96 % 1021,3 hPa 0,0 l/m 0,0 km/h (0 Bft) S-SO 159 0 min 0,000 mm 0,0 UV-I 0 W/m 9,5 C 10,1 C 0,0 km/h (0 Bft) 100,00 %
27.09.2016 02:00 10,1 C 96 % 1021,3 hPa 0,0 l/m 1,2 km/h (1 Bft) S-SO 159 0 min 0,000 mm 0,0 UV-I 0 W/m 9,5 C 10,1 C 3,2 km/h (1 Bft) 98,04 %
27.09.2016 02:02 10,1 C 96 % 1021,3 hPa 0,0 l/m 1,6 km/h (1 Bft) S-SO 159 0 min 0,000 mm 0,0 UV-I 0 W/m 9,5 C 10,1 C 3,2 km/h (1 Bft) 100,00 %
27.09.2016 02:04 10,1 C 96 % 1021,3 hPa 0,0 l/m 0,2 km/h (0 Bft) S-SO 159 0 min 0,000 mm 0,0 UV-I 0 W/m 9,5 C 10,1 C 1,6 km/h (1 Bft) 100,00 %
27.09.2016 02:06 9,9 C 96 % 1021,3 hPa 0,0 l/m 1,6 km/h (1 Bft) S-SO 159 0 min 0,000 mm 0,0 UV-I 0 W/m 9,3 C 9,9 C 3,2 km/h (1 Bft) 100,00 %
27.09.2016 02:08 9,7 C 95 % 1021,2 hPa 0,0 l/m 3,1 km/h (1 Bft) S-SO 159 0 min 0,000 mm 0,0 UV-I 0 W/m 8,9 C 9,7 C 3,2 km/h (1 Bft) 100,00 %
27.09.2016 02:10 9,6 C 95 % 1021,2 hPa 0,0 l/m 2,9 km/h (1 Bft) S-SO 159 0 min 0,000 mm 0,0 UV-I 0 W/m 8,8 C 9,6 C 3,2 km/h (1 Bft) 100,00 %
27.09.2016 02:12 9,7 C 96 % 1021,2 hPa 0,0 l/m 2,2 km/h (1 Bft) S-SO 159 0 min 0,000 mm 0,0 UV-I 0 W/m 9,1 C 9,7 C 3,2 km/h (1 Bft) 98,00 %
27.09.2016 02:14 9,7 C 96 % 1021,2 hPa 0,0 l/m 2,2 km/h (1 Bft) S-SO 159 0 min 0,000 mm 0,0 UV-I 0 W/m 9,1 C 9,7 C 3,2 km/h (1 Bft) 100,00 %
27.09.2016 02:16 9,7 C 96 % 1021,2 hPa 0,0 l/m 2,9 km/h (1 Bft) S-SO 159 0 min 0,000 mm 0,0 UV-I 0 W/m 9,1 C 9,7 C 3,2 km/h (1 Bft) 97,37 %
27.09.2016 02:18 9,8 C 96 % 1021,2 hPa 0,0 l/m 2,9 km/h (1 Bft) S-SO 159 0 min 0,000 mm 0,0 UV-I 0 W/m 9,2 C 9,8 C 3,2 km/h (1 Bft) 98,04 %
27.09.2016 02:20 9,8 C 96 % 1021,2 hPa 0,0 l/m 2,0 km/h (1 Bft) S-SO 159 0 min 0,000 mm 0,0 UV-I 0 W/m 9,2 C 9,8 C 3,2 km/h (1 Bft) 98,00 %
27.09.2016 02:22 9,8 C 96 % 1021,2 hPa 0,0 l/m 1,6 km/h (1 Bft) S-SO 159 0 min 0,000 mm 0,0 UV-I 0 W/m 9,2 C 9,8 C 3,2 km/h (1 Bft) 100,00 %
27.09.2016 02:24 9,9 C 96 % 1021,2 hPa 0,0 l/m 0,7 km/h (0 Bft) S-SO 159 0 min 0,000 mm 0,0 UV-I 0 W/m 9,3 C 9,9 C 3,2 km/h (1 Bft) 100,00 %
27.09.2016 02:26 10,0 C 96 % 1021,2 hPa 0,0 l/m 0,0 km/h (0 Bft) S-SO 159 0 min 0,000 mm 0,0 UV-I 0 W/m 9,4 C 10,0 C 0,0 km/h (0 Bft) 100,00 %
27.09.2016 02:28 10,0 C 97 % 1021,2 hPa 0,0 l/m 0,0 km/h (0 Bft) S-SO 159 0 min 0,000 mm 0,0 UV-I 0 W/m 9,5 C 10,0 C 0,0 km/h (0 Bft) 100,00 %
27.09.2016 02:30 10,1 C 97 % 1021,2 hPa 0,0 l/m 0,0 km/h (0 Bft) S-SO 159 0 min 0,000 mm 0,0 UV-I 0 W/m 9,6 C 10,1 C 0,0 km/h (0 Bft) 100,00 %
27.09.2016 02:32 10,2 C 97 % 1021,2 hPa 0,0 l/m 0,0 km/h (0 Bft) S-SO 159 0 min 0,000 mm 0,0 UV-I 0 W/m 9,7 C 10,2 C 0,0 km/h (0 Bft) 100,00 %
27.09.2016 02:34 10,1 C 97 % 1021,2 hPa 0,0 l/m 0,0 km/h (0 Bft) S-SO 159 0 min 0,000 mm 0,0 UV-I 0 W/m 9,6 C 10,1 C 0,0 km/h (0 Bft) 100,00 %
27.09.2016 02:36 10,1 C 96 % 1021,2 hPa 0,0 l/m 0,0 km/h (0 Bft) S-SO 159 0 min 0,000 mm 0,0 UV-I 0 W/m 9,5 C 10,1 C 0,0 km/h (0 Bft) 100,00 %
27.09.2016 02:38 10,1 C 96 % 1021,2 hPa 0,0 l/m 0,0 km/h (0 Bft) S-SO 159 0 min 0,000 mm 0,0 UV-I 0 W/m 9,5 C 10,1 C 0,0 km/h (0 Bft) 100,00 %
27.09.2016 02:40 9,9 C 96 % 1021,2 hPa 0,0 l/m 0,7 km/h (0 Bft) S-SO 159 0 min 0,000 mm 0,0 UV-I 0 W/m 9,3 C 9,9 C 3,2 km/h (1 Bft) 100,00 %
27.09.2016 02:42 9,8 C 96 % 1021,2 hPa 0,0 l/m 2,6 km/h (1 Bft) S-SO 159 0 min 0,000 mm 0,0 UV-I 0 W/m 9,2 C 9,8 C 3,2 km/h (1 Bft) 100,00 %
27.09.2016 02:44 9,8 C 96 % 1021,2 hPa 0,0 l/m 1,7 km/h (1 Bft) S-SO 159 0 min 0,000 mm 0,0 UV-I 0 W/m 9,2 C 9,8 C 3,2 km/h (1 Bft) 98,11 %
27.09.2016 02:46 9,7 C 96 % 1021,2 hPa 0,0 l/m 0,8 km/h (0 Bft) S-SO 159 0 min 0,000 mm 0,0 UV-I 0 W/m 9,1 C 9,7 C 1,6 km/h (1 Bft) 97,87 %
27.09.2016 02:48 9,7 C 96 % 1021,1 hPa 0,0 l/m 0,0 km/h (0 Bft) S-SO 159 0 min 0,000 mm 0,0 UV-I 0 W/m 9,1 C 9,7 C 1,6 km/h (1 Bft) 97,37 %
27.09.2016 02:50 9,6 C 96 % 1021,2 hPa 0,0 l/m 0,1 km/h (0 Bft) S-SO 159 0 min 0,000 mm 0,0 UV-I 0 W/m 9,0 C 9,6 C 1,6 km/h (1 Bft) 95,74 %
27.09.2016 02:52 9,6 C 96 % 1021,2 hPa 0,0 l/m 0,0 km/h (0 Bft) S-SO 159 0 min 0,000 mm 0,0 UV-I 0 W/m 9,0 C 9,6 C 0,0 km/h (0 Bft) 97,87 %
27.09.2016 02:54 9,5 C 96 % 1021,1 hPa 0,0 l/m 0,0 km/h (0 Bft) S-SO 159 0 min 0,000 mm 0,0 UV-I 0 W/m 8,9 C 9,5 C 0,0 km/h (0 Bft) 98,11 %
27.09.2016 02:56 9,6 C 96 % 1021,2 hPa 0,0 l/m 0,0 km/h (0 Bft) S-SO 159 0 min 0,000 mm 0,0 UV-I 0 W/m 9,0 C 9,6 C 0,0 km/h (0 Bft) 95,74 %
27.09.2016 02:58 9,6 C 96 % 1021,2 hPa 0,0 l/m 0,0 km/h (0 Bft) S-SO 159 0 min 0,000 mm 0,0 UV-I 0 W/m 9,0 C 9,6 C 0,0 km/h (0 Bft) 95,74 %
27.09.2016 03:00 9,5 C 96 % 1021,2 hPa 0,0 l/m 0,0 km/h (0 Bft) S-SO 159 0 min 0,000 mm 0,0 UV-I 0 W/m 8,9 C 9,5 C 0,0 km/h (0 Bft) 97,87 %
27.09.2016 03:02 9,4 C 96 % 1021,2 hPa 0,0 l/m 0,0 km/h (0 Bft) S-SO 159 0 min 0,000 mm 0,0 UV-I 0 W/m 8,8 C 9,4 C 0,0 km/h (0 Bft) 95,74 %
27.09.2016 03:04 9,3 C 96 % 1021,1 hPa 0,0 l/m 1,5 km/h (1 Bft) S-SO 159 0 min 0,000 mm 0,0 UV-I 0 W/m 8,7 C 9,3 C 3,2 km/h (1 Bft) 97,87 %
27.09.2016 03:06 9,3 C 96 % 1021,2 hPa 0,0 l/m 2,8 km/h (1 Bft) S-SO 159 0 min 0,000 mm 0,0 UV-I 0 W/m 8,7 C 9,3 C 6,4 km/h (2 Bft) 97,14 %
27.09.2016 03:08 9,3 C 96 % 1021,2 hPa 0,0 l/m 3,1 km/h (1 Bft) S-SO 159 0 min 0,000 mm 0,0 UV-I 0 W/m 8,7 C 9,3 C 6,4 km/h (2 Bft) 98,11 %
27.09.2016 03:10 9,3 C 96 % 1021,1 hPa 0,0 l/m 3,6 km/h (1 Bft) S-SO 159 0 min 0,000 mm 0,0 UV-I 0 W/m 8,7 C 9,3 C 6,4 km/h (2 Bft) 98,21 %
27.09.2016 03:12 9,3 C 96 % 1021,2 hPa 0,0 l/m 2,4 km/h (1 Bft) S-SO 159 0 min 0,000 mm 0,0 UV-I 0 W/m 8,7 C 9,3 C 3,2 km/h (1 Bft) 95,74 %
27.09.2016 03:14 9,3 C 96 % 1021,2 hPa 0,0 l/m 2,7 km/h (1 Bft) S-SO 159 0 min 0,000 mm 0,0 UV-I 0 W/m 8,7 C 9,3 C 6,4 km/h (2 Bft) 95,74 %
27.09.2016 03:16 9,2 C 96 % 1021,2 hPa 0,0 l/m 2,0 km/h (1 Bft) S-SO 159 0 min 0,000 mm 0,0 UV-I 0 W/m 8,6 C 9,2 C 3,2 km/h (1 Bft) 97,22 %
27.09.2016 03:18 9,1 C 96 % 1021,2 hPa 0,0 l/m 2,3 km/h (1 Bft) S-SO 159 0 min 0,000 mm 0,0 UV-I 0 W/m 8,5 C 9,1 C 3,2 km/h (1 Bft) 98,00 %
27.09.2016 03:20 8,9 C 96 % 1021,2 hPa 0,0 l/m 0,6 km/h (0 Bft) S-SO 159 0 min 0,000 mm 0,0 UV-I 0 W/m 8,3 C 8,9 C 1,6 km/h (1 Bft) 100,00 %
27.09.2016 03:22 8,9 C 96 % 1021,3 hPa 0,0 l/m 0,2 km/h (0 Bft) S-SO 159 0 min 0,000 mm 0,0 UV-I 0 W/m 8,3 C 8,9 C 1,6 km/h (1 Bft) 97,44 %
27.09.2016 03:24 8,9 C 96 % 1021,3 hPa 0,0 l/m 0,2 km/h (0 Bft) S-SO 159 0 min 0,000 mm 0,0 UV-I 0 W/m 8,3 C 8,9 C 1,6 km/h (1 Bft) 100,00 %
27.09.2016 03:26 9,1 C 97 % 1021,2 hPa 0,0 l/m 0,1 km/h (0 Bft) S-SO 159 0 min 0,000 mm 0,0 UV-I 0 W/m 8,6 C 9,1 C 1,6 km/h (1 Bft) 100,00 %
27.09.2016 03:28 9,2 C 97 % 1021,3 hPa 0,0 l/m 0,0 km/h (0 Bft) S-SO 159 0 min 0,000 mm 0,0 UV-I 0 W/m 8,7 C 9,2 C 1,6 km/h (1 Bft) 96,00 %
27.09.2016 03:30 9,3 C 97 % 1021,2 hPa 0,0 l/m 0,0 km/h (0 Bft) S-SO 159 0 min 0,000 mm 0,0 UV-I 0 W/m 8,8 C 9,3 C 0,0 km/h (0 Bft) 100,00 %
27.09.2016 03:32 9,3 C 97 % 1021,2 hPa 0,0 l/m 0,0 km/h (0 Bft) S-SO 159 0 min 0,000 mm 0,0 UV-I 0 W/m 8,8 C 9,3 C 0,0 km/h (0 Bft) 100,00 %
27.09.2016 03:34 9,3 C 97 % 1021,3 hPa 0,0 l/m 0,0 km/h (0 Bft) S-SO 159 0 min 0,000 mm 0,0 UV-I 0 W/m 8,8 C 9,3 C 0,0 km/h (0 Bft) 100,00 %
27.09.2016 03:36 9,4 C 97 % 1021,2 hPa 0,0 l/m 0,0 km/h (0 Bft) S-SO 159 0 min 0,000 mm 0,0 UV-I 0 W/m 8,9 C 9,4 C 0,0 km/h (0 Bft) 100,00 %
27.09.2016 03:38 9,4 C 97 % 1021,2 hPa 0,0 l/m 0,0 km/h (0 Bft) S-SO 159 0 min 0,000 mm 0,0 UV-I 0 W/m 8,9 C 9,4 C 0,0 km/h (0 Bft) 100,00 %
27.09.2016 03:40 9,3 C 97 % 1021,2 hPa 0,0 l/m 0,0 km/h (0 Bft) S-SO 159 0 min 0,000 mm 0,0 UV-I 0 W/m 8,8 C 9,3 C 0,0 km/h (0 Bft) 100,00 %
27.09.2016 03:42 9,3 C 96 % 1021,2 hPa 0,0 l/m 0,0 km/h (0 Bft) S-SO 159 0 min 0,000 mm 0,0 UV-I 0 W/m 8,7 C 9,3 C 1,6 km/h (1 Bft) 100,00 %
27.09.2016 03:44 9,2 C 96 % 1021,2 hPa 0,0 l/m 1,6 km/h (1 Bft) S-SO 159 0 min 0,000 mm 0,0 UV-I 0 W/m 8,6 C 9,2 C 3,2 km/h (1 Bft) 100,00 %
27.09.2016 03:46 9,3 C 96 % 1021,2 hPa 0,0 l/m 2,1 km/h (1 Bft) S-SO 159 0 min 0,000 mm 0,0 UV-I 0 W/m 8,7 C 9,3 C 3,2 km/h (1 Bft) 100,00 %
27.09.2016 03:48 9,3 C 97 % 1021,2 hPa 0,0 l/m 1,5 km/h (1 Bft) S-SO 159 0 min 0,000 mm 0,0 UV-I 0 W/m 8,8 C 9,3 C 3,2 km/h (1 Bft) 98,00 %
27.09.2016 03:50 9,3 C 97 % 1021,2 hPa 0,0 l/m 0,4 km/h (0 Bft) S-SO 159 0 min 0,000 mm 0,0 UV-I 0 W/m 8,8 C 9,3 C 1,6 km/h (1 Bft) 97,87 %
27.09.2016 03:52 9,3 C 96 % 1021,2 hPa 0,0 l/m 0,0 km/h (0 Bft) S-SO 159 0 min 0,000 mm 0,0 UV-I 0 W/m 8,7 C 9,3 C 0,0 km/h (0 Bft) 100,00 %
27.09.2016 03:54 9,2 C 96 % 1021,2 hPa 0,0 l/m 0,4 km/h (0 Bft) S-SO 159 0 min 0,000 mm 0,0 UV-I 0 W/m 8,6 C 9,2 C 1,6 km/h (1 Bft) 100,00 %
27.09.2016 03:56 9,2 C 96 % 1021,2 hPa 0,0 l/m 0,1 km/h (0 Bft) S-SO 159 0 min 0,000 mm 0,0 UV-I 0 W/m 8,6 C 9,2 C 1,6 km/h (1 Bft) 100,00 %
27.09.2016 03:58 9,2 C 96 % 1021,2 hPa 0,0 l/m 0,0 km/h (0 Bft) S-SO 159 0 min 0,000 mm 0,0 UV-I 0 W/m 8,6 C 9,2 C 0,0 km/h (0 Bft) 100,00 %
27.09.2016 04:00 9,2 C 96 % 1021,2 hPa 0,0 l/m 0,0 km/h (0 Bft) S-SO 159 0 min 0,000 mm 0,0 UV-I 0 W/m 8,6 C 9,2 C 0,0 km/h (0 Bft) 100,00 %
27.09.2016 04:02 9,2 C 96 % 1021,3 hPa 0,0 l/m 0,0 km/h (0 Bft) S-SO 159 0 min 0,000 mm 0,0 UV-I 0 W/m 8,6 C 9,2 C 0,0 km/h (0 Bft) 100,00 %
27.09.2016 04:04 9,1 C 96 % 1021,3 hPa 0,0 l/m 0,4 km/h (0 Bft) S-SO 159 0 min 0,000 mm 0,0 UV-I 0 W/m 8,5 C 9,1 C 1,6 km/h (1 Bft) 100,00 %
27.09.2016 04:06 8,9 C 96 % 1021,3 hPa 0,0 l/m 0,8 km/h (0 Bft) S-SO 159 0 min 0,000 mm 0,0 UV-I 0 W/m 8,3 C 8,9 C 1,6 km/h (1 Bft) 96,00 %
27.09.2016 04:08 8,9 C 96 % 1021,3 hPa 0,0 l/m 1,6 km/h (1 Bft) S-SO 159 0 min 0,000 mm 0,0 UV-I 0 W/m 8,3 C 8,9 C 3,2 km/h (1 Bft) 100,00 %
27.09.2016 04:10 8,9 C 96 % 1021,3 hPa 0,0 l/m 0,7 km/h (0 Bft) S-SO 159 0 min 0,000 mm 0,0 UV-I 0 W/m 8,3 C 8,9 C 1,6 km/h (1 Bft) 98,00 %
27.09.2016 04:12 8,8 C 96 % 1021,3 hPa 0,0 l/m 1,3 km/h (1 Bft) S-SO 159 0 min 0,000 mm 0,0 UV-I 0 W/m 8,2 C 8,8 C 1,6 km/h (1 Bft) 100,00 %
27.09.2016 04:14 8,8 C 96 % 1021,3 hPa 0,0 l/m 1,6 km/h (1 Bft) S-SO 159 0 min 0,000 mm 0,0 UV-I 0 W/m 8,2 C 8,8 C 3,2 km/h (1 Bft) 100,00 %
27.09.2016 04:16 8,8 C 96 % 1021,3 hPa 0,0 l/m 1,4 km/h (1 Bft) S-SO 159 0 min 0,000 mm 0,0 UV-I 0 W/m 8,2 C 8,8 C 1,6 km/h (1 Bft) 100,00 %
27.09.2016 04:18 8,8 C 96 % 1021,3 hPa 0,0 l/m 1,0 km/h (0 Bft) S-SO 159 0 min 0,000 mm 0,0 UV-I 0 W/m 8,2 C 8,8 C 1,6 km/h (1 Bft) 100,00 %
27.09.2016 04:20 8,8 C 96 % 1021,3 hPa 0,0 l/m 0,1 km/h (0 Bft) S-SO 159 0 min 0,000 mm 0,0 UV-I 0 W/m 8,2 C 8,8 C 1,6 km/h (1 Bft) 98,00 %
27.09.2016 04:22 8,7 C 96 % 1021,3 hPa 0,0 l/m 0,0 km/h (0 Bft) S-SO 159 0 min 0,000 mm 0,0 UV-I 0 W/m 8,1 C 8,7 C 0,0 km/h (0 Bft) 100,00 %
27.09.2016 04:24 8,8 C 96 % 1021,3 hPa 0,0 l/m 0,0 km/h (0 Bft) S-SO 159 0 min 0,000 mm 0,0 UV-I 0 W/m 8,2 C 8,8 C 0,0 km/h (0 Bft) 97,87 %
27.09.2016 04:26 8,8 C 97 % 1021,3 hPa 0,0 l/m 0,1 km/h (0 Bft) S-SO 159 0 min 0,000 mm 0,0 UV-I 0 W/m 8,4 C 8,8 C 1,6 km/h (1 Bft) 100,00 %
27.09.2016 04:28 8,9 C 97 % 1021,2 hPa 0,0 l/m 0,1 km/h (0 Bft) S-SO 159 0 min 0,000 mm 0,0 UV-I 0 W/m 8,4 C 8,9 C 1,6 km/h (1 Bft) 100,00 %
27.09.2016 04:30 9,1 C 97 % 1021,2 hPa 0,0 l/m 0,0 km/h (0 Bft) S-SO 159 0 min 0,000 mm 0,0 UV-I 0 W/m 8,6 C 9,1 C 0,0 km/h (0 Bft) 100,00 %
27.09.2016 04:32 9,1 C 97 % 1021,3 hPa 0,0 l/m 0,0 km/h (0 Bft) S-SO 159 0 min 0,000 mm 0,0 UV-I 0 W/m 8,6 C 9,1 C 0,0 km/h (0 Bft) 100,00 %
27.09.2016 04:34 9,1 C 97 % 1021,3 hPa 0,0 l/m 0,0 km/h (0 Bft) S-SO 159 0 min 0,000 mm 0,0 UV-I 0 W/m 8,6 C 9,1 C 0,0 km/h (0 Bft) 100,00 %
27.09.2016 04:36 9,1 C 97 % 1021,3 hPa 0,0 l/m 0,0 km/h (0 Bft) S-SO 159 0 min 0,000 mm 0,0 UV-I 0 W/m 8,6 C 9,1 C 0,0 km/h (0 Bft) 100,00 %
27.09.2016 04:38 9,2 C 97 % 1021,3 hPa 0,0 l/m 0,0 km/h (0 Bft) S-SO 159 0 min 0,000 mm 0,0 UV-I 0 W/m 8,7 C 9,2 C 0,0 km/h (0 Bft) 100,00 %
27.09.2016 04:40 9,2 C 97 % 1021,4 hPa 0,0 l/m 0,0 km/h (0 Bft) S-SO 159 0 min 0,000 mm 0,0 UV-I 0 W/m 8,7 C 9,2 C 0,0 km/h (0 Bft) 100,00 %
27.09.2016 04:42 9,2 C 97 % 1021,4 hPa 0,0 l/m 0,0 km/h (0 Bft) S-SO 159 0 min 0,000 mm 0,0 UV-I 0 W/m 8,7 C 9,2 C 0,0 km/h (0 Bft) 100,00 %
27.09.2016 04:44 9,2 C 97 % 1021,4 hPa 0,0 l/m 0,0 km/h (0 Bft) S-SO 159 0 min 0,000 mm 0,0 UV-I 0 W/m 8,7 C 9,2 C 0,0 km/h (0 Bft) 100,00 %
27.09.2016 04:46 9,1 C 97 % 1021,5 hPa 0,0 l/m 0,0 km/h (0 Bft) S-SO 159 0 min 0,000 mm 0,0 UV-I 0 W/m 8,6 C 9,1 C 0,0 km/h (0 Bft) 100,00 %
27.09.2016 04:48 8,9 C 97 % 1021,5 hPa 0,0 l/m 0,0 km/h (0 Bft) S-SO 159 0 min 0,000 mm 0,0 UV-I 0 W/m 8,4 C 8,9 C 0,0 km/h (0 Bft) 100,00 %
27.09.2016 04:50 8,8 C 97 % 1021,6 hPa 0,0 l/m 0,4 km/h (0 Bft) S-SO 159 0 min 0,000 mm 0,0 UV-I 0 W/m 8,4 C 8,8 C 3,2 km/h (1 Bft) 96,00 %
27.09.2016 04:52 8,8 C 97 % 1021,5 hPa 0,0 l/m 2,2 km/h (1 Bft) S-SO 159 0 min 0,000 mm 0,0 UV-I 0 W/m 8,4 C 8,8 C 3,2 km/h (1 Bft) 98,11 %
27.09.2016 04:54 8,7 C 97 % 1021,6 hPa 0,0 l/m 2,4 km/h (1 Bft) S-SO 159 0 min 0,000 mm 0,0 UV-I 0 W/m 8,3 C 8,7 C 3,2 km/h (1 Bft) 97,56 %
27.09.2016 04:56 8,7 C 97 % 1021,6 hPa 0,0 l/m 1,9 km/h (1 Bft) S-SO 159 0 min 0,000 mm 0,0 UV-I 0 W/m 8,3 C 8,7 C 3,2 km/h (1 Bft) 98,00 %
27.09.2016 04:58 8,7 C 97 % 1021,6 hPa 0,0 l/m 1,2 km/h (1 Bft) S-SO 159 0 min 0,000 mm 0,0 UV-I 0 W/m 8,3 C 8,7 C 3,2 km/h (1 Bft) 95,74 %
27.09.2016 05:00 8,8 C 97 % 1021,7 hPa 0,0 l/m 1,6 km/h (1 Bft) S-SO 159 0 min 0,000 mm 0,0 UV-I 0 W/m 8,4 C 8,8 C 3,2 km/h (1 Bft) 96,15 %
27.09.2016 05:02 8,9 C 97 % 1021,6 hPa 0,0 l/m 1,4 km/h (1 Bft) S-SO 159 0 min 0,000 mm 0,0 UV-I 0 W/m 8,4 C 8,9 C 3,2 km/h (1 Bft) 96,77 %
27.09.2016 05:04 8,9 C 97 % 1021,7 hPa 0,0 l/m 1,9 km/h (1 Bft) S-SO 159 0 min 0,000 mm 0,0 UV-I 0 W/m 8,4 C 8,9 C 3,2 km/h (1 Bft) 98,00 %
27.09.2016 05:06 8,9 C 97 % 1021,7 hPa 0,0 l/m 1,9 km/h (1 Bft) S-SO 159 0 min 0,000 mm 0,0 UV-I 0 W/m 8,4 C 8,9 C 3,2 km/h (1 Bft) 97,87 %
27.09.2016 05:08 8,9 C 97 % 1021,7 hPa 0,0 l/m 3,0 km/h (1 Bft) S-SO 159 0 min 0,000 mm 0,0 UV-I 0 W/m 8,4 C 8,9 C 6,4 km/h (2 Bft) 98,00 %
27.09.2016 05:10 8,9 C 97 % 1021,8 hPa 0,0 l/m 3,4 km/h (1 Bft) S-SO 159 0 min 0,000 mm 0,0 UV-I 0 W/m 8,4 C 8,9 C 6,4 km/h (2 Bft) 97,37 %
27.09.2016 05:12 8,9 C 97 % 1021,7 hPa 0,0 l/m 2,8 km/h (1 Bft) S-SO 159 0 min 0,000 mm 0,0 UV-I 0 W/m 8,4 C 8,9 C 6,4 km/h (2 Bft) 98,00 %
27.09.2016 05:14 9,0 C 97 % 1021,8 hPa 0,0 l/m 2,1 km/h (1 Bft) S-SO 159 0 min 0,000 mm 0,0 UV-I 0 W/m 8,5 C 9,0 C 3,2 km/h (1 Bft) 97,87 %
27.09.2016 05:16 9,0 C 97 % 1021,8 hPa 0,0 l/m 1,9 km/h (1 Bft) S-SO 159 0 min 0,000 mm 0,0 UV-I 0 W/m 8,5 C 9,0 C 3,2 km/h (1 Bft) 95,83 %
27.09.2016 05:18 9,1 C 97 % 1021,8 hPa 0,0 l/m 1,1 km/h (1 Bft) S-SO 159 0 min 0,000 mm 0,0 UV-I 0 W/m 8,6 C 9,1 C 3,2 km/h (1 Bft) 98,08 %
27.09.2016 05:20 9,1 C 97 % 1021,8 hPa 0,0 l/m 1,4 km/h (1 Bft) S-SO 159 0 min 0,000 mm 0,0 UV-I 0 W/m 8,6 C 9,1 C 3,2 km/h (1 Bft) 97,22 %
27.09.2016 05:22 9,1 C 97 % 1021,8 hPa 0,0 l/m 0,7 km/h (0 Bft) S-SO 159 0 min 0,000 mm 0,0 UV-I 0 W/m 8,6 C 9,1 C 1,6 km/h (1 Bft) 98,11 %
27.09.2016 05:24 9,2 C 97 % 1021,8 hPa 0,0 l/m 0,4 km/h (0 Bft) S-SO 159 0 min 0,000 mm 0,0 UV-I 0 W/m 8,7 C 9,2 C 1,6 km/h (1 Bft) 98,11 %
27.09.2016 05:26 9,2 C 98 % 1021,8 hPa 0,0 l/m 0,0 km/h (0 Bft) S-SO 159 0 min 0,000 mm 0,0 UV-I 0 W/m 8,9 C 9,2 C 0,0 km/h (0 Bft) 97,37 %
27.09.2016 05:28 9,2 C 98 % 1021,8 hPa 0,0 l/m 0,0 km/h (0 Bft) S-SO 159 0 min 0,000 mm 0,0 UV-I 0 W/m 8,9 C 9,2 C 0,0 km/h (0 Bft) 100,00 %
27.09.2016 05:30 9,2 C 98 % 1021,8 hPa 0,0 l/m 0,0 km/h (0 Bft) S-SO 159 0 min 0,000 mm 0,0 UV-I 0 W/m 8,9 C 9,2 C 0,0 km/h (0 Bft) 100,00 %
27.09.2016 05:32 9,2 C 98 % 1021,8 hPa 0,0 l/m 0,0 km/h (0 Bft) S-SO 159 0 min 0,000 mm 0,0 UV-I 0 W/m 8,9 C 9,2 C 0,0 km/h (0 Bft) 100,00 %
27.09.2016 05:34 9,2 C 98 % 1021,8 hPa 0,0 l/m 0,0 km/h (0 Bft) S-SO 159 0 min 0,000 mm 0,0 UV-I 0 W/m 8,9 C 9,2 C 0,0 km/h (0 Bft) 97,14 %
27.09.2016 05:36 9,3 C 98 % 1021,8 hPa 0,0 l/m 0,0 km/h (0 Bft) S-SO 159 0 min 0,000 mm 0,0 UV-I 0 W/m 9,0 C 9,3 C 0,0 km/h (0 Bft) 100,00 %
27.09.2016 05:38 9,3 C 98 % 1021,8 hPa 0,0 l/m 0,0 km/h (0 Bft) S-SO 159 0 min 0,000 mm 0,0 UV-I 0 W/m 9,0 C 9,3 C 0,0 km/h (0 Bft) 100,00 %
27.09.2016 05:40 9,3 C 98 % 1021,9 hPa 0,0 l/m 0,0 km/h (0 Bft) S-SO 159 0 min 0,000 mm 0,0 UV-I 0 W/m 9,0 C 9,3 C 0,0 km/h (0 Bft) 98,00 %
27.09.2016 05:42 9,3 C 98 % 1021,9 hPa 0,0 l/m 1,0 km/h (0 Bft) S-SO 159 0 min 0,000 mm 0,0 UV-I 0 W/m 9,0 C 9,3 C 1,6 km/h (1 Bft) 100,00 %
27.09.2016 05:44 9,3 C 98 % 1021,9 hPa 0,0 l/m 1,4 km/h (1 Bft) S-SO 159 0 min 0,000 mm 0,0 UV-I 0 W/m 9,0 C 9,3 C 3,2 km/h (1 Bft) 100,00 %
27.09.2016 05:46 9,3 C 98 % 1021,9 hPa 0,0 l/m 2,6 km/h (1 Bft) S-SO 159 0 min 0,000 mm 0,0 UV-I 0 W/m 9,0 C 9,3 C 3,2 km/h (1 Bft) 100,00 %
27.09.2016 05:48 9,2 C 98 % 1021,9 hPa 0,0 l/m 1,8 km/h (1 Bft) S-SO 159 0 min 0,000 mm 0,0 UV-I 0 W/m 8,9 C 9,2 C 3,2 km/h (1 Bft) 100,00 %
27.09.2016 05:50 9,1 C 97 % 1021,9 hPa 0,0 l/m 0,6 km/h (0 Bft) S-SO 159 0 min 0,000 mm 0,0 UV-I 0 W/m 8,6 C 9,1 C 3,2 km/h (1 Bft) 96,00 %
27.09.2016 05:52 9,1 C 97 % 1021,9 hPa 0,0 l/m 0,0 km/h (0 Bft) S-SO 159 0 min 0,000 mm 0,0 UV-I 0 W/m 8,6 C 9,1 C 0,0 km/h (0 Bft) 100,00 %
27.09.2016 05:54 9,0 C 97 % 1022,0 hPa 0,0 l/m 0,0 km/h (0 Bft) S-SO 159 0 min 0,000 mm 0,0 UV-I 0 W/m 8,5 C 9,0 C 0,0 km/h (0 Bft) 97,87 %
27.09.2016 05:56 8,9 C 97 % 1022,0 hPa 0,0 l/m 0,0 km/h (0 Bft) S-SO 159 0 min 0,000 mm 0,0 UV-I 0 W/m 8,4 C 8,9 C 1,6 km/h (1 Bft) 98,00 %
27.09.2016 05:58 8,9 C 97 % 1022,0 hPa 0,0 l/m 0,0 km/h (0 Bft) S-SO 159 0 min 0,000 mm 0,0 UV-I 0 W/m 8,4 C 8,9 C 0,0 km/h (0 Bft) 100,00 %
27.09.2016 06:00 8,9 C 98 % 1021,9 hPa 0,0 l/m 1,3 km/h (1 Bft) S-SO 159 0 min 0,000 mm 0,0 UV-I 0 W/m 8,6 C 8,9 C 1,6 km/h (1 Bft) 100,00 %
27.09.2016 06:02 8,9 C 98 % 1022,0 hPa 0,0 l/m 1,6 km/h (1 Bft) S-SO 159 0 min 0,000 mm 0,0 UV-I 0 W/m 8,6 C 8,9 C 3,2 km/h (1 Bft) 100,00 %
27.09.2016 06:04 8,9 C 98 % 1021,9 hPa 0,0 l/m 1,6 km/h (1 Bft) S-SO 159 0 min 0,000 mm 0,0 UV-I 0 W/m 8,6 C 8,9 C 3,2 km/h (1 Bft) 100,00 %
27.09.2016 06:06 8,9 C 98 % 1021,9 hPa 0,0 l/m 2,2 km/h (1 Bft) S-SO 159 0 min 0,000 mm 0,0 UV-I 0 W/m 8,6 C 8,9 C 3,2 km/h (1 Bft) 100,00 %
27.09.2016 06:08 8,8 C 98 % 1021,9 hPa 0,0 l/m 2,6 km/h (1 Bft) S-SO 159 0 min 0,000 mm 0,0 UV-I 0 W/m 8,5 C 8,8 C 3,2 km/h (1 Bft) 100,00 %
27.09.2016 06:10 8,8 C 97 % 1021,9 hPa 0,0 l/m 1,6 km/h (1 Bft) S-SO 159 0 min 0,000 mm 0,0 UV-I 0 W/m 8,4 C 8,8 C 3,2 km/h (1 Bft) 100,00 %
27.09.2016 06:12 8,8 C 97 % 1022,0 hPa 0,0 l/m 1,2 km/h (1 Bft) S-SO 159 0 min 0,000 mm 0,0 UV-I 0 W/m 8,4 C 8,8 C 3,2 km/h (1 Bft) 100,00 %
27.09.2016 06:14 8,8 C 97 % 1022,0 hPa 0,0 l/m 0,5 km/h (0 Bft) S-SO 159 0 min 0,000 mm 0,0 UV-I 0 W/m 8,4 C 8,8 C 3,2 km/h (1 Bft) 100,00 %
27.09.2016 06:16 8,7 C 97 % 1022,0 hPa 0,0 l/m 0,0 km/h (0 Bft) S-SO 159 0 min 0,000 mm 0,0 UV-I 0 W/m 8,3 C 8,7 C 0,0 km/h (0 Bft) 100,00 %
27.09.2016 06:18 8,7 C 97 % 1022,0 hPa 0,0 l/m 0,0 km/h (0 Bft) S-SO 159 0 min 0,000 mm 0,0 UV-I 0 W/m 8,3 C 8,7 C 0,0 km/h (0 Bft) 100,00 %
27.09.2016 06:20 8,7 C 98 % 1022,1 hPa 0,0 l/m 0,0 km/h (0 Bft) S-SO 159 0 min 0,000 mm 0,0 UV-I 0 W/m 8,4 C 8,7 C 0,0 km/h (0 Bft) 98,11 %
27.09.2016 06:22 8,7 C 98 % 1022,1 hPa 0,0 l/m 0,3 km/h (0 Bft) S-SO 159 0 min 0,000 mm 0,0 UV-I 0 W/m 8,4 C 8,7 C 1,6 km/h (1 Bft) 98,00 %
27.09.2016 06:24 8,7 C 98 % 1022,1 hPa 0,0 l/m 0,9 km/h (0 Bft) S-SO 159 0 min 0,000 mm 0,0 UV-I 0 W/m 8,4 C 8,7 C 3,2 km/h (1 Bft) 100,00 %
27.09.2016 06:26 8,7 C 98 % 1022,2 hPa 0,0 l/m 1,5 km/h (1 Bft) S-SO 159 0 min 0,000 mm 0,0 UV-I 0 W/m 8,4 C 8,7 C 1,6 km/h (1 Bft) 97,73 %
27.09.2016 06:28 8,7 C 98 % 1022,2 hPa 0,0 l/m 0,6 km/h (0 Bft) S-SO 159 0 min 0,000 mm 0,0 UV-I 0 W/m 8,4 C 8,7 C 1,6 km/h (1 Bft) 100,00 %
27.09.2016 06:30 8,6 C 98 % 1022,3 hPa 0,0 l/m 0,4 km/h (0 Bft) S-SO 159 0 min 0,000 mm 0,0 UV-I 0 W/m 8,3 C 8,6 C 1,6 km/h (1 Bft) 100,00 %
27.09.2016 06:32 8,6 C 98 % 1022,2 hPa 0,0 l/m 0,0 km/h (0 Bft) S-SO 159 0 min 0,000 mm 0,0 UV-I 0 W/m 8,3 C 8,6 C 1,6 km/h (1 Bft) 100,00 %
27.09.2016 06:34 8,7 C 98 % 1022,3 hPa 0,0 l/m 0,9 km/h (0 Bft) S-SO 159 0 min 0,000 mm 0,0 UV-I 0 W/m 8,4 C 8,7 C 3,2 km/h (1 Bft) 100,00 %
27.09.2016 06:36 8,7 C 98 % 1022,3 hPa 0,0 l/m 1,2 km/h (1 Bft) S-SO 159 0 min 0,000 mm 0,0 UV-I 0 W/m 8,4 C 8,7 C 3,2 km/h (1 Bft) 100,00 %
27.09.2016 06:38 8,6 C 98 % 1022,3 hPa 0,0 l/m 2,7 km/h (1 Bft) S-SO 159 0 min 0,000 mm 0,0 UV-I 0 W/m 8,3 C 8,6 C 3,2 km/h (1 Bft) 100,00 %
27.09.2016 06:40 8,6 C 98 % 1022,4 hPa 0,0 l/m 1,9 km/h (1 Bft) S-SO 159 0 min 0,000 mm 0,0 UV-I 0 W/m 8,3 C 8,6 C 3,2 km/h (1 Bft) 100,00 %
27.09.2016 06:42 8,6 C 98 % 1022,4 hPa 0,0 l/m 1,5 km/h (1 Bft) S-SO 159 0 min 0,000 mm 0,0 UV-I 0 W/m 8,3 C 8,6 C 3,2 km/h (1 Bft) 100,00 %
27.09.2016 06:44 8,6 C 98 % 1022,4 hPa 0,0 l/m 1,3 km/h (1 Bft) S-SO 159 0 min 0,000 mm 0,0 UV-I 0 W/m 8,3 C 8,6 C 3,2 km/h (1 Bft) 100,00 %
27.09.2016 06:46 8,6 C 98 % 1022,4 hPa 0,0 l/m 1,6 km/h (1 Bft) S-SO 159 0 min 0,000 mm 0,0 UV-I 0 W/m 8,3 C 8,6 C 3,2 km/h (1 Bft) 100,00 %
27.09.2016 06:48 8,6 C 98 % 1022,5 hPa 0,0 l/m 1,2 km/h (1 Bft) S-SO 159 0 min 0,000 mm 0,0 UV-I 0 W/m 8,3 C 8,6 C 3,2 km/h (1 Bft) 100,00 %
27.09.2016 06:50 8,6 C 98 % 1022,5 hPa 0,0 l/m 1,3 km/h (1 Bft) S-SO 159 0 min 0,000 mm 0,0 UV-I 0 W/m 8,3 C 8,6 C 3,2 km/h (1 Bft) 98,00 %
27.09.2016 06:52 8,6 C 98 % 1022,5 hPa 0,0 l/m 1,0 km/h (0 Bft) S-SO 159 0 min 0,000 mm 0,0 UV-I 0 W/m 8,3 C 8,6 C 3,2 km/h (1 Bft) 97,14 %
27.09.2016 06:54 8,6 C 98 % 1022,6 hPa 0,0 l/m 2,7 km/h (1 Bft) S-SO 159 0 min 0,000 mm 0,0 UV-I 0 W/m 8,3 C 8,6 C 6,4 km/h (2 Bft) 96,23 %
27.09.2016 06:56 8,6 C 98 % 1022,6 hPa 0,0 l/m 2,6 km/h (1 Bft) S-SO 159 0 min 0,000 mm 0,0 UV-I 0 W/m 8,3 C 8,6 C 3,2 km/h (1 Bft) 98,00 %
27.09.2016 06:58 8,5 C 98 % 1022,6 hPa 0,0 l/m 2,4 km/h (1 Bft) S-SO 159 0 min 0,000 mm 0,0 UV-I 1 W/m 8,2 C 8,5 C 3,2 km/h (1 Bft) 97,37 %
27.09.2016 07:00 8,5 C 98 % 1022,6 hPa 0,0 l/m 1,8 km/h (1 Bft) S-SO 159 0 min 0,000 mm 0,0 UV-I 5 W/m 8,2 C 8,5 C 3,2 km/h (1 Bft) 96,00 %
27.09.2016 07:02 8,6 C 98 % 1022,7 hPa 0,0 l/m 1,2 km/h (1 Bft) S-SO 159 0 min 0,000 mm 0,0 UV-I 5 W/m 8,3 C 8,6 C 3,2 km/h (1 Bft) 98,11 %
27.09.2016 07:04 8,6 C 98 % 1022,6 hPa 0,0 l/m 0,7 km/h (0 Bft) S-SO 159 0 min 0,000 mm 0,0 UV-I 5 W/m 8,3 C 8,6 C 3,2 km/h (1 Bft) 97,87 %
27.09.2016 07:06 8,6 C 98 % 1022,6 hPa 0,0 l/m 0,1 km/h (0 Bft) S-SO 159 0 min 0,000 mm 0,0 UV-I 7 W/m 8,3 C 8,6 C 1,6 km/h (1 Bft) 95,45 %
27.09.2016 07:08 8,6 C 98 % 1022,6 hPa 0,0 l/m 1,0 km/h (0 Bft) S-SO 159 0 min 0,000 mm 0,0 UV-I 7 W/m 8,3 C 8,6 C 1,6 km/h (1 Bft) 97,87 %
27.09.2016 07:10 8,6 C 98 % 1022,7 hPa 0,0 l/m 0,3 km/h (0 Bft) S-SO 159 0 min 0,000 mm 0,0 UV-I 8 W/m 8,3 C 8,6 C 1,6 km/h (1 Bft) 97,87 %
27.09.2016 07:12 8,6 C 98 % 1022,7 hPa 0,0 l/m 0,0 km/h (0 Bft) S-SO 159 0 min 0,000 mm 0,0 UV-I 10 W/m 8,3 C 8,6 C 1,6 km/h (1 Bft) 96,00 %
27.09.2016 07:14 8,6 C 98 % 1022,7 hPa 0,0 l/m 0,0 km/h (0 Bft) S-SO 159 0 min 0,000 mm 0,0 UV-I 11 W/m 8,3 C 8,6 C 0,0 km/h (0 Bft) 97,22 %
27.09.2016 07:16 8,6 C 98 % 1022,7 hPa 0,0 l/m 0,0 km/h (0 Bft) S-SO 159 0 min 0,000 mm 0,0 UV-I 12 W/m 8,3 C 8,6 C 1,6 km/h (1 Bft) 98,00 %
27.09.2016 07:18 8,6 C 98 % 1022,7 hPa 0,2 l/m 0,0 km/h (0 Bft) S-SO 159 0 min 0,000 mm 0,0 UV-I 12 W/m 8,3 C 8,6 C 0,0 km/h (0 Bft) 95,74 %
27.09.2016 07:20 8,6 C 98 % 1022,7 hPa 0,0 l/m 0,0 km/h (0 Bft) S-SO 159 0 min 0,000 mm 0,0 UV-I 14 W/m 8,3 C 8,6 C 0,0 km/h (0 Bft) 94,34 %
27.09.2016 07:22 8,6 C 98 % 1022,8 hPa 0,0 l/m 0,1 km/h (0 Bft) S-SO 159 0 min 0,000 mm 0,0 UV-I 15 W/m 8,3 C 8,6 C 1,6 km/h (1 Bft) 95,74 %
27.09.2016 07:24 8,6 C 98 % 1022,8 hPa 0,0 l/m 0,4 km/h (0 Bft) S-SO 159 0 min 0,000 mm 0,0 UV-I 17 W/m 8,3 C 8,6 C 1,6 km/h (1 Bft) 97,37 %
27.09.2016 07:26 8,6 C 98 % 1022,8 hPa 0,0 l/m 0,6 km/h (0 Bft) S-SO 159 0 min 0,000 mm 0,0 UV-I 18 W/m 8,3 C 8,6 C 1,6 km/h (1 Bft) 96,23 %
27.09.2016 07:28 8,6 C 98 % 1022,8 hPa 0,0 l/m 0,0 km/h (0 Bft) S-SO 159 0 min 0,000 mm 0,0 UV-I 20 W/m 8,3 C 8,6 C 0,0 km/h (0 Bft) 100,00 %
27.09.2016 07:30 8,6 C 98 % 1022,9 hPa 0,0 l/m 0,0 km/h (0 Bft) S-SO 159 0 min 0,000 mm 0,0 UV-I 21 W/m 8,3 C 8,6 C 0,0 km/h (0 Bft) 100,00 %
27.09.2016 07:32 8,7 C 98 % 1022,9 hPa 0,0 l/m 0,0 km/h (0 Bft) S-SO 159 0 min 0,000 mm 0,0 UV-I 23 W/m 8,4 C 8,7 C 0,0 km/h (0 Bft) 100,00 %
27.09.2016 07:34 8,7 C 98 % 1022,9 hPa 0,0 l/m 0,0 km/h (0 Bft) S-SO 159 0 min 0,000 mm 0,0 UV-I 26 W/m 8,4 C 8,7 C 0,0 km/h (0 Bft) 100,00 %
27.09.2016 07:36 8,7 C 98 % 1022,9 hPa 0,0 l/m 0,0 km/h (0 Bft) S-SO 159 0 min 0,000 mm 0,0 UV-I 28 W/m 8,4 C 8,7 C 0,0 km/h (0 Bft) 100,00 %
27.09.2016 07:38 8,7 C 98 % 1023,0 hPa 0,0 l/m 0,0 km/h (0 Bft) S-SO 159 0 min 0,000 mm 0,0 UV-I 29 W/m 8,4 C 8,7 C 0,0 km/h (0 Bft) 100,00 %
27.09.2016 07:40 8,6 C 98 % 1023,0 hPa 0,0 l/m 0,0 km/h (0 Bft) S-SO 159 0 min 0,000 mm 0,0 UV-I 32 W/m 8,3 C 8,6 C 0,0 km/h (0 Bft) 100,00 %
27.09.2016 07:42 8,7 C 98 % 1023,0 hPa 0,0 l/m 0,0 km/h (0 Bft) S-SO 159 0 min 0,000 mm 0,0 UV-I 34 W/m 8,4 C 8,7 C 0,0 km/h (0 Bft) 100,00 %
27.09.2016 07:44 8,7 C 98 % 1023,1 hPa 0,0 l/m 0,0 km/h (0 Bft) S-SO 159 0 min 0,000 mm 0,0 UV-I 39 W/m 8,4 C 8,7 C 0,0 km/h (0 Bft) 100,00 %
27.09.2016 07:46 8,7 C 98 % 1023,0 hPa 0,0 l/m 0,0 km/h (0 Bft) S-SO 159 0 min 0,000 mm 0,0 UV-I 40 W/m 8,4 C 8,7 C 1,6 km/h (1 Bft) 100,00 %
27.09.2016 07:48 8,6 C 98 % 1023,1 hPa 0,0 l/m 0,0 km/h (0 Bft) S-SO 159 0 min 0,000 mm 0,0 UV-I 43 W/m 8,3 C 8,6 C 0,0 km/h (0 Bft) 100,00 %
27.09.2016 07:50 8,6 C 98 % 1023,1 hPa 0,0 l/m 0,0 km/h (0 Bft) S-SO 159 0 min 0,000 mm 0,0 UV-I 45 W/m 8,3 C 8,6 C 0,0 km/h (0 Bft) 100,00 %
27.09.2016 07:52 8,6 C 98 % 1023,1 hPa 0,0 l/m 0,0 km/h (0 Bft) S-SO 159 0 min 0,000 mm 0,0 UV-I 48 W/m 8,3 C 8,6 C 0,0 km/h (0 Bft) 97,87 %
27.09.2016 07:54 8,6 C 98 % 1023,2 hPa 0,0 l/m 0,0 km/h (0 Bft) S-SO 159 0 min 0,000 mm 0,0 UV-I 51 W/m 8,3 C 8,6 C 0,0 km/h (0 Bft) 100,00 %
27.09.2016 07:56 8,6 C 98 % 1023,2 hPa 0,0 l/m 0,0 km/h (0 Bft) S-SO 159 0 min 0,000 mm 0,0 UV-I 54 W/m 8,3 C 8,6 C 0,0 km/h (0 Bft) 100,00 %
27.09.2016 07:58 8,5 C 98 % 1023,2 hPa 0,0 l/m 0,0 km/h (0 Bft) S-SO 159 0 min 0,000 mm 0,0 UV-I 53 W/m 8,2 C 8,5 C 0,0 km/h (0 Bft) 100,00 %
27.09.2016 08:00 8,7 C 98 % 1023,3 hPa 0,0 l/m 0,0 km/h (0 Bft) S-SO 159 0 min 0,000 mm 0,0 UV-I 53 W/m 8,4 C 8,7 C 0,0 km/h (0 Bft) 100,00 %
27.09.2016 08:02 8,7 C 98 % 1023,3 hPa 0,0 l/m 0,9 km/h (0 Bft) S-SO 159 0 min 0,000 mm 0,0 UV-I 56 W/m 8,4 C 8,7 C 3,2 km/h (1 Bft) 97,87 %
27.09.2016 08:04 8,6 C 98 % 1023,3 hPa 0,0 l/m 0,1 km/h (0 Bft) S-SO 159 0 min 0,000 mm 0,0 UV-I 54 W/m 8,3 C 8,6 C 1,6 km/h (1 Bft) 100,00 %
27.09.2016 08:06 8,7 C 98 % 1023,3 hPa 0,0 l/m 0,6 km/h (0 Bft) S-SO 159 0 min 0,000 mm 0,0 UV-I 54 W/m 8,4 C 8,7 C 1,6 km/h (1 Bft) 100,00 %
27.09.2016 08:08 8,6 C 98 % 1023,3 hPa 0,0 l/m 0,6 km/h (0 Bft) S-SO 159 0 min 0,000 mm 0,0 UV-I 57 W/m 8,3 C 8,6 C 1,6 km/h (1 Bft) 100,00 %
27.09.2016 08:10 8,6 C 98 % 1023,3 hPa 0,0 l/m 0,0 km/h (0 Bft) S-SO 159 0 min 0,000 mm 0,0 UV-I 60 W/m 8,3 C 8,6 C 0,0 km/h (0 Bft) 100,00 %
27.09.2016 08:12 8,6 C 98 % 1023,3 hPa 0,0 l/m 0,0 km/h (0 Bft) S-SO 159 0 min 0,000 mm 0,0 UV-I 63 W/m 8,3 C 8,6 C 0,0 km/h (0 Bft) 100,00 %
27.09.2016 08:14 8,7 C 98 % 1023,3 hPa 0,0 l/m 0,0 km/h (0 Bft) S-SO 159 0 min 0,000 mm 0,0 UV-I 67 W/m 8,4 C 8,7 C 0,0 km/h (0 Bft) 100,00 %
27.09.2016 08:16 8,7 C 98 % 1023,3 hPa 0,0 l/m 0,0 km/h (0 Bft) S-SO 159 0 min 0,000 mm 0,0 UV-I 69 W/m 8,4 C 8,7 C 0,0 km/h (0 Bft) 98,00 %
27.09.2016 08:18 8,7 C 98 % 1023,3 hPa 0,0 l/m 0,0 km/h (0 Bft) S-SO 159 0 min 0,000 mm 0,0 UV-I 74 W/m 8,4 C 8,7 C 0,0 km/h (0 Bft) 97,37 %
27.09.2016 08:20 8,8 C 98 % 1023,4 hPa 0,0 l/m 0,0 km/h (0 Bft) S-SO 159 0 min 0,000 mm 0,0 UV-I 76 W/m 8,5 C 8,8 C 0,0 km/h (0 Bft) 100,00 %
27.09.2016 08:22 8,9 C 98 % 1023,4 hPa 0,0 l/m 0,0 km/h (0 Bft) S-SO 159 0 min 0,000 mm 0,0 UV-I 79 W/m 8,6 C 8,9 C 0,0 km/h (0 Bft) 100,00 %
27.09.2016 08:24 9,0 C 98 % 1023,4 hPa 0,0 l/m 0,0 km/h (0 Bft) S-SO 159 0 min 0,000 mm 0,0 UV-I 88 W/m 8,7 C 9,0 C 0,0 km/h (0 Bft) 100,00 %
27.09.2016 08:26 9,1 C 98 % 1023,4 hPa 0,0 l/m 0,1 km/h (0 Bft) S-SO 159 0 min 0,000 mm 0,0 UV-I 88 W/m 8,8 C 9,1 C 1,6 km/h (1 Bft) 100,00 %
27.09.2016 08:28 9,2 C 98 % 1023,4 hPa 0,0 l/m 0,0 km/h (0 Bft) S-SO 159 0 min 0,000 mm 0,0 UV-I 90 W/m 8,9 C 9,2 C 0,0 km/h (0 Bft) 100,00 %
27.09.2016 08:30 9,3 C 98 % 1023,4 hPa 0,0 l/m 0,0 km/h (0 Bft) S-SO 159 0 min 0,000 mm 0,0 UV-I 92 W/m 9,0 C 9,3 C 0,0 km/h (0 Bft) 100,00 %
27.09.2016 08:32 9,3 C 98 % 1023,5 hPa 0,0 l/m 0,0 km/h (0 Bft) S-SO 159 0 min 0,000 mm 0,0 UV-I 93 W/m 9,0 C 9,3 C 0,0 km/h (0 Bft) 100,00 %
27.09.2016 08:34 9,3 C 98 % 1023,5 hPa 0,0 l/m 0,0 km/h (0 Bft) S-SO 159 0 min 0,000 mm 0,0 UV-I 100 W/m 9,0 C 9,3 C 0,0 km/h (0 Bft) 100,00 %
27.09.2016 08:36 9,3 C 98 % 1023,5 hPa 0,0 l/m 0,0 km/h (0 Bft) S-SO 159 0 min 0,000 mm 0,0 UV-I 104 W/m 9,0 C 9,3 C 0,0 km/h (0 Bft) 100,00 %
27.09.2016 08:38 9,3 C 98 % 1023,5 hPa 0,0 l/m 0,0 km/h (0 Bft) S-SO 159 0 min 0,000 mm 0,0 UV-I 103 W/m 9,0 C 9,3 C 0,0 km/h (0 Bft) 98,00 %
27.09.2016 08:40 9,3 C 98 % 1023,5 hPa 0,0 l/m 0,0 km/h (0 Bft) S-SO 159 0 min 0,000 mm 0,0 UV-I 101 W/m 9,0 C 9,3 C 0,0 km/h (0 Bft) 97,87 %
27.09.2016 08:42 9,3 C 98 % 1023,5 hPa 0,0 l/m 0,0 km/h (0 Bft) S-SO 159 0 min 0,000 mm 0,0 UV-I 104 W/m 9,0 C 9,3 C 0,0 km/h (0 Bft) 100,00 %
27.09.2016 08:44 9,4 C 98 % 1023,5 hPa 0,0 l/m 0,0 km/h (0 Bft) S-SO 159 0 min 0,000 mm 0,0 UV-I 106 W/m 9,1 C 9,4 C 0,0 km/h (0 Bft) 100,00 %
27.09.2016 08:46 9,5 C 98 % 1023,5 hPa 0,0 l/m 0,0 km/h (0 Bft) S-SO 159 0 min 0,000 mm 0,0 UV-I 109 W/m 9,2 C 9,5 C 1,6 km/h (1 Bft) 97,87 %
27.09.2016 08:48 9,7 C 98 % 1023,5 hPa 0,0 l/m 1,8 km/h (1 Bft) S-SO 159 0 min 0,000 mm 0,0 UV-I 116 W/m 9,4 C 9,7 C 3,2 km/h (1 Bft) 97,73 %
27.09.2016 08:50 9,6 C 98 % 1023,5 hPa 0,0 l/m 1,4 km/h (1 Bft) S-SO 159 0 min 0,000 mm 0,0 UV-I 117 W/m 9,3 C 9,6 C 3,2 km/h (1 Bft) 96,43 %
27.09.2016 08:52 9,8 C 98 % 1023,6 hPa 0,0 l/m 1,1 km/h (1 Bft) S-SO 159 0 min 0,000 mm 0,0 UV-I 115 W/m 9,5 C 9,8 C 3,2 km/h (1 Bft) 94,74 %
27.09.2016 08:54 9,8 C 98 % 1023,6 hPa 0,0 l/m 1,0 km/h (0 Bft) S-SO 159 0 min 0,000 mm 0,0 UV-I 118 W/m 9,5 C 9,8 C 3,2 km/h (1 Bft) 97,87 %
27.09.2016 08:56 9,9 C 98 % 1023,7 hPa 0,0 l/m 1,2 km/h (1 Bft) S-SO 159 0 min 0,000 mm 0,0 UV-I 124 W/m 9,6 C 9,9 C 3,2 km/h (1 Bft) 95,74 %
27.09.2016 08:58 9,9 C 98 % 1023,7 hPa 0,0 l/m 0,1 km/h (0 Bft) S-SO 159 0 min 0,000 mm 0,0 UV-I 129 W/m 9,6 C 9,9 C 1,6 km/h (1 Bft) 95,74 %
27.09.2016 09:00 9,9 C 98 % 1023,7 hPa 0,0 l/m 0,1 km/h (0 Bft) S-SO 159 0 min 0,051 mm 0,0 UV-I 128 W/m 9,6 C 9,9 C 1,6 km/h (1 Bft) 96,00 %
27.09.2016 09:02 10,1 C 98 % 1023,7 hPa 0,0 l/m 0,2 km/h (0 Bft) S-SO 159 0 min 0,000 mm 0,0 UV-I 123 W/m 9,8 C 10,1 C 1,6 km/h (1 Bft) 96,00 %
27.09.2016 09:04 10,1 C 98 % 1023,7 hPa 0,0 l/m 0,7 km/h (0 Bft) S-SO 159 0 min 0,000 mm 0,0 UV-I 126 W/m 9,8 C 10,1 C 1,6 km/h (1 Bft) 97,87 %
27.09.2016 09:06 10,2 C 98 % 1023,7 hPa 0,0 l/m 1,6 km/h (1 Bft) S-SO 159 0 min 0,000 mm 0,0 UV-I 129 W/m 9,9 C 10,2 C 3,2 km/h (1 Bft) 98,00 %
27.09.2016 09:08 9,9 C 98 % 1023,7 hPa 0,0 l/m 0,3 km/h (0 Bft) S-SO 159 0 min 0,000 mm 0,0 UV-I 138 W/m 9,6 C 9,9 C 1,6 km/h (1 Bft) 97,87 %
27.09.2016 09:10 9,9 C 98 % 1023,7 hPa 0,0 l/m 0,0 km/h (0 Bft) S-SO 159 0 min 0,000 mm 0,2 UV-I 151 W/m 9,6 C 9,9 C 0,0 km/h (0 Bft) 94,44 %
27.09.2016 09:12 10,0 C 98 % 1023,8 hPa 0,0 l/m 0,2 km/h (0 Bft) S-SO 159 0 min 0,000 mm 0,5 UV-I 161 W/m 9,7 C 10,0 C 1,6 km/h (1 Bft) 96,00 %
27.09.2016 09:14 9,9 C 98 % 1023,8 hPa 0,0 l/m 0,2 km/h (0 Bft) S-SO 159 0 min 0,000 mm 0,5 UV-I 140 W/m 9,6 C 9,9 C 1,6 km/h (1 Bft) 98,00 %
27.09.2016 09:16 9,9 C 98 % 1023,9 hPa 0,0 l/m 0,0 km/h (0 Bft) S-SO 159 0 min 0,000 mm 0,5 UV-I 144 W/m 9,6 C 9,9 C 0,0 km/h (0 Bft) 97,87 %
27.09.2016 09:18 9,9 C 98 % 1023,9 hPa 0,0 l/m 0,0 km/h (0 Bft) S-SO 159 0 min 0,000 mm 0,5 UV-I 148 W/m 9,6 C 9,9 C 0,0 km/h (0 Bft) 94,00 %
27.09.2016 09:20 9,9 C 98 % 1023,9 hPa 0,0 l/m 0,2 km/h (0 Bft) S-SO 159 0 min 0,000 mm 0,5 UV-I 146 W/m 9,6 C 9,9 C 1,6 km/h (1 Bft) 100,00 %
27.09.2016 09:22 9,9 C 98 % 1024,0 hPa 0,0 l/m 0,4 km/h (0 Bft) S-SO 159 0 min 0,000 mm 0,5 UV-I 146 W/m 9,6 C 9,9 C 1,6 km/h (1 Bft) 100,00 %
27.09.2016 09:24 10,0 C 98 % 1024,0 hPa 0,0 l/m 0,6 km/h (0 Bft) S-SO 159 0 min 0,000 mm 0,5 UV-I 153 W/m 9,7 C 10,0 C 1,6 km/h (1 Bft) 95,74 %
27.09.2016 09:26 10,1 C 98 % 1024,0 hPa 0,0 l/m 0,3 km/h (0 Bft) S-SO 159 0 min 0,000 mm 0,5 UV-I 166 W/m 9,8 C 10,1 C 1,6 km/h (1 Bft) 100,00 %
27.09.2016 09:28 10,1 C 98 % 1024,0 hPa 0,0 l/m 0,0 km/h (0 Bft) S-SO 159 0 min 0,000 mm 0,5 UV-I 164 W/m 9,8 C 10,1 C 0,0 km/h (0 Bft) 100,00 %
27.09.2016 09:30 10,1 C 98 % 1024,0 hPa 0,0 l/m 0,0 km/h (0 Bft) S-SO 159 0 min 0,000 mm 0,6 UV-I 170 W/m 9,8 C 10,1 C 0,0 km/h (0 Bft) 100,00 %
27.09.2016 09:32 10,3 C 98 % 1024,1 hPa 0,0 l/m 0,0 km/h (0 Bft) S-SO 159 0 min 0,000 mm 0,6 UV-I 176 W/m 10,0 C 10,3 C 0,0 km/h (0 Bft) 100,00 %
27.09.2016 09:34 10,3 C 98 % 1024,1 hPa 0,0 l/m 0,3 km/h (0 Bft) S-SO 159 0 min 0,000 mm 0,6 UV-I 176 W/m 10,0 C 10,3 C 1,6 km/h (1 Bft) 100,00 %
27.09.2016 09:36 10,3 C 98 % 1024,1 hPa 0,0 l/m 0,0 km/h (0 Bft) S-SO 159 0 min 0,000 mm 0,6 UV-I 179 W/m 10,0 C 10,3 C 0,0 km/h (0 Bft) 100,00 %
27.09.2016 09:38 10,4 C 98 % 1024,1 hPa 0,0 l/m 0,8 km/h (0 Bft) S-SO 158 0 min 0,000 mm 0,6 UV-I 162 W/m 10,1 C 10,4 C 3,2 km/h (1 Bft) 97,87 %
27.09.2016 09:40 10,4 C 98 % 1024,1 hPa 0,0 l/m 1,4 km/h (1 Bft) S-SO 158 0 min 0,000 mm 0,6 UV-I 155 W/m 10,1 C 10,4 C 3,2 km/h (1 Bft) 97,87 %
27.09.2016 09:42 10,4 C 98 % 1024,2 hPa 0,0 l/m 1,8 km/h (1 Bft) S-SO 158 0 min 0,000 mm 0,7 UV-I 157 W/m 10,1 C 10,4 C 3,2 km/h (1 Bft) 100,00 %
27.09.2016 09:44 10,4 C 98 % 1024,2 hPa 0,0 l/m 0,2 km/h (0 Bft) S-SO 158 0 min 0,000 mm 0,7 UV-I 171 W/m 10,1 C 10,4 C 1,6 km/h (1 Bft) 100,00 %
27.09.2016 09:46 10,6 C 98 % 1024,2 hPa 0,0 l/m 0,0 km/h (0 Bft) S-SO 158 0 min 0,000 mm 0,7 UV-I 177 W/m 10,3 C 10,6 C 0,0 km/h (0 Bft) 98,00 %
27.09.2016 09:48 10,7 C 98 % 1024,2 hPa 0,0 l/m 0,0 km/h (0 Bft) S-SO 158 0 min 0,000 mm 0,7 UV-I 178 W/m 10,4 C 10,7 C 1,6 km/h (1 Bft) 100,00 %
27.09.2016 09:50 10,7 C 98 % 1024,2 hPa 0,0 l/m 0,0 km/h (0 Bft) S-SO 158 0 min 0,000 mm 0,7 UV-I 182 W/m 10,4 C 10,7 C 1,6 km/h (1 Bft) 100,00 %
27.09.2016 09:52 10,8 C 98 % 1024,2 hPa 0,0 l/m 0,5 km/h (0 Bft) S-SO 158 0 min 0,000 mm 0,7 UV-I 186 W/m 10,5 C 10,8 C 1,6 km/h (1 Bft) 97,87 %
27.09.2016 09:54 10,7 C 98 % 1024,2 hPa 0,0 l/m 0,3 km/h (0 Bft) S-SO 158 0 min 0,000 mm 0,7 UV-I 186 W/m 10,4 C 10,7 C 1,6 km/h (1 Bft) 95,74 %
27.09.2016 09:56 10,6 C 98 % 1024,2 hPa 0,0 l/m 1,8 km/h (1 Bft) S-SO 158 0 min 0,000 mm 0,8 UV-I 181 W/m 10,3 C 10,6 C 4,8 km/h (1 Bft) 100,00 %
27.09.2016 09:58 10,7 C 98 % 1024,3 hPa 0,0 l/m 2,2 km/h (1 Bft) SW 221 0 min 0,000 mm 0,8 UV-I 198 W/m 10,4 C 10,7 C 4,8 km/h (1 Bft) 96,15 %
27.09.2016 10:00 10,7 C 98 % 1024,3 hPa 0,0 l/m 1,8 km/h (1 Bft) SW 221 0 min 0,076 mm 0,9 UV-I 197 W/m 10,4 C 10,7 C 3,2 km/h (1 Bft) 100,00 %
27.09.2016 10:02 10,9 C 98 % 1024,4 hPa 0,0 l/m 0,1 km/h (0 Bft) SW 221 0 min 0,000 mm 0,9 UV-I 254 W/m 10,6 C 10,9 C 1,6 km/h (1 Bft) 100,00 %
27.09.2016 10:04 10,8 C 98 % 1024,5 hPa 0,0 l/m 0,0 km/h (0 Bft) SW 221 2 min 0,000 mm 1,0 UV-I 303 W/m 10,5 C 10,8 C 0,0 km/h (0 Bft) 97,37 %
27.09.2016 10:06 11,1 C 98 % 1024,4 hPa 0,0 l/m 0,1 km/h (0 Bft) SW 221 2 min 0,000 mm 1,0 UV-I 330 W/m 10,8 C 11,1 C 1,6 km/h (1 Bft) 97,87 %
27.09.2016 10:08 11,3 C 98 % 1024,5 hPa 0,0 l/m 1,2 km/h (1 Bft) SW 221 2 min 0,000 mm 1,0 UV-I 315 W/m 11,0 C 11,3 C 3,2 km/h (1 Bft) 100,00 %
27.09.2016 10:10 11,2 C 98 % 1024,5 hPa 0,0 l/m 0,4 km/h (0 Bft) SW 221 2 min 0,000 mm 0,9 UV-I 276 W/m 10,9 C 11,2 C 3,2 km/h (1 Bft) 100,00 %
27.09.2016 10:12 11,3 C 98 % 1024,5 hPa 0,0 l/m 1,0 km/h (0 Bft) SW 221 0 min 0,000 mm 0,9 UV-I 255 W/m 11,0 C 11,3 C 1,6 km/h (1 Bft) 100,00 %
27.09.2016 10:14 11,2 C 98 % 1024,5 hPa 0,0 l/m 1,8 km/h (1 Bft) SW 221 2 min 0,000 mm 1,0 UV-I 280 W/m 10,9 C 11,2 C 3,2 km/h (1 Bft) 100,00 %
27.09.2016 10:16 11,5 C 98 % 1024,5 hPa 0,0 l/m 1,8 km/h (1 Bft) SW 221 2 min 0,000 mm 1,0 UV-I 324 W/m 11,2 C 11,5 C 3,2 km/h (1 Bft) 100,00 %
27.09.2016 10:18 11,7 C 98 % 1024,5 hPa 0,0 l/m 1,5 km/h (1 Bft) SW 221 2 min 0,000 mm 1,0 UV-I 294 W/m 11,4 C 11,7 C 3,2 km/h (1 Bft) 100,00 %
27.09.2016 10:20 11,4 C 98 % 1024,6 hPa 0,0 l/m 1,0 km/h (0 Bft) SW 221 2 min 0,000 mm 1,0 UV-I 295 W/m 11,1 C 11,4 C 3,2 km/h (1 Bft) 100,00 %
27.09.2016 10:22 11,6 C 98 % 1024,6 hPa 0,0 l/m 0,5 km/h (0 Bft) SW 221 2 min 0,000 mm 1,1 UV-I 342 W/m 11,3 C 11,6 C 1,6 km/h (1 Bft) 100,00 %
27.09.2016 10:24 11,8 C 98 % 1024,6 hPa 0,0 l/m 2,3 km/h (1 Bft) W-NW 288 2 min 0,000 mm 1,0 UV-I 297 W/m 11,5 C 11,8 C 4,8 km/h (1 Bft) 98,00 %
27.09.2016 10:26 11,7 C 98 % 1024,6 hPa 0,0 l/m 1,3 km/h (1 Bft) W-NW 294 2 min 0,000 mm 1,0 UV-I 281 W/m 11,4 C 11,7 C 3,2 km/h (1 Bft) 100,00 %
27.09.2016 10:28 11,7 C 98 % 1024,6 hPa 0,0 l/m 2,1 km/h (1 Bft) W-NW 294 2 min 0,000 mm 1,2 UV-I 365 W/m 11,4 C 11,7 C 3,2 km/h (1 Bft) 100,00 %
27.09.2016 10:30 11,7 C 98 % 1024,6 hPa 0,0 l/m 1,3 km/h (1 Bft) W-NW 295 2 min 0,000 mm 1,3 UV-I 427 W/m 11,4 C 11,7 C 3,2 km/h (1 Bft) 100,00 %
27.09.2016 10:32 11,7 C 98 % 1024,6 hPa 0,0 l/m 2,4 km/h (1 Bft) W-NW 299 2 min 0,000 mm 1,4 UV-I 450 W/m 11,4 C 11,7 C 3,2 km/h (1 Bft) 98,28 %
27.09.2016 10:34 11,8 C 98 % 1024,6 hPa 0,0 l/m 1,3 km/h (1 Bft) W-NW 299 2 min 0,000 mm 1,4 UV-I 514 W/m 11,5 C 11,8 C 3,2 km/h (1 Bft) 100,00 %
27.09.2016 10:36 12,3 C 98 % 1024,7 hPa 0,0 l/m 2,5 km/h (1 Bft) N 11 2 min 0,000 mm 1,5 UV-I 472 W/m 12,0 C 12,3 C 4,8 km/h (1 Bft) 100,00 %
27.09.2016 10:38 12,4 C 98 % 1024,7 hPa 0,0 l/m 1,6 km/h (1 Bft) N 11 2 min 0,000 mm 1,6 UV-I 642 W/m 12,1 C 12,4 C 4,8 km/h (1 Bft) 100,00 %
27.09.2016 10:40 12,4 C 98 % 1024,7 hPa 0,0 l/m 0,3 km/h (0 Bft) N 11 2 min 0,000 mm 1,6 UV-I 672 W/m 12,1 C 12,4 C 1,6 km/h (1 Bft) 100,00 %
27.09.2016 10:42 12,5 C 98 % 1024,7 hPa 0,0 l/m 2,8 km/h (1 Bft) W-NW 298 2 min 0,000 mm 1,6 UV-I 642 W/m 12,2 C 12,5 C 4,8 km/h (1 Bft) 100,00 %
27.09.2016 10:44 12,4 C 98 % 1024,6 hPa 0,0 l/m 1,7 km/h (1 Bft) W-NW 298 2 min 0,000 mm 1,5 UV-I 502 W/m 12,1 C 12,4 C 3,2 km/h (1 Bft) 97,73 %
27.09.2016 10:46 12,5 C 98 % 1024,6 hPa 0,0 l/m 2,9 km/h (1 Bft) W-NW 290 2 min 0,000 mm 1,5 UV-I 407 W/m 12,2 C 12,5 C 4,8 km/h (1 Bft) 97,87 %
27.09.2016 10:48 12,5 C 98 % 1024,6 hPa 0,0 l/m 3,1 km/h (1 Bft) W 270 2 min 0,000 mm 1,4 UV-I 338 W/m 12,2 C 12,5 C 4,8 km/h (1 Bft) 98,00 %
27.09.2016 10:50 12,4 C 98 % 1024,6 hPa 0,0 l/m 2,3 km/h (1 Bft) W-NW 300 0 min 0,000 mm 1,4 UV-I 287 W/m 12,1 C 12,4 C 4,8 km/h (1 Bft) 97,37 %
27.09.2016 10:52 12,5 C 98 % 1024,6 hPa 0,0 l/m 0,9 km/h (0 Bft) W-NW 300 2 min 0,000 mm 1,5 UV-I 346 W/m 12,2 C 12,5 C 3,2 km/h (1 Bft) 97,87 %
27.09.2016 10:54 12,6 C 97 % 1024,6 hPa 0,0 l/m 1,4 km/h (1 Bft) W-NW 300 2 min 0,000 mm 1,7 UV-I 395 W/m 12,1 C 12,6 C 3,2 km/h (1 Bft) 97,87 %
27.09.2016 10:56 12,7 C 97 % 1024,6 hPa 0,0 l/m 0,8 km/h (0 Bft) W-NW 300 2 min 0,000 mm 1,8 UV-I 346 W/m 12,2 C 12,7 C 1,6 km/h (1 Bft) 97,87 %
27.09.2016 10:58 12,7 C 97 % 1024,6 hPa 0,0 l/m 1,5 km/h (1 Bft) W-NW 295 2 min 0,000 mm 2,0 UV-I 540 W/m 12,2 C 12,7 C 3,2 km/h (1 Bft) 96,00 %
27.09.2016 11:00 12,7 C 96 % 1024,6 hPa 0,0 l/m 2,6 km/h (1 Bft) W-NW 288 2 min 0,178 mm 2,0 UV-I 518 W/m 12,1 C 12,7 C 3,2 km/h (1 Bft) 96,00 %
27.09.2016 11:02 12,8 C 96 % 1024,6 hPa 0,0 l/m 0,6 km/h (0 Bft) W-NW 288 2 min 0,000 mm 2,0 UV-I 523 W/m 12,2 C 12,8 C 3,2 km/h (1 Bft) 97,37 %
27.09.2016 11:04 13,1 C 96 % 1024,5 hPa 0,0 l/m 0,0 km/h (0 Bft) W-NW 288 2 min 0,000 mm 2,1 UV-I 527 W/m 12,5 C 13,1 C 0,0 km/h (0 Bft) 95,74 %
27.09.2016 11:06 13,3 C 95 % 1024,6 hPa 0,0 l/m 1,3 km/h (1 Bft) W-NW 291 2 min 0,000 mm 2,1 UV-I 526 W/m 12,5 C 13,3 C 1,6 km/h (1 Bft) 97,87 %
27.09.2016 11:08 13,6 C 95 % 1024,6 hPa 0,0 l/m 0,8 km/h (0 Bft) W-NW 291 2 min 0,000 mm 2,1 UV-I 530 W/m 12,8 C 13,6 C 1,6 km/h (1 Bft) 98,00 %
27.09.2016 11:10 13,8 C 94 % 1024,6 hPa 0,0 l/m 0,3 km/h (0 Bft) W-NW 292 2 min 0,000 mm 2,2 UV-I 535 W/m 12,9 C 13,8 C 1,6 km/h (1 Bft) 95,83 %
27.09.2016 11:12 13,7 C 91 % 1024,6 hPa 0,0 l/m 1,8 km/h (1 Bft) W-NW 292 2 min 0,000 mm 2,2 UV-I 537 W/m 12,3 C 13,7 C 3,2 km/h (1 Bft) 96,00 %
27.09.2016 11:14 13,7 C 91 % 1024,5 hPa 0,0 l/m 2,1 km/h (1 Bft) W-NW 292 2 min 0,000 mm 2,2 UV-I 540 W/m 12,3 C 13,7 C 3,2 km/h (1 Bft) 97,87 %
27.09.2016 11:16 13,8 C 90 % 1024,6 hPa 0,0 l/m 1,9 km/h (1 Bft) W-NW 292 2 min 0,000 mm 2,2 UV-I 541 W/m 12,2 C 13,8 C 3,2 km/h (1 Bft) 100,00 %
27.09.2016 11:18 13,9 C 90 % 1024,5 hPa 0,0 l/m 1,9 km/h (1 Bft) N-NW 331 2 min 0,000 mm 2,3 UV-I 547 W/m 12,3 C 13,9 C 4,8 km/h (1 Bft) 98,00 %
27.09.2016 11:20 14,1 C 89 % 1024,6 hPa 0,0 l/m 2,7 km/h (1 Bft) N 350 2 min 0,000 mm 2,3 UV-I 548 W/m 12,3 C 14,1 C 4,8 km/h (1 Bft) 100,00 %
27.09.2016 11:22 14,2 C 87 % 1024,6 hPa 0,0 l/m 1,6 km/h (1 Bft) N-NW 339 2 min 0,000 mm 2,3 UV-I 548 W/m 12,1 C 14,2 C 3,2 km/h (1 Bft) 100,00 %
27.09.2016 11:24 14,3 C 88 % 1024,6 hPa 0,0 l/m 1,4 km/h (1 Bft) NW 319 2 min 0,000 mm 2,3 UV-I 552 W/m 12,3 C 14,3 C 4,8 km/h (1 Bft) 97,56 %
27.09.2016 11:26 14,4 C 86 % 1024,6 hPa 0,0 l/m 1,0 km/h (0 Bft) NW 319 2 min 0,000 mm 2,3 UV-I 557 W/m 12,1 C 14,4 C 3,2 km/h (1 Bft) 100,00 %
27.09.2016 11:28 14,4 C 86 % 1024,6 hPa 0,0 l/m 0,7 km/h (0 Bft) NW 319 2 min 0,000 mm 2,4 UV-I 559 W/m 12,1 C 14,4 C 1,6 km/h (1 Bft) 97,14 %
27.09.2016 11:30 14,4 C 85 % 1024,6 hPa 0,0 l/m 2,1 km/h (1 Bft) N-NW 334 2 min 0,000 mm 2,4 UV-I 563 W/m 11,9 C 14,4 C 3,2 km/h (1 Bft) 100,00 %
27.09.2016 11:32 14,7 C 87 % 1024,6 hPa 0,0 l/m 1,6 km/h (1 Bft) N-NW 333 2 min 0,000 mm 2,1 UV-I 563 W/m 12,6 C 14,7 C 4,8 km/h (1 Bft) 100,00 %
27.09.2016 11:34 14,9 C 87 % 1024,6 hPa 0,0 l/m 1,0 km/h (0 Bft) N-NW 333 2 min 0,000 mm 2,2 UV-I 567 W/m 12,8 C 14,9 C 3,2 km/h (1 Bft) 98,00 %
27.09.2016 11:36 15,1 C 87 % 1024,6 hPa 0,0 l/m 0,7 km/h (0 Bft) N-NW 329 2 min 0,000 mm 2,4 UV-I 568 W/m 13,0 C 15,1 C 3,2 km/h (1 Bft) 100,00 %
27.09.2016 11:38 15,2 C 86 % 1024,7 hPa 0,0 l/m 2,3 km/h (1 Bft) N-NW 327 2 min 0,000 mm 2,5 UV-I 568 W/m 12,9 C 15,2 C 4,8 km/h (1 Bft) 100,00 %
27.09.2016 11:40 15,2 C 85 % 1024,6 hPa 0,0 l/m 2,3 km/h (1 Bft) N-NW 327 2 min 0,000 mm 2,5 UV-I 570 W/m 12,7 C 15,2 C 3,2 km/h (1 Bft) 100,00 %
27.09.2016 11:42 15,2 C 85 % 1024,6 hPa 0,0 l/m 2,1 km/h (1 Bft) NW 317 2 min 0,000 mm 2,5 UV-I 572 W/m 12,7 C 15,2 C 4,8 km/h (1 Bft) 100,00 %
27.09.2016 11:44 15,2 C 85 % 1024,6 hPa 0,0 l/m 1,2 km/h (1 Bft) NW 317 2 min 0,000 mm 2,5 UV-I 576 W/m 12,7 C 15,2 C 3,2 km/h (1 Bft) 100,00 %
27.09.2016 11:46 15,3 C 86 % 1024,7 hPa 0,0 l/m 1,3 km/h (1 Bft) NW 317 2 min 0,000 mm 2,5 UV-I 576 W/m 13,0 C 15,3 C 4,8 km/h (1 Bft) 100,00 %
27.09.2016 11:48 15,5 C 85 % 1024,7 hPa 0,0 l/m 1,2 km/h (1 Bft) NW 317 2 min 0,000 mm 2,5 UV-I 574 W/m 13,0 C 15,5 C 3,2 km/h (1 Bft) 97,22 %
27.09.2016 11:50 15,5 C 83 % 1024,7 hPa 0,0 l/m 0,3 km/h (0 Bft) NW 317 2 min 0,000 mm 2,6 UV-I 578 W/m 12,6 C 15,5 C 1,6 km/h (1 Bft) 98,44 %
27.09.2016 11:52 15,6 C 82 % 1024,8 hPa 0,0 l/m 2,7 km/h (1 Bft) NW 314 2 min 0,000 mm 2,6 UV-I 577 W/m 12,5 C 15,6 C 4,8 km/h (1 Bft) 100,00 %
27.09.2016 11:54 15,6 C 82 % 1024,7 hPa 0,0 l/m 2,9 km/h (1 Bft) W-NW 299 2 min 0,000 mm 2,6 UV-I 580 W/m 12,5 C 15,6 C 4,8 km/h (1 Bft) 100,00 %
27.09.2016 11:56 15,9 C 83 % 1024,7 hPa 0,0 l/m 1,5 km/h (1 Bft) NW 309 2 min 0,000 mm 2,6 UV-I 584 W/m 13,0 C 15,9 C 3,2 km/h (1 Bft) 100,00 %
27.09.2016 11:58 15,8 C 80 % 1024,7 hPa 0,0 l/m 1,8 km/h (1 Bft) N-NW 338 2 min 0,000 mm 2,6 UV-I 585 W/m 12,4 C 15,8 C 4,8 km/h (1 Bft) 100,00 %
27.09.2016 12:00 15,8 C 82 % 1024,7 hPa 0,0 l/m 1,9 km/h (1 Bft) N 349 2 min 0,279 mm 2,7 UV-I 590 W/m 12,7 C 15,8 C 3,2 km/h (1 Bft) 100,00 %
27.09.2016 12:02 15,9 C 81 % 1024,7 hPa 0,0 l/m 1,8 km/h (1 Bft) N 350 2 min 0,000 mm 2,7 UV-I 589 W/m 12,6 C 15,9 C 3,2 km/h (1 Bft) 100,00 %
27.09.2016 12:04 16,2 C 84 % 1024,8 hPa 0,0 l/m 2,2 km/h (1 Bft) N 351 2 min 0,000 mm 2,7 UV-I 584 W/m 13,5 C 16,2 C 4,8 km/h (1 Bft) 100,00 %
27.09.2016 12:06 16,3 C 81 % 1024,8 hPa 0,0 l/m 3,9 km/h (1 Bft) N-NO 24 2 min 0,000 mm 2,7 UV-I 592 W/m 13,0 C 16,3 C 6,4 km/h (2 Bft) 100,00 %
27.09.2016 12:08 16,3 C 79 % 1024,8 hPa 0,0 l/m 1,3 km/h (1 Bft) N-NO 24 2 min 0,000 mm 2,7 UV-I 595 W/m 12,6 C 16,3 C 3,2 km/h (1 Bft) 100,00 %
27.09.2016 12:10 16,2 C 80 % 1024,8 hPa 0,0 l/m 1,1 km/h (1 Bft) N-NO 24 2 min 0,000 mm 2,7 UV-I 598 W/m 12,7 C 16,2 C 1,6 km/h (1 Bft) 100,00 %
27.09.2016 12:12 16,2 C 81 % 1024,7 hPa 0,0 l/m 1,8 km/h (1 Bft) N 11 2 min 0,000 mm 2,7 UV-I 599 W/m 12,9 C 16,2 C 4,8 km/h (1 Bft) 100,00 %
27.09.2016 12:14 16,6 C 80 % 1024,8 hPa 0,0 l/m 1,1 km/h (1 Bft) N-NO 17 2 min 0,000 mm 2,8 UV-I 600 W/m 13,1 C 16,6 C 4,8 km/h (1 Bft) 98,21 %
27.09.2016 12:16 16,8 C 78 % 1024,8 hPa 0,0 l/m 1,4 km/h (1 Bft) N-NO 17 2 min 0,000 mm 2,8 UV-I 600 W/m 12,9 C 16,8 C 3,2 km/h (1 Bft) 95,74 %
27.09.2016 12:18 17,1 C 80 % 1024,8 hPa 0,0 l/m 3,8 km/h (1 Bft) NO 44 2 min 0,000 mm 2,8 UV-I 598 W/m 13,6 C 17,1 C 6,4 km/h (2 Bft) 100,00 %
27.09.2016 12:20 16,9 C 76 % 1024,8 hPa 0,0 l/m 2,8 km/h (1 Bft) NO 44 2 min 0,000 mm 2,8 UV-I 602 W/m 12,6 C 16,9 C 4,8 km/h (1 Bft) 96,49 %
27.09.2016 12:22 16,8 C 77 % 1024,8 hPa 0,0 l/m 0,9 km/h (0 Bft) NO 44 2 min 0,000 mm 2,5 UV-I 603 W/m 12,7 C 16,8 C 1,6 km/h (1 Bft) 100,00 %
27.09.2016 12:24 17,1 C 80 % 1024,8 hPa 0,0 l/m 2,2 km/h (1 Bft) NO 45 2 min 0,000 mm 2,6 UV-I 606 W/m 13,6 C 17,1 C 6,4 km/h (2 Bft) 100,00 %
27.09.2016 12:26 17,2 C 76 % 1024,8 hPa 0,0 l/m 3,3 km/h (1 Bft) NO 45 2 min 0,000 mm 2,8 UV-I 606 W/m 12,9 C 17,2 C 4,8 km/h (1 Bft) 100,00 %
27.09.2016 12:28 17,2 C 76 % 1024,8 hPa 0,0 l/m 3,3 km/h (1 Bft) NO 53 2 min 0,000 mm 2,8 UV-I 608 W/m 12,9 C 17,2 C 6,4 km/h (2 Bft) 100,00 %
27.09.2016 12:30 17,1 C 75 % 1024,8 hPa 0,0 l/m 5,5 km/h (1 Bft) O-NO 58 2 min 0,000 mm 2,8 UV-I 489 W/m 12,6 C 17,1 C 8,0 km/h (2 Bft) 100,00 %
27.09.2016 12:32 17,2 C 76 % 1024,8 hPa 0,0 l/m 5,0 km/h (1 Bft) N-NO 27 2 min 0,000 mm 2,8 UV-I 422 W/m 12,9 C 17,2 C 8,0 km/h (2 Bft) 97,87 %
27.09.2016 12:34 17,3 C 77 % 1024,8 hPa 0,0 l/m 5,9 km/h (2 Bft) N-NO 28 2 min 0,000 mm 2,8 UV-I 441 W/m 13,2 C 17,3 C 8,0 km/h (2 Bft) 98,00 %
27.09.2016 12:36 17,5 C 78 % 1024,8 hPa 0,0 l/m 1,3 km/h (1 Bft) N-NO 24 2 min 0,000 mm 2,8 UV-I 608 W/m 13,6 C 17,5 C 3,2 km/h (1 Bft) 97,37 %
27.09.2016 12:38 17,3 C 75 % 1024,8 hPa 0,0 l/m 2,1 km/h (1 Bft) N-NO 24 2 min 0,000 mm 2,8 UV-I 613 W/m 12,8 C 17,3 C 6,4 km/h (2 Bft) 98,11 %
27.09.2016 12:40 17,3 C 75 % 1024,8 hPa 0,0 l/m 3,1 km/h (1 Bft) N-NO 25 2 min 0,000 mm 2,8 UV-I 614 W/m 12,8 C 17,3 C 6,4 km/h (2 Bft) 98,00 %
27.09.2016 12:42 17,3 C 75 % 1024,8 hPa 0,0 l/m 0,8 km/h (0 Bft) N-NO 24 2 min 0,000 mm 2,9 UV-I 616 W/m 12,8 C 17,3 C 3,2 km/h (1 Bft) 98,00 %
27.09.2016 12:44 17,4 C 75 % 1024,8 hPa 0,0 l/m 1,3 km/h (1 Bft) N-NW 345 2 min 0,000 mm 2,9 UV-I 617 W/m 12,9 C 17,4 C 3,2 km/h (1 Bft) 97,56 %
27.09.2016 12:46 17,6 C 74 % 1024,8 hPa 0,0 l/m 4,0 km/h (1 Bft) NO 43 2 min 0,000 mm 2,9 UV-I 612 W/m 12,9 C 17,6 C 8,0 km/h (2 Bft) 96,00 %
27.09.2016 12:48 17,6 C 74 % 1024,8 hPa 0,0 l/m 1,6 km/h (1 Bft) NO 43 2 min 0,000 mm 2,9 UV-I 614 W/m 12,9 C 17,6 C 3,2 km/h (1 Bft) 97,87 %
27.09.2016 12:50 17,7 C 75 % 1024,8 hPa 0,0 l/m 1,0 km/h (0 Bft) NO 40 2 min 0,000 mm 2,9 UV-I 613 W/m 13,2 C 17,7 C 3,2 km/h (1 Bft) 98,00 %
27.09.2016 12:52 17,7 C 74 % 1024,8 hPa 0,0 l/m 0,8 km/h (0 Bft) NO 40 2 min 0,000 mm 2,9 UV-I 612 W/m 13,0 C 17,7 C 1,6 km/h (1 Bft) 97,87 %
27.09.2016 12:54 17,7 C 74 % 1024,8 hPa 0,0 l/m 2,2 km/h (1 Bft) O-SO 105 2 min 0,000 mm 2,9 UV-I 613 W/m 13,0 C 17,7 C 4,8 km/h (1 Bft) 97,37 %
27.09.2016 12:56 17,7 C 75 % 1024,8 hPa 0,0 l/m 0,6 km/h (0 Bft) O-SO 106 2 min 0,000 mm 2,9 UV-I 615 W/m 13,2 C 17,7 C 4,8 km/h (1 Bft) 98,00 %
27.09.2016 12:58 17,8 C 74 % 1024,8 hPa 0,0 l/m 1,9 km/h (1 Bft) O-NO 57 2 min 0,000 mm 2,9 UV-I 618 W/m 13,1 C 17,8 C 4,8 km/h (1 Bft) 98,00 %
27.09.2016 13:00 18,0 C 75 % 1024,8 hPa 0,0 l/m 2,2 km/h (1 Bft) NO 41 2 min 0,330 mm 2,9 UV-I 620 W/m 13,5 C 18,0 C 6,4 km/h (2 Bft) 95,74 %
27.09.2016 13:02 18,1 C 72 % 1024,8 hPa 0,0 l/m 2,4 km/h (1 Bft) O-SO 111 2 min 0,000 mm 2,9 UV-I 620 W/m 13,0 C 18,1 C 4,8 km/h (1 Bft) 97,87 %
27.09.2016 13:04 18,0 C 72 % 1024,8 hPa 0,0 l/m 2,2 km/h (1 Bft) SO 132 2 min 0,000 mm 2,9 UV-I 619 W/m 12,9 C 18,0 C 4,8 km/h (1 Bft) 97,87 %
27.09.2016 13:06 18,1 C 73 % 1024,8 hPa 0,0 l/m 2,9 km/h (1 Bft) S-SW 192 2 min 0,000 mm 2,9 UV-I 608 W/m 13,2 C 18,1 C 4,8 km/h (1 Bft) 100,00 %
27.09.2016 13:08 18,1 C 72 % 1024,8 hPa 0,0 l/m 1,0 km/h (0 Bft) S-SW 192 2 min 0,000 mm 2,9 UV-I 618 W/m 13,0 C 18,1 C 3,2 km/h (1 Bft) 97,87 %
27.09.2016 13:10 18,2 C 77 % 1024,8 hPa 0,0 l/m 1,0 km/h (0 Bft) S-SW 192 2 min 0,000 mm 2,9 UV-I 619 W/m 14,1 C 18,2 C 3,2 km/h (1 Bft) 100,00 %
27.09.2016 13:12 18,3 C 74 % 1024,7 hPa 0,0 l/m 0,7 km/h (0 Bft) S-SW 192 2 min 0,000 mm 2,9 UV-I 622 W/m 13,6 C 18,3 C 1,6 km/h (1 Bft) 100,00 %
27.09.2016 13:14 18,5 C 74 % 1024,8 hPa 0,0 l/m 0,5 km/h (0 Bft) S-SW 192 2 min 0,000 mm 2,9 UV-I 617 W/m 13,8 C 18,5 C 3,2 km/h (1 Bft) 100,00 %
27.09.2016 13:16 18,5 C 72 % 1024,8 hPa 0,0 l/m 2,0 km/h (1 Bft) N-NW 331 2 min 0,000 mm 2,9 UV-I 615 W/m 13,4 C 18,5 C 3,2 km/h (1 Bft) 100,00 %
27.09.2016 13:18 18,4 C 72 % 1024,8 hPa 0,0 l/m 2,1 km/h (1 Bft) O-NO 57 2 min 0,000 mm 2,9 UV-I 615 W/m 13,3 C 18,4 C 4,8 km/h (1 Bft) 100,00 %
27.09.2016 13:20 18,4 C 71 % 1024,7 hPa 0,0 l/m 3,9 km/h (1 Bft) NO 44 2 min 0,000 mm 2,8 UV-I 612 W/m 13,0 C 18,4 C 6,4 km/h (2 Bft) 98,00 %
27.09.2016 13:22 18,6 C 71 % 1024,7 hPa 0,0 l/m 4,1 km/h (1 Bft) NO 51 2 min 0,000 mm 2,8 UV-I 612 W/m 13,2 C 18,6 C 6,4 km/h (2 Bft) 100,00 %
27.09.2016 13:24 18,6 C 73 % 1024,7 hPa 0,0 l/m 2,9 km/h (1 Bft) N-NO 14 2 min 0,000 mm 2,8 UV-I 607 W/m 13,7 C 18,6 C 4,8 km/h (1 Bft) 100,00 %
27.09.2016 13:26 18,7 C 73 % 1024,7 hPa 0,0 l/m 2,9 km/h (1 Bft) NO 54 2 min 0,000 mm 2,8 UV-I 598 W/m 13,8 C 18,7 C 4,8 km/h (1 Bft) 100,00 %
27.09.2016 13:28 18,8 C 70 % 1024,7 hPa 0,0 l/m 4,3 km/h (1 Bft) NO 54 2 min 0,000 mm 2,7 UV-I 592 W/m 13,2 C 18,8 C 6,4 km/h (2 Bft) 100,00 %
27.09.2016 13:30 18,9 C 69 % 1024,7 hPa 0,0 l/m 5,1 km/h (1 Bft) NO 51 2 min 0,000 mm 2,7 UV-I 575 W/m 13,1 C 18,9 C 6,4 km/h (2 Bft) 97,87 %
27.09.2016 13:32 19,0 C 68 % 1024,7 hPa 0,0 l/m 2,5 km/h (1 Bft) O-SO 118 2 min 0,000 mm 2,8 UV-I 602 W/m 13,0 C 19,0 C 4,8 km/h (1 Bft) 100,00 %
27.09.2016 13:34 19,0 C 69 % 1024,7 hPa 0,0 l/m 0,9 km/h (0 Bft) O-SO 117 2 min 0,000 mm 2,8 UV-I 604 W/m 13,2 C 19,0 C 3,2 km/h (1 Bft) 100,00 %
27.09.2016 13:36 18,9 C 67 % 1024,7 hPa 0,0 l/m 2,5 km/h (1 Bft) O 89 2 min 0,000 mm 2,7 UV-I 603 W/m 12,6 C 18,9 C 4,8 km/h (1 Bft) 100,00 %
27.09.2016 13:38 18,7 C 67 % 1024,7 hPa 0,0 l/m 0,9 km/h (0 Bft) O 89 2 min 0,000 mm 2,7 UV-I 597 W/m 12,4 C 18,7 C 3,2 km/h (1 Bft) 100,00 %
27.09.2016 13:40 18,8 C 69 % 1024,8 hPa 0,0 l/m 1,7 km/h (1 Bft) O 88 2 min 0,000 mm 2,7 UV-I 591 W/m 13,0 C 18,8 C 3,2 km/h (1 Bft) 100,00 %
27.09.2016 13:42 18,9 C 69 % 1024,7 hPa 0,0 l/m 2,3 km/h (1 Bft) W-NW 301 2 min 0,000 mm 2,7 UV-I 592 W/m 13,1 C 18,9 C 4,8 km/h (1 Bft) 100,00 %
27.09.2016 13:44 18,9 C 68 % 1024,8 hPa 0,0 l/m 3,7 km/h (1 Bft) N-NO 24 2 min 0,000 mm 2,6 UV-I 581 W/m 12,9 C 18,9 C 6,4 km/h (2 Bft) 98,00 %
27.09.2016 13:46 18,9 C 67 % 1024,8 hPa 0,0 l/m 2,5 km/h (1 Bft) N-NO 24 2 min 0,000 mm 2,6 UV-I 575 W/m 12,6 C 18,9 C 4,8 km/h (1 Bft) 100,00 %
27.09.2016 13:48 19,0 C 68 % 1024,8 hPa 0,0 l/m 1,0 km/h (0 Bft) N-NW 327 2 min 0,000 mm 2,6 UV-I 568 W/m 13,0 C 19,0 C 3,2 km/h (1 Bft) 98,00 %
27.09.2016 13:50 19,1 C 67 % 1024,8 hPa 0,0 l/m 2,5 km/h (1 Bft) W-NW 302 2 min 0,000 mm 2,6 UV-I 593 W/m 12,8 C 19,1 C 4,8 km/h (1 Bft) 100,00 %
27.09.2016 13:52 19,2 C 62 % 1024,8 hPa 0,0 l/m 4,0 km/h (1 Bft) W 271 2 min 0,000 mm 2,6 UV-I 595 W/m 11,7 C 19,2 C 6,4 km/h (2 Bft) 100,00 %
27.09.2016 13:54 19,1 C 63 % 1024,8 hPa 0,0 l/m 3,2 km/h (1 Bft) W 271 2 min 0,000 mm 2,6 UV-I 596 W/m 11,9 C 19,1 C 6,4 km/h (2 Bft) 100,00 %
27.09.2016 13:56 18,9 C 65 % 1024,8 hPa 0,0 l/m 4,0 km/h (1 Bft) SW 235 2 min 0,000 mm 2,6 UV-I 598 W/m 12,2 C 18,9 C 6,4 km/h (2 Bft) 100,00 %
27.09.2016 13:58 19,0 C 65 % 1024,8 hPa 0,0 l/m 4,9 km/h (1 Bft) W-SW 244 2 min 0,000 mm 2,6 UV-I 596 W/m 12,3 C 19,0 C 6,4 km/h (2 Bft) 100,00 %
27.09.2016 14:00 19,0 C 62 % 1024,8 hPa 0,0 l/m 2,7 km/h (1 Bft) W-SW 242 2 min 0,331 mm 2,6 UV-I 593 W/m 11,6 C 19,0 C 4,8 km/h (1 Bft) 100,00 %
27.09.2016 14:02 19,1 C 61 % 1024,8 hPa 0,0 l/m 3,3 km/h (1 Bft) S-SW 206 2 min 0,000 mm 2,6 UV-I 593 W/m 11,4 C 19,1 C 6,4 km/h (2 Bft) 97,87 %
27.09.2016 14:04 19,2 C 61 % 1024,8 hPa 0,0 l/m 5,3 km/h (1 Bft) S 173 2 min 0,000 mm 2,6 UV-I 596 W/m 11,5 C 19,2 C 8,0 km/h (2 Bft) 97,14 %
27.09.2016 14:06 19,3 C 60 % 1024,8 hPa 0,0 l/m 2,9 km/h (1 Bft) S 179 2 min 0,000 mm 2,6 UV-I 594 W/m 11,3 C 19,3 C 4,8 km/h (1 Bft) 100,00 %
27.09.2016 14:08 19,3 C 59 % 1024,8 hPa 0,0 l/m 0,7 km/h (0 Bft) S 179 2 min 0,000 mm 2,5 UV-I 590 W/m 11,1 C 19,3 C 3,2 km/h (1 Bft) 100,00 %
27.09.2016 14:10 19,3 C 59 % 1024,8 hPa 0,0 l/m 2,3 km/h (1 Bft) N-NW 335 2 min 0,000 mm 2,5 UV-I 589 W/m 11,1 C 19,3 C 6,4 km/h (2 Bft) 97,14 %
27.09.2016 14:12 19,3 C 67 % 1024,8 hPa 0,0 l/m 2,2 km/h (1 Bft) NW 315 2 min 0,000 mm 2,5 UV-I 586 W/m 13,0 C 19,3 C 4,8 km/h (1 Bft) 98,21 %
27.09.2016 14:14 19,4 C 62 % 1024,8 hPa 0,0 l/m 1,2 km/h (1 Bft) NW 324 2 min 0,000 mm 2,5 UV-I 582 W/m 11,9 C 19,4 C 3,2 km/h (1 Bft) 100,00 %
27.09.2016 14:16 19,4 C 63 % 1024,8 hPa 0,0 l/m 1,6 km/h (1 Bft) N 5 2 min 0,000 mm 2,5 UV-I 580 W/m 12,2 C 19,4 C 3,2 km/h (1 Bft) 97,87 %
27.09.2016 14:18 19,7 C 61 % 1024,8 hPa 0,0 l/m 1,2 km/h (1 Bft) N-NW 331 2 min 0,000 mm 2,4 UV-I 577 W/m 12,0 C 19,7 C 3,2 km/h (1 Bft) 100,00 %
27.09.2016 14:20 19,8 C 61 % 1024,8 hPa 0,0 l/m 2,8 km/h (1 Bft) W 265 2 min 0,000 mm 2,4 UV-I 575 W/m 12,1 C 19,8 C 4,8 km/h (1 Bft) 100,00 %
27.09.2016 14:22 19,8 C 60 % 1024,8 hPa 0,0 l/m 1,9 km/h (1 Bft) W 266 2 min 0,000 mm 2,4 UV-I 577 W/m 11,8 C 19,8 C 3,2 km/h (1 Bft) 100,00 %
27.09.2016 14:24 19,8 C 61 % 1024,7 hPa 0,0 l/m 1,6 km/h (1 Bft) W-NW 282 2 min 0,000 mm 2,4 UV-I 577 W/m 12,1 C 19,8 C 3,2 km/h (1 Bft) 97,87 %
27.09.2016 14:26 19,9 C 61 % 1024,7 hPa 0,0 l/m 3,1 km/h (1 Bft) W-NW 286 2 min 0,000 mm 2,3 UV-I 576 W/m 12,2 C 19,9 C 4,8 km/h (1 Bft) 97,62 %
27.09.2016 14:28 19,7 C 61 % 1024,7 hPa 0,0 l/m 2,4 km/h (1 Bft) NW 304 2 min 0,000 mm 2,3 UV-I 574 W/m 12,0 C 19,7 C 4,8 km/h (1 Bft) 96,15 %
27.09.2016 14:30 19,6 C 62 % 1024,7 hPa 0,0 l/m 2,3 km/h (1 Bft) W-NW 289 2 min 0,000 mm 2,3 UV-I 571 W/m 12,1 C 19,6 C 4,8 km/h (1 Bft) 100,00 %
27.09.2016 14:32 19,7 C 61 % 1024,7 hPa 0,0 l/m 3,1 km/h (1 Bft) W-NW 294 2 min 0,000 mm 2,3 UV-I 568 W/m 12,0 C 19,7 C 4,8 km/h (1 Bft) 96,23 %
27.09.2016 14:34 19,7 C 60 % 1024,7 hPa 0,0 l/m 3,2 km/h (1 Bft) W-NW 286 2 min 0,000 mm 2,3 UV-I 565 W/m 11,7 C 19,7 C 4,8 km/h (1 Bft) 97,87 %
27.09.2016 14:36 19,7 C 61 % 1024,7 hPa 0,0 l/m 1,8 km/h (1 Bft) W-NW 296 2 min 0,000 mm 2,2 UV-I 563 W/m 12,0 C 19,7 C 3,2 km/h (1 Bft) 97,87 %
27.09.2016 14:38 19,7 C 61 % 1024,7 hPa 0,0 l/m 2,5 km/h (1 Bft) W-NW 296 2 min 0,000 mm 2,2 UV-I 560 W/m 12,0 C 19,7 C 4,8 km/h (1 Bft) 97,37 %
27.09.2016 14:40 19,7 C 59 % 1024,7 hPa 0,0 l/m 3,9 km/h (1 Bft) SW 234 2 min 0,000 mm 2,2 UV-I 556 W/m 11,5 C 19,7 C 6,4 km/h (2 Bft) 96,23 %
27.09.2016 14:42 19,6 C 61 % 1024,7 hPa 0,0 l/m 5,6 km/h (1 Bft) W-NW 285 2 min 0,000 mm 2,2 UV-I 552 W/m 11,9 C 19,6 C 8,0 km/h (2 Bft) 96,23 %
27.09.2016 14:44 19,8 C 60 % 1024,7 hPa 0,0 l/m 2,1 km/h (1 Bft) W-NW 285 2 min 0,000 mm 2,2 UV-I 554 W/m 11,8 C 19,8 C 3,2 km/h (1 Bft) 92,11 %
27.09.2016 14:46 19,8 C 58 % 1024,7 hPa 0,0 l/m 3,7 km/h (1 Bft) O-SO 123 2 min 0,000 mm 2,1 UV-I 551 W/m 11,3 C 19,8 C 6,4 km/h (2 Bft) 98,00 %
27.09.2016 14:48 20,1 C 62 % 1024,7 hPa 0,0 l/m 5,6 km/h (1 Bft) NO 36 2 min 0,000 mm 2,1 UV-I 548 W/m 12,6 C 20,1 C 9,7 km/h (2 Bft) 95,74 %
27.09.2016 14:50 20,1 C 60 % 1024,7 hPa 0,0 l/m 2,9 km/h (1 Bft) NO 34 2 min 0,000 mm 2,1 UV-I 547 W/m 12,1 C 20,1 C 4,8 km/h (1 Bft) 100,00 %
27.09.2016 14:52 20,2 C 60 % 1024,7 hPa 0,0 l/m 4,3 km/h (1 Bft) N-NO 29 2 min 0,000 mm 2,1 UV-I 544 W/m 12,2 C 20,2 C 6,4 km/h (2 Bft) 97,56 %
27.09.2016 14:54 20,1 C 59 % 1024,8 hPa 0,0 l/m 2,6 km/h (1 Bft) N-NO 25 2 min 0,000 mm 2,0 UV-I 538 W/m 11,8 C 20,1 C 4,8 km/h (1 Bft) 98,00 %
27.09.2016 14:56 20,1 C 62 % 1024,7 hPa 0,0 l/m 3,7 km/h (1 Bft) NO 49 2 min 0,000 mm 2,0 UV-I 534 W/m 12,6 C 20,1 C 4,8 km/h (1 Bft) 95,74 %
27.09.2016 14:58 20,1 C 59 % 1024,7 hPa 0,0 l/m 3,8 km/h (1 Bft) NO 51 2 min 0,000 mm 2,0 UV-I 534 W/m 11,8 C 20,1 C 4,8 km/h (1 Bft) 100,00 %
27.09.2016 15:00 20,1 C 60 % 1024,7 hPa 0,0 l/m 4,4 km/h (1 Bft) NO 40 2 min 0,330 mm 2,0 UV-I 535 W/m 12,1 C 20,1 C 6,4 km/h (2 Bft) 100,00 %
27.09.2016 15:02 20,1 C 57 % 1024,7 hPa 0,0 l/m 4,2 km/h (1 Bft) O-NO 57 2 min 0,000 mm 1,9 UV-I 532 W/m 11,3 C 20,1 C 6,4 km/h (2 Bft) 100,00 %
27.09.2016 15:04 19,9 C 57 % 1024,7 hPa 0,0 l/m 1,2 km/h (1 Bft) O-SO 105 2 min 0,000 mm 1,9 UV-I 517 W/m 11,1 C 19,9 C 3,2 km/h (1 Bft) 96,00 %
27.09.2016 15:06 19,9 C 58 % 1024,7 hPa 0,0 l/m 3,7 km/h (1 Bft) NO 53 2 min 0,000 mm 1,9 UV-I 477 W/m 11,4 C 19,9 C 6,4 km/h (2 Bft) 100,00 %
27.09.2016 15:08 19,9 C 58 % 1024,7 hPa 0,0 l/m 0,7 km/h (0 Bft) N-NO 28 2 min 0,000 mm 1,8 UV-I 496 W/m 11,4 C 19,9 C 1,6 km/h (1 Bft) 100,00 %
27.09.2016 15:10 20,1 C 58 % 1024,7 hPa 0,0 l/m 0,9 km/h (0 Bft) N-NO 28 2 min 0,000 mm 1,8 UV-I 511 W/m 11,6 C 20,1 C 3,2 km/h (1 Bft) 100,00 %
27.09.2016 15:12 20,2 C 56 % 1024,6 hPa 0,0 l/m 0,7 km/h (0 Bft) N-NO 24 2 min 0,000 mm 1,8 UV-I 512 W/m 11,1 C 20,2 C 3,2 km/h (1 Bft) 98,00 %
27.09.2016 15:14 20,2 C 57 % 1024,6 hPa 0,0 l/m 1,6 km/h (1 Bft) NO 44 2 min 0,000 mm 1,8 UV-I 512 W/m 11,4 C 20,2 C 3,2 km/h (1 Bft) 100,00 %
27.09.2016 15:16 20,5 C 55 % 1024,7 hPa 0,0 l/m 1,0 km/h (0 Bft) NO 44 2 min 0,000 mm 1,7 UV-I 506 W/m 11,1 C 20,5 C 3,2 km/h (1 Bft) 100,00 %
27.09.2016 15:18 20,4 C 54 % 1024,7 hPa 0,0 l/m 1,6 km/h (1 Bft) NO 49 2 min 0,000 mm 1,7 UV-I 500 W/m 10,8 C 20,4 C 3,2 km/h (1 Bft) 97,87 %
27.09.2016 15:20 20,4 C 55 % 1024,7 hPa 0,0 l/m 1,8 km/h (1 Bft) O 94 2 min 0,000 mm 1,7 UV-I 491 W/m 11,1 C 20,4 C 4,8 km/h (1 Bft) 98,00 %
27.09.2016 15:22 20,4 C 55 % 1024,7 hPa 0,0 l/m 1,7 km/h (1 Bft) O 94 2 min 0,000 mm 1,6 UV-I 486 W/m 11,1 C 20,4 C 3,2 km/h (1 Bft) 100,00 %
27.09.2016 15:24 20,3 C 56 % 1024,7 hPa 0,0 l/m 2,1 km/h (1 Bft) NO 46 2 min 0,000 mm 1,6 UV-I 481 W/m 11,2 C 20,3 C 3,2 km/h (1 Bft) 98,00 %
27.09.2016 15:26 20,2 C 56 % 1024,6 hPa 0,0 l/m 2,4 km/h (1 Bft) O-NO 70 2 min 0,000 mm 1,6 UV-I 474 W/m 11,1 C 20,2 C 6,4 km/h (2 Bft) 95,74 %
27.09.2016 15:28 20,3 C 56 % 1024,6 hPa 0,0 l/m 7,1 km/h (2 Bft) O-NO 59 2 min 0,000 mm 1,5 UV-I 466 W/m 11,2 C 20,0 C 9,7 km/h (2 Bft) 100,00 %
27.09.2016 15:30 20,3 C 54 % 1024,6 hPa 0,0 l/m 5,8 km/h (2 Bft) NO 49 2 min 0,000 mm 1,5 UV-I 461 W/m 10,7 C 20,3 C 8,0 km/h (2 Bft) 98,00 %
27.09.2016 15:32 20,3 C 57 % 1024,6 hPa 0,0 l/m 4,8 km/h (1 Bft) NO 49 2 min 0,000 mm 1,5 UV-I 461 W/m 11,5 C 20,3 C 6,4 km/h (2 Bft) 100,00 %
27.09.2016 15:34 20,3 C 55 % 1024,6 hPa 0,0 l/m 2,4 km/h (1 Bft) NO 49 2 min 0,000 mm 1,4 UV-I 449 W/m 11,0 C 20,3 C 4,8 km/h (1 Bft) 100,00 %
27.09.2016 15:36 20,2 C 56 % 1024,6 hPa 0,0 l/m 0,5 km/h (0 Bft) NO 49 2 min 0,000 mm 1,4 UV-I 448 W/m 11,1 C 20,2 C 1,6 km/h (1 Bft) 100,00 %
27.09.2016 15:38 20,2 C 56 % 1024,6 hPa 0,0 l/m 1,0 km/h (0 Bft) NO 49 2 min 0,000 mm 1,4 UV-I 432 W/m 11,1 C 20,2 C 4,8 km/h (1 Bft) 100,00 %
27.09.2016 15:40 20,4 C 57 % 1024,6 hPa 0,0 l/m 3,2 km/h (1 Bft) NO 50 2 min 0,000 mm 1,4 UV-I 440 W/m 11,6 C 20,4 C 4,8 km/h (1 Bft) 100,00 %
27.09.2016 15:42 20,4 C 54 % 1024,6 hPa 0,0 l/m 0,9 km/h (0 Bft) NO 50 2 min 0,000 mm 1,4 UV-I 443 W/m 10,8 C 20,4 C 3,2 km/h (1 Bft) 97,92 %
27.09.2016 15:44 20,4 C 54 % 1024,6 hPa 0,0 l/m 0,5 km/h (0 Bft) NO 50 2 min 0,000 mm 1,3 UV-I 442 W/m 10,8 C 20,4 C 1,6 km/h (1 Bft) 100,00 %
27.09.2016 15:46 20,4 C 54 % 1024,6 hPa 0,0 l/m 2,2 km/h (1 Bft) O 100 2 min 0,000 mm 1,3 UV-I 435 W/m 10,8 C 20,4 C 6,4 km/h (2 Bft) 100,00 %
27.09.2016 15:48 20,4 C 54 % 1024,6 hPa 0,0 l/m 4,1 km/h (1 Bft) S-SO 155 2 min 0,000 mm 1,3 UV-I 431 W/m 10,8 C 20,4 C 6,4 km/h (2 Bft) 100,00 %
27.09.2016 15:50 20,6 C 56 % 1024,7 hPa 0,0 l/m 3,0 km/h (1 Bft) S-SO 160 2 min 0,000 mm 1,3 UV-I 429 W/m 11,5 C 20,6 C 8,0 km/h (2 Bft) 97,56 %
27.09.2016 15:52 20,6 C 54 % 1024,7 hPa 0,0 l/m 1,5 km/h (1 Bft) S-SO 155 2 min 0,000 mm 1,3 UV-I 424 W/m 11,0 C 20,6 C 3,2 km/h (1 Bft) 100,00 %
27.09.2016 15:54 20,6 C 54 % 1024,7 hPa 0,0 l/m 3,9 km/h (1 Bft) SW 232 2 min 0,000 mm 1,2 UV-I 420 W/m 11,0 C 20,6 C 8,0 km/h (2 Bft) 100,00 %
27.09.2016 15:56 20,6 C 53 % 1024,7 hPa 0,0 l/m 4,7 km/h (1 Bft) W-SW 254 2 min 0,000 mm 1,2 UV-I 416 W/m 10,7 C 20,6 C 6,4 km/h (2 Bft) 100,00 %
27.09.2016 15:58 20,4 C 53 % 1024,6 hPa 0,0 l/m 2,9 km/h (1 Bft) W 264 2 min 0,000 mm 1,2 UV-I 413 W/m 10,5 C 20,4 C 4,8 km/h (1 Bft) 98,00 %
27.09.2016 16:00 20,4 C 54 % 1024,6 hPa 0,0 l/m 4,0 km/h (1 Bft) W-NW 284 2 min 0,279 mm 1,0 UV-I 411 W/m 10,8 C 20,4 C 6,4 km/h (2 Bft) 97,37 %
27.09.2016 16:02 20,4 C 52 % 1024,7 hPa 0,0 l/m 1,9 km/h (1 Bft) W-NW 283 2 min 0,000 mm 1,1 UV-I 406 W/m 10,2 C 20,4 C 4,8 km/h (1 Bft) 97,87 %
27.09.2016 16:04 20,4 C 50 % 1024,7 hPa 0,0 l/m 3,7 km/h (1 Bft) SW 235 2 min 0,000 mm 1,1 UV-I 403 W/m 9,6 C 20,4 C 6,4 km/h (2 Bft) 100,00 %
27.09.2016 16:06 20,3 C 51 % 1024,6 hPa 0,0 l/m 2,5 km/h (1 Bft) SW 235 2 min 0,000 mm 1,1 UV-I 394 W/m 9,8 C 20,3 C 3,2 km/h (1 Bft) 100,00 %
27.09.2016 16:08 20,2 C 50 % 1024,7 hPa 0,0 l/m 0,7 km/h (0 Bft) SW 229 2 min 0,000 mm 1,0 UV-I 385 W/m 9,4 C 20,2 C 3,2 km/h (1 Bft) 100,00 %
27.09.2016 16:10 20,3 C 51 % 1024,7 hPa 0,0 l/m 2,6 km/h (1 Bft) SW 229 2 min 0,000 mm 1,0 UV-I 378 W/m 9,8 C 20,3 C 4,8 km/h (1 Bft) 100,00 %
27.09.2016 16:12 20,2 C 50 % 1024,7 hPa 0,0 l/m 3,2 km/h (1 Bft) O 91 2 min 0,000 mm 1,0 UV-I 373 W/m 9,4 C 20,2 C 6,4 km/h (2 Bft) 100,00 %
27.09.2016 16:14 20,3 C 51 % 1024,7 hPa 0,0 l/m 5,5 km/h (1 Bft) O-NO 58 2 min 0,000 mm 1,0 UV-I 369 W/m 9,8 C 20,3 C 8,0 km/h (2 Bft) 100,00 %
27.09.2016 16:16 20,4 C 52 % 1024,7 hPa 0,0 l/m 3,8 km/h (1 Bft) O-NO 57 2 min 0,000 mm 0,9 UV-I 365 W/m 10,2 C 20,4 C 6,4 km/h (2 Bft) 100,00 %
27.09.2016 16:18 20,6 C 53 % 1024,7 hPa 0,0 l/m 3,0 km/h (1 Bft) O-NO 57 2 min 0,000 mm 0,9 UV-I 360 W/m 10,7 C 20,6 C 4,8 km/h (1 Bft) 100,00 %
27.09.2016 16:20 20,7 C 53 % 1024,7 hPa 0,0 l/m 2,9 km/h (1 Bft) O-NO 57 2 min 0,000 mm 0,9 UV-I 353 W/m 10,8 C 20,7 C 6,4 km/h (2 Bft) 97,14 %
27.09.2016 16:22 20,6 C 50 % 1024,7 hPa 0,0 l/m 4,6 km/h (1 Bft) O-SO 103 2 min 0,000 mm 0,9 UV-I 350 W/m 9,8 C 20,6 C 6,4 km/h (2 Bft) 97,44 %
27.09.2016 16:24 20,6 C 49 % 1024,7 hPa 0,0 l/m 3,0 km/h (1 Bft) SO 135 2 min 0,000 mm 0,9 UV-I 347 W/m 9,5 C 20,6 C 6,4 km/h (2 Bft) 95,74 %
27.09.2016 16:26 20,4 C 49 % 1024,7 hPa 0,0 l/m 1,9 km/h (1 Bft) SO 136 2 min 0,000 mm 0,8 UV-I 343 W/m 9,3 C 20,4 C 3,2 km/h (1 Bft) 96,00 %
27.09.2016 16:28 20,6 C 50 % 1024,7 hPa 0,0 l/m 2,0 km/h (1 Bft) SO 136 2 min 0,000 mm 0,8 UV-I 338 W/m 9,8 C 20,6 C 4,8 km/h (1 Bft) 97,87 %
27.09.2016 16:30 20,5 C 50 % 1024,7 hPa 0,0 l/m 0,8 km/h (0 Bft) SO 136 2 min 0,000 mm 0,8 UV-I 332 W/m 9,7 C 20,5 C 3,2 km/h (1 Bft) 96,23 %
27.09.2016 16:32 20,6 C 51 % 1024,7 hPa 0,0 l/m 0,7 km/h (0 Bft) SO 136 2 min 0,000 mm 0,8 UV-I 327 W/m 10,1 C 20,6 C 1,6 km/h (1 Bft) 97,56 %
27.09.2016 16:34 20,6 C 53 % 1024,7 hPa 0,0 l/m 2,2 km/h (1 Bft) N-NO 29 2 min 0,000 mm 0,7 UV-I 321 W/m 10,7 C 20,6 C 6,4 km/h (2 Bft) 98,08 %
27.09.2016 16:36 20,6 C 52 % 1024,7 hPa 0,0 l/m 1,8 km/h (1 Bft) N-NO 29 2 min 0,000 mm 0,7 UV-I 313 W/m 10,4 C 20,6 C 3,2 km/h (1 Bft) 97,56 %
27.09.2016 16:38 20,6 C 52 % 1024,7 hPa 0,0 l/m 0,3 km/h (0 Bft) N-NO 29 2 min 0,000 mm 0,7 UV-I 308 W/m 10,4 C 20,6 C 1,6 km/h (1 Bft) 98,11 %
27.09.2016 16:40 20,6 C 51 % 1024,7 hPa 0,0 l/m 0,9 km/h (0 Bft) N-NO 29 2 min 0,000 mm 0,7 UV-I 301 W/m 10,1 C 20,6 C 3,2 km/h (1 Bft) 94,74 %
27.09.2016 16:42 20,6 C 52 % 1024,8 hPa 0,0 l/m 0,8 km/h (0 Bft) N-NO 29 2 min 0,000 mm 0,6 UV-I 296 W/m 10,4 C 20,6 C 3,2 km/h (1 Bft) 97,87 %
27.09.2016 16:44 20,5 C 50 % 1024,8 hPa 0,0 l/m 0,5 km/h (0 Bft) N-NO 30 2 min 0,000 mm 0,6 UV-I 293 W/m 9,7 C 20,5 C 1,6 km/h (1 Bft) 96,30 %
27.09.2016 16:46 20,4 C 50 % 1024,8 hPa 0,0 l/m 1,5 km/h (1 Bft) NO 38 2 min 0,000 mm 0,6 UV-I 290 W/m 9,6 C 20,4 C 3,2 km/h (1 Bft) 97,56 %
27.09.2016 16:48 20,4 C 51 % 1024,8 hPa 0,0 l/m 2,1 km/h (1 Bft) O-NO 78 2 min 0,000 mm 0,6 UV-I 284 W/m 9,9 C 20,4 C 3,2 km/h (1 Bft) 96,00 %
27.09.2016 16:50 20,4 C 52 % 1024,7 hPa 0,0 l/m 3,2 km/h (1 Bft) NO 48 2 min 0,000 mm 0,6 UV-I 279 W/m 10,2 C 20,4 C 6,4 km/h (2 Bft) 97,73 %
27.09.2016 16:52 20,4 C 51 % 1024,7 hPa 0,0 l/m 4,3 km/h (1 Bft) NO 51 2 min 0,000 mm 0,5 UV-I 272 W/m 9,9 C 20,4 C 6,4 km/h (2 Bft) 97,87 %
27.09.2016 16:54 20,4 C 51 % 1024,7 hPa 0,0 l/m 4,1 km/h (1 Bft) NO 51 2 min 0,000 mm 0,5 UV-I 267 W/m 9,9 C 20,4 C 6,4 km/h (2 Bft) 100,00 %
27.09.2016 16:56 20,4 C 51 % 1024,7 hPa 0,0 l/m 4,0 km/h (1 Bft) O-NO 75 2 min 0,000 mm 0,5 UV-I 262 W/m 9,9 C 20,4 C 6,4 km/h (2 Bft) 100,00 %
27.09.2016 16:58 20,3 C 52 % 1024,7 hPa 0,0 l/m 5,9 km/h (2 Bft) O 86 2 min 0,000 mm 0,5 UV-I 257 W/m 10,1 C 20,3 C 11,3 km/h (2 Bft) 98,00 %
27.09.2016 17:00 20,2 C 51 % 1024,7 hPa 0,0 l/m 4,0 km/h (1 Bft) O 86 2 min 0,203 mm 0,5 UV-I 252 W/m 9,7 C 20,2 C 6,4 km/h (2 Bft) 100,00 %
27.09.2016 17:02 20,2 C 50 % 1024,7 hPa 0,0 l/m 2,7 km/h (1 Bft) O 86 2 min 0,000 mm 0,2 UV-I 247 W/m 9,4 C 20,2 C 6,4 km/h (2 Bft) 98,00 %
27.09.2016 17:04 20,2 C 49 % 1024,7 hPa 0,0 l/m 4,6 km/h (1 Bft) O 94 2 min 0,000 mm 0,0 UV-I 241 W/m 9,1 C 20,2 C 6,4 km/h (2 Bft) 100,00 %
27.09.2016 17:06 20,2 C 51 % 1024,6 hPa 0,0 l/m 3,2 km/h (1 Bft) O 94 2 min 0,000 mm 0,0 UV-I 236 W/m 9,7 C 20,2 C 4,8 km/h (1 Bft) 98,00 %
27.09.2016 17:08 20,2 C 48 % 1024,7 hPa 0,0 l/m 1,8 km/h (1 Bft) O 94 2 min 0,000 mm 0,0 UV-I 230 W/m 8,8 C 20,2 C 3,2 km/h (1 Bft) 100,00 %
27.09.2016 17:10 20,3 C 49 % 1024,7 hPa 0,0 l/m 1,9 km/h (1 Bft) O 94 2 min 0,000 mm 0,0 UV-I 223 W/m 9,2 C 20,3 C 3,2 km/h (1 Bft) 100,00 %
27.09.2016 17:12 20,2 C 49 % 1024,7 hPa 0,0 l/m 3,2 km/h (1 Bft) O 94 2 min 0,000 mm 0,0 UV-I 216 W/m 9,1 C 20,2 C 4,8 km/h (1 Bft) 100,00 %
27.09.2016 17:14 20,2 C 49 % 1024,7 hPa 0,0 l/m 2,9 km/h (1 Bft) O 94 2 min 0,000 mm 0,0 UV-I 211 W/m 9,1 C 20,2 C 3,2 km/h (1 Bft) 100,00 %
27.09.2016 17:16 20,2 C 51 % 1024,7 hPa 0,0 l/m 1,9 km/h (1 Bft) O 94 2 min 0,000 mm 0,0 UV-I 206 W/m 9,7 C 20,2 C 4,8 km/h (1 Bft) 100,00 %
27.09.2016 17:18 20,2 C 50 % 1024,8 hPa 0,0 l/m 2,7 km/h (1 Bft) O 94 2 min 0,000 mm 0,0 UV-I 198 W/m 9,4 C 20,2 C 4,8 km/h (1 Bft) 100,00 %
27.09.2016 17:20 20,1 C 49 % 1024,8 hPa 0,0 l/m 1,7 km/h (1 Bft) O 94 2 min 0,000 mm 0,0 UV-I 192 W/m 9,0 C 20,1 C 3,2 km/h (1 Bft) 100,00 %
27.09.2016 17:22 20,1 C 49 % 1024,8 hPa 0,0 l/m 1,4 km/h (1 Bft) O 94 2 min 0,000 mm 0,0 UV-I 187 W/m 9,0 C 20,1 C 3,2 km/h (1 Bft) 100,00 %
27.09.2016 17:24 20,0 C 49 % 1024,8 hPa 0,0 l/m 0,1 km/h (0 Bft) O 94 2 min 0,000 mm 0,0 UV-I 179 W/m 9,0 C 20,0 C 1,6 km/h (1 Bft) 100,00 %
27.09.2016 17:26 19,9 C 50 % 1024,9 hPa 0,0 l/m 0,4 km/h (0 Bft) O 94 2 min 0,000 mm 0,0 UV-I 173 W/m 9,2 C 19,9 C 1,6 km/h (1 Bft) 97,87 %
27.09.2016 17:28 19,9 C 52 % 1024,9 hPa 0,0 l/m 2,0 km/h (1 Bft) O 94 2 min 0,000 mm 0,0 UV-I 170 W/m 9,7 C 19,9 C 4,8 km/h (1 Bft) 100,00 %
27.09.2016 17:30 20,0 C 49 % 1025,0 hPa 0,0 l/m 2,0 km/h (1 Bft) O 94 2 min 0,000 mm 0,0 UV-I 164 W/m 9,0 C 20,0 C 3,2 km/h (1 Bft) 100,00 %
27.09.2016 17:32 20,0 C 49 % 1024,9 hPa 0,0 l/m 1,3 km/h (1 Bft) O 94 2 min 0,000 mm 0,0 UV-I 158 W/m 9,0 C 20,0 C 3,2 km/h (1 Bft) 100,00 %
27.09.2016 17:34 20,0 C 49 % 1025,0 hPa 0,0 l/m 0,7 km/h (0 Bft) O 94 2 min 0,000 mm 0,0 UV-I 154 W/m 9,0 C 20,0 C 1,6 km/h (1 Bft) 100,00 %
27.09.2016 17:36 19,9 C 48 % 1024,9 hPa 0,0 l/m 2,0 km/h (1 Bft) O 94 2 min 0,000 mm 0,0 UV-I 149 W/m 8,6 C 19,9 C 4,8 km/h (1 Bft) 100,00 %
27.09.2016 17:38 20,0 C 50 % 1025,0 hPa 0,0 l/m 2,8 km/h (1 Bft) O 94 2 min 0,000 mm 0,0 UV-I 146 W/m 9,3 C 20,0 C 4,8 km/h (1 Bft) 100,00 %
27.09.2016 17:40 19,9 C 51 % 1025,0 hPa 0,0 l/m 2,4 km/h (1 Bft) O 94 2 min 0,000 mm 0,0 UV-I 140 W/m 9,5 C 19,9 C 3,2 km/h (1 Bft) 100,00 %
27.09.2016 17:42 19,9 C 51 % 1025,0 hPa 0,0 l/m 2,6 km/h (1 Bft) O 94 2 min 0,000 mm 0,0 UV-I 135 W/m 9,5 C 19,9 C 4,8 km/h (1 Bft) 98,00 %
27.09.2016 17:44 19,9 C 51 % 1025,0 hPa 0,0 l/m 0,9 km/h (0 Bft) O 94 2 min 0,000 mm 0,0 UV-I 130 W/m 9,5 C 19,9 C 3,2 km/h (1 Bft) 100,00 %
27.09.2016 17:46 19,9 C 51 % 1025,0 hPa 0,0 l/m 0,4 km/h (0 Bft) O 94 2 min 0,000 mm 0,0 UV-I 126 W/m 9,5 C 19,9 C 1,6 km/h (1 Bft) 100,00 %
27.09.2016 17:48 19,8 C 54 % 1025,0 hPa 0,0 l/m 1,9 km/h (1 Bft) O 94 2 min 0,000 mm 0,0 UV-I 121 W/m 10,2 C 19,8 C 3,2 km/h (1 Bft) 100,00 %
27.09.2016 17:50 19,6 C 59 % 1025,0 hPa 0,0 l/m 1,3 km/h (1 Bft) O 94 2 min 0,000 mm 0,0 UV-I 118 W/m 11,4 C 19,6 C 3,2 km/h (1 Bft) 97,87 %
27.09.2016 17:52 19,5 C 54 % 1025,1 hPa 0,0 l/m 0,4 km/h (0 Bft) O 94 2 min 0,000 mm 0,0 UV-I 113 W/m 9,9 C 19,5 C 1,6 km/h (1 Bft) 100,00 %
27.09.2016 17:54 19,4 C 59 % 1025,1 hPa 0,0 l/m 0,7 km/h (0 Bft) O 94 2 min 0,000 mm 0,0 UV-I 109 W/m 11,2 C 19,4 C 1,6 km/h (1 Bft) 100,00 %
27.09.2016 17:56 19,3 C 62 % 1025,1 hPa 0,0 l/m 0,6 km/h (0 Bft) O 94 2 min 0,000 mm 0,0 UV-I 105 W/m 11,8 C 19,3 C 1,6 km/h (1 Bft) 100,00 %
27.09.2016 17:58 19,2 C 63 % 1025,1 hPa 0,0 l/m 0,4 km/h (0 Bft) O 94 2 min 0,000 mm 0,0 UV-I 99 W/m 12,0 C 19,2 C 1,6 km/h (1 Bft) 100,00 %
27.09.2016 18:00 19,0 C 64 % 1025,2 hPa 0,0 l/m 0,2 km/h (0 Bft) O 94 2 min 0,102 mm 0,0 UV-I 95 W/m 12,0 C 19,0 C 1,6 km/h (1 Bft) 100,00 %
27.09.2016 18:02 18,8 C 64 % 1025,2 hPa 0,0 l/m 1,2 km/h (1 Bft) O 94 2 min 0,000 mm 0,0 UV-I 91 W/m 11,8 C 18,8 C 1,6 km/h (1 Bft) 100,00 %
27.09.2016 18:04 18,7 C 66 % 1025,2 hPa 0,0 l/m 1,4 km/h (1 Bft) O 94 2 min 0,000 mm 0,0 UV-I 85 W/m 12,2 C 18,7 C 1,6 km/h (1 Bft) 97,56 %
27.09.2016 18:06 18,6 C 67 % 1025,2 hPa 0,0 l/m 1,5 km/h (1 Bft) O 94 2 min 0,000 mm 0,0 UV-I 81 W/m 12,3 C 18,6 C 3,2 km/h (1 Bft) 100,00 %
27.09.2016 18:08 18,4 C 68 % 1025,2 hPa 0,0 l/m 1,5 km/h (1 Bft) O 94 2 min 0,000 mm 0,0 UV-I 77 W/m 12,4 C 18,4 C 3,2 km/h (1 Bft) 100,00 %
27.09.2016 18:10 18,2 C 67 % 1025,3 hPa 0,0 l/m 1,5 km/h (1 Bft) O 94 2 min 0,000 mm 0,0 UV-I 71 W/m 12,0 C 18,2 C 3,2 km/h (1 Bft) 100,00 %
27.09.2016 18:12 18,1 C 68 % 1025,3 hPa 0,0 l/m 1,5 km/h (1 Bft) O 94 0 min 0,000 mm 0,0 UV-I 53 W/m 12,1 C 18,1 C 1,6 km/h (1 Bft) 100,00 %
27.09.2016 18:14 17,9 C 69 % 1025,3 hPa 0,0 l/m 1,2 km/h (1 Bft) O 94 0 min 0,000 mm 0,0 UV-I 35 W/m 12,1 C 17,9 C 1,6 km/h (1 Bft) 97,22 %
27.09.2016 18:16 17,8 C 69 % 1025,3 hPa 0,0 l/m 0,3 km/h (0 Bft) O 94 0 min 0,000 mm 0,0 UV-I 33 W/m 12,0 C 17,8 C 1,6 km/h (1 Bft) 98,18 %
27.09.2016 18:18 17,7 C 70 % 1025,3 hPa 0,0 l/m 0,0 km/h (0 Bft) O 94 0 min 0,000 mm 0,0 UV-I 32 W/m 12,2 C 17,7 C 0,0 km/h (0 Bft) 95,74 %
27.09.2016 18:20 17,5 C 70 % 1025,3 hPa 0,0 l/m 0,0 km/h (0 Bft) O 94 0 min 0,000 mm 0,0 UV-I 30 W/m 12,0 C 17,5 C 0,0 km/h (0 Bft) 97,96 %
27.09.2016 18:22 17,4 C 69 % 1025,4 hPa 0,0 l/m 0,0 km/h (0 Bft) O 94 0 min 0,000 mm 0,0 UV-I 29 W/m 11,7 C 17,4 C 0,0 km/h (0 Bft) 95,83 %
27.09.2016 18:24 17,3 C 70 % 1025,3 hPa 0,0 l/m 0,0 km/h (0 Bft) O 94 0 min 0,000 mm 0,0 UV-I 27 W/m 11,8 C 17,3 C 0,0 km/h (0 Bft) 97,87 %
27.09.2016 18:26 17,3 C 69 % 1025,4 hPa 0,0 l/m 0,0 km/h (0 Bft) O 94 0 min 0,000 mm 0,0 UV-I 26 W/m 11,6 C 17,3 C 0,0 km/h (0 Bft) 94,74 %
27.09.2016 18:28 17,3 C 68 % 1025,3 hPa 0,0 l/m 0,0 km/h (0 Bft) O 94 0 min 0,000 mm 0,0 UV-I 24 W/m 11,3 C 17,3 C 0,0 km/h (0 Bft) 97,87 %
27.09.2016 18:30 17,2 C 69 % 1025,4 hPa 0,0 l/m 0,0 km/h (0 Bft) O 94 0 min 0,000 mm 0,0 UV-I 22 W/m 11,5 C 17,2 C 0,0 km/h (0 Bft) 95,74 %
27.09.2016 18:32 17,1 C 70 % 1025,4 hPa 0,0 l/m 0,0 km/h (0 Bft) O 94 0 min 0,000 mm 0,0 UV-I 20 W/m 11,6 C 17,1 C 0,0 km/h (0 Bft) 96,00 %
27.09.2016 18:34 16,9 C 72 % 1025,4 hPa 0,0 l/m 0,0 km/h (0 Bft) O 94 0 min 0,000 mm 0,0 UV-I 18 W/m 11,8 C 16,9 C 0,0 km/h (0 Bft) 97,56 %
27.09.2016 18:36 16,7 C 74 % 1025,4 hPa 0,0 l/m 0,0 km/h (0 Bft) O 94 2 min 0,000 mm 0,0 UV-I 17 W/m 12,0 C 16,7 C 0,0 km/h (0 Bft) 96,00 %
27.09.2016 18:38 16,5 C 75 % 1025,4 hPa 0,0 l/m 0,0 km/h (0 Bft) O 94 2 min 0,000 mm 0,0 UV-I 16 W/m 12,1 C 16,5 C 0,0 km/h (0 Bft) 98,11 %
27.09.2016 18:40 16,2 C 75 % 1025,5 hPa 0,0 l/m 0,0 km/h (0 Bft) O 94 2 min 0,000 mm 0,0 UV-I 13 W/m 11,8 C 16,2 C 1,6 km/h (1 Bft) 97,87 %
27.09.2016 18:42 16,1 C 76 % 1025,5 hPa 0,0 l/m 0,0 km/h (0 Bft) O 94 0 min 0,000 mm 0,0 UV-I 12 W/m 11,9 C 16,1 C 1,6 km/h (1 Bft) 97,37 %
27.09.2016 18:44 15,8 C 76 % 1025,5 hPa 0,0 l/m 0,0 km/h (0 Bft) O 94 0 min 0,000 mm 0,0 UV-I 11 W/m 11,6 C 15,8 C 0,0 km/h (0 Bft) 98,11 %
27.09.2016 18:46 15,7 C 77 % 1025,5 hPa 0,0 l/m 0,0 km/h (0 Bft) O 94 0 min 0,000 mm 0,0 UV-I 9 W/m 11,7 C 15,7 C 1,6 km/h (1 Bft) 98,00 %
27.09.2016 18:48 15,6 C 76 % 1025,6 hPa 0,0 l/m 0,0 km/h (0 Bft) O 94 0 min 0,000 mm 0,0 UV-I 8 W/m 11,4 C 15,6 C 0,0 km/h (0 Bft) 97,56 %
27.09.2016 18:50 15,7 C 74 % 1025,6 hPa 0,0 l/m 0,0 km/h (0 Bft) O 94 0 min 0,000 mm 0,0 UV-I 6 W/m 11,1 C 15,7 C 0,0 km/h (0 Bft) 96,00 %
27.09.2016 18:52 15,7 C 74 % 1025,6 hPa 0,0 l/m 0,1 km/h (0 Bft) O 94 0 min 0,000 mm 0,0 UV-I 5 W/m 11,1 C 15,7 C 1,6 km/h (1 Bft) 97,37 %
27.09.2016 18:54 15,7 C 76 % 1025,6 hPa 0,0 l/m 0,0 km/h (0 Bft) O 94 0 min 0,000 mm 0,0 UV-I 5 W/m 11,5 C 15,7 C 1,6 km/h (1 Bft) 97,92 %
27.09.2016 18:56 15,5 C 76 % 1025,6 hPa 0,0 l/m 0,1 km/h (0 Bft) O 94 0 min 0,000 mm 0,0 UV-I 5 W/m 11,3 C 15,5 C 1,6 km/h (1 Bft) 96,36 %
27.09.2016 18:58 15,4 C 77 % 1025,6 hPa 0,0 l/m 0,0 km/h (0 Bft) O 94 0 min 0,000 mm 0,0 UV-I 0 W/m 11,4 C 15,4 C 0,0 km/h (0 Bft) 97,87 %
27.09.2016 19:00 15,3 C 77 % 1025,7 hPa 0,0 l/m 0,0 km/h (0 Bft) O 94 0 min 0,000 mm 0,0 UV-I 0 W/m 11,3 C 15,3 C 0,0 km/h (0 Bft) 100,00 %
27.09.2016 19:02 15,2 C 77 % 1025,7 hPa 0,0 l/m 0,0 km/h (0 Bft) O 94 0 min 0,025 mm 0,0 UV-I 0 W/m 11,2 C 15,2 C 0,0 km/h (0 Bft) 100,00 %
27.09.2016 19:04 15,2 C 78 % 1025,8 hPa 0,0 l/m 0,0 km/h (0 Bft) O 94 0 min 0,000 mm 0,0 UV-I 0 W/m 11,4 C 15,2 C 0,0 km/h (0 Bft) 100,00 %
27.09.2016 19:06 15,0 C 80 % 1025,8 hPa 0,0 l/m 0,0 km/h (0 Bft) O 94 0 min 0,000 mm 0,0 UV-I 0 W/m 11,6 C 15,0 C 0,0 km/h (0 Bft) 100,00 %
27.09.2016 19:08 14,8 C 80 % 1025,8 hPa 0,0 l/m 0,0 km/h (0 Bft) O 94 0 min 0,000 mm 0,0 UV-I 0 W/m 11,4 C 14,8 C 0,0 km/h (0 Bft) 100,00 %
27.09.2016 19:10 14,7 C 80 % 1025,9 hPa 0,0 l/m 0,0 km/h (0 Bft) O 94 0 min 0,000 mm 0,0 UV-I 0 W/m 11,3 C 14,7 C 0,0 km/h (0 Bft) 100,00 %
27.09.2016 19:12 14,6 C 81 % 1025,9 hPa 0,0 l/m 0,0 km/h (0 Bft) O 94 0 min 0,000 mm 0,0 UV-I 0 W/m 11,4 C 14,6 C 0,0 km/h (0 Bft) 100,00 %
27.09.2016 19:14 14,4 C 80 % 1025,8 hPa 0,0 l/m 1,7 km/h (1 Bft) O 94 0 min 0,000 mm 0,0 UV-I 0 W/m 11,0 C 14,4 C 3,2 km/h (1 Bft) 100,00 %
27.09.2016 19:16 14,3 C 80 % 1025,9 hPa 0,0 l/m 2,9 km/h (1 Bft) O 94 0 min 0,000 mm 0,0 UV-I 0 W/m 10,9 C 14,3 C 3,2 km/h (1 Bft) 100,00 %
27.09.2016 19:18 14,2 C 79 % 1025,9 hPa 0,0 l/m 2,7 km/h (1 Bft) O 94 0 min 0,000 mm 0,0 UV-I 0 W/m 10,6 C 14,2 C 3,2 km/h (1 Bft) 100,00 %
27.09.2016 19:20 14,1 C 80 % 1025,9 hPa 0,0 l/m 2,8 km/h (1 Bft) O 94 0 min 0,000 mm 0,0 UV-I 0 W/m 10,7 C 14,1 C 3,2 km/h (1 Bft) 100,00 %
27.09.2016 19:22 13,9 C 80 % 1025,9 hPa 0,0 l/m 3,1 km/h (1 Bft) O 94 0 min 0,000 mm 0,0 UV-I 0 W/m 10,5 C 13,9 C 4,8 km/h (1 Bft) 97,87 %
27.09.2016 19:24 13,8 C 81 % 1025,9 hPa 0,0 l/m 2,4 km/h (1 Bft) O 94 0 min 0,000 mm 0,0 UV-I 0 W/m 10,6 C 13,8 C 3,2 km/h (1 Bft) 100,00 %
27.09.2016 19:26 13,7 C 81 % 1025,9 hPa 0,0 l/m 2,5 km/h (1 Bft) O 94 0 min 0,000 mm 0,0 UV-I 0 W/m 10,5 C 13,7 C 3,2 km/h (1 Bft) 100,00 %
27.09.2016 19:28 13,6 C 82 % 1025,9 hPa 0,0 l/m 3,3 km/h (1 Bft) O 94 0 min 0,000 mm 0,0 UV-I 0 W/m 10,6 C 13,6 C 4,8 km/h (1 Bft) 100,00 %
27.09.2016 19:30 13,6 C 82 % 1025,9 hPa 0,0 l/m 3,7 km/h (1 Bft) O 94 0 min 0,000 mm 0,0 UV-I 0 W/m 10,6 C 13,6 C 4,8 km/h (1 Bft) 98,00 %
27.09.2016 19:32 13,6 C 81 % 1025,9 hPa 0,0 l/m 2,9 km/h (1 Bft) O 94 0 min 0,000 mm 0,0 UV-I 0 W/m 10,4 C 13,6 C 4,8 km/h (1 Bft) 100,00 %
27.09.2016 19:34 13,7 C 81 % 1025,9 hPa 0,0 l/m 1,1 km/h (1 Bft) O 94 0 min 0,000 mm 0,0 UV-I 0 W/m 10,5 C 13,7 C 4,8 km/h (1 Bft) 100,00 %
27.09.2016 19:36 13,8 C 81 % 1025,9 hPa 0,0 l/m 0,9 km/h (0 Bft) O 94 0 min 0,000 mm 0,0 UV-I 0 W/m 10,6 C 13,8 C 1,6 km/h (1 Bft) 100,00 %
27.09.2016 19:38 13,8 C 81 % 1025,9 hPa 0,0 l/m 1,0 km/h (0 Bft) O 94 0 min 0,000 mm 0,0 UV-I 0 W/m 10,6 C 13,8 C 3,2 km/h (1 Bft) 100,00 %
27.09.2016 19:40 13,9 C 81 % 1025,9 hPa 0,0 l/m 0,8 km/h (0 Bft) O 94 0 min 0,000 mm 0,0 UV-I 0 W/m 10,7 C 13,9 C 1,6 km/h (1 Bft) 97,44 %
27.09.2016 19:42 13,9 C 81 % 1026,0 hPa 0,0 l/m 1,5 km/h (1 Bft) O 94 0 min 0,000 mm 0,0 UV-I 0 W/m 10,7 C 13,9 C 1,6 km/h (1 Bft) 98,00 %
27.09.2016 19:44 13,9 C 81 % 1026,0 hPa 0,0 l/m 0,3 km/h (0 Bft) O 94 0 min 0,000 mm 0,0 UV-I 0 W/m 10,7 C 13,9 C 1,6 km/h (1 Bft) 96,23 %
27.09.2016 19:46 13,8 C 81 % 1026,1 hPa 0,0 l/m 0,3 km/h (0 Bft) O 94 0 min 0,000 mm 0,0 UV-I 0 W/m 10,6 C 13,8 C 1,6 km/h (1 Bft) 100,00 %
27.09.2016 19:48 13,8 C 82 % 1026,1 hPa 0,0 l/m 0,0 km/h (0 Bft) O 94 0 min 0,000 mm 0,0 UV-I 0 W/m 10,8 C 13,8 C 0,0 km/h (0 Bft) 100,00 %
27.09.2016 19:50 13,8 C 82 % 1026,1 hPa 0,0 l/m 0,0 km/h (0 Bft) O 94 0 min 0,000 mm 0,0 UV-I 0 W/m 10,8 C 13,8 C 0,0 km/h (0 Bft) 100,00 %
27.09.2016 19:52 13,7 C 82 % 1026,2 hPa 0,0 l/m 0,8 km/h (0 Bft) O 94 0 min 0,000 mm 0,0 UV-I 0 W/m 10,7 C 13,7 C 1,6 km/h (1 Bft) 96,00 %
27.09.2016 19:54 13,6 C 82 % 1026,2 hPa 0,0 l/m 2,1 km/h (1 Bft) O 94 0 min 0,000 mm 0,0 UV-I 0 W/m 10,6 C 13,6 C 3,2 km/h (1 Bft) 97,56 %
27.09.2016 19:56 13,5 C 82 % 1026,1 hPa 0,0 l/m 2,6 km/h (1 Bft) O 94 0 min 0,000 mm 0,0 UV-I 0 W/m 10,5 C 13,5 C 3,2 km/h (1 Bft) 100,00 %
27.09.2016 19:58 13,4 C 82 % 1026,1 hPa 0,0 l/m 2,6 km/h (1 Bft) O 94 0 min 0,000 mm 0,0 UV-I 0 W/m 10,4 C 13,4 C 3,2 km/h (1 Bft) 100,00 %
27.09.2016 20:00 13,2 C 83 % 1026,1 hPa 0,0 l/m 2,6 km/h (1 Bft) O 94 0 min 0,000 mm 0,0 UV-I 0 W/m 10,4 C 13,2 C 3,2 km/h (1 Bft) 98,11 %
27.09.2016 20:02 13,2 C 83 % 1026,2 hPa 0,0 l/m 2,7 km/h (1 Bft) O 97 0 min 0,000 mm 0,0 UV-I 0 W/m 10,4 C 13,2 C 4,8 km/h (1 Bft) 100,00 %
27.09.2016 20:04 13,1 C 84 % 1026,2 hPa 0,0 l/m 3,6 km/h (1 Bft) SO 136 0 min 0,000 mm 0,0 UV-I 0 W/m 10,5 C 13,1 C 4,8 km/h (1 Bft) 100,00 %
27.09.2016 20:06 13,0 C 84 % 1026,2 hPa 0,0 l/m 3,3 km/h (1 Bft) SO 136 0 min 0,000 mm 0,0 UV-I 0 W/m 10,4 C 13,0 C 4,8 km/h (1 Bft) 100,00 %
27.09.2016 20:08 12,9 C 84 % 1026,3 hPa 0,0 l/m 3,5 km/h (1 Bft) SO 136 0 min 0,000 mm 0,0 UV-I 0 W/m 10,3 C 12,9 C 4,8 km/h (1 Bft) 100,00 %
27.09.2016 20:10 12,9 C 84 % 1026,2 hPa 0,0 l/m 2,9 km/h (1 Bft) SO 136 0 min 0,000 mm 0,0 UV-I 0 W/m 10,3 C 12,9 C 3,2 km/h (1 Bft) 100,00 %
27.09.2016 20:12 12,8 C 84 % 1026,3 hPa 0,0 l/m 3,1 km/h (1 Bft) SO 136 0 min 0,000 mm 0,0 UV-I 0 W/m 10,2 C 12,8 C 4,8 km/h (1 Bft) 98,51 %
27.09.2016 20:14 12,8 C 85 % 1026,3 hPa 0,0 l/m 3,1 km/h (1 Bft) SO 136 0 min 0,000 mm 0,0 UV-I 0 W/m 10,3 C 12,8 C 4,8 km/h (1 Bft) 100,00 %
27.09.2016 20:16 12,7 C 85 % 1026,3 hPa 0,0 l/m 2,7 km/h (1 Bft) SO 136 0 min 0,000 mm 0,0 UV-I 0 W/m 10,2 C 12,7 C 3,2 km/h (1 Bft) 100,00 %
27.09.2016 20:18 12,6 C 85 % 1026,3 hPa 0,0 l/m 2,9 km/h (1 Bft) SO 136 0 min 0,000 mm 0,0 UV-I 0 W/m 10,1 C 12,6 C 3,2 km/h (1 Bft) 98,00 %
27.09.2016 20:20 12,6 C 85 % 1026,3 hPa 0,0 l/m 2,7 km/h (1 Bft) SO 136 0 min 0,000 mm 0,0 UV-I 0 W/m 10,1 C 12,6 C 3,2 km/h (1 Bft) 97,37 %
27.09.2016 20:22 12,7 C 85 % 1026,4 hPa 0,0 l/m 2,6 km/h (1 Bft) SO 136 0 min 0,000 mm 0,0 UV-I 0 W/m 10,2 C 12,7 C 3,2 km/h (1 Bft) 100,00 %
27.09.2016 20:24 12,7 C 85 % 1026,4 hPa 0,0 l/m 2,1 km/h (1 Bft) SO 136 0 min 0,000 mm 0,0 UV-I 0 W/m 10,2 C 12,7 C 3,2 km/h (1 Bft) 100,00 %
27.09.2016 20:26 12,7 C 85 % 1026,4 hPa 0,0 l/m 1,0 km/h (0 Bft) SO 136 0 min 0,000 mm 0,0 UV-I 0 W/m 10,2 C 12,7 C 1,6 km/h (1 Bft) 100,00 %
27.09.2016 20:28 12,7 C 85 % 1026,4 hPa 0,0 l/m 1,0 km/h (0 Bft) SO 136 0 min 0,000 mm 0,0 UV-I 0 W/m 10,2 C 12,7 C 1,6 km/h (1 Bft) 100,00 %
27.09.2016 20:30 12,6 C 85 % 1026,5 hPa 0,0 l/m 1,8 km/h (1 Bft) SO 136 0 min 0,000 mm 0,0 UV-I 0 W/m 10,1 C 12,6 C 3,2 km/h (1 Bft) 100,00 %
27.09.2016 20:32 12,7 C 85 % 1026,5 hPa 0,0 l/m 3,6 km/h (1 Bft) SO 136 0 min 0,000 mm 0,0 UV-I 0 W/m 10,2 C 12,7 C 4,8 km/h (1 Bft) 100,00 %
27.09.2016 20:34 12,7 C 85 % 1026,5 hPa 0,0 l/m 3,1 km/h (1 Bft) SO 136 0 min 0,000 mm 0,0 UV-I 0 W/m 10,2 C 12,7 C 4,8 km/h (1 Bft) 100,00 %
27.09.2016 20:36 12,8 C 85 % 1026,6 hPa 0,0 l/m 0,8 km/h (0 Bft) SO 136 0 min 0,000 mm 0,0 UV-I 0 W/m 10,3 C 12,8 C 3,2 km/h (1 Bft) 97,87 %
27.09.2016 20:38 12,8 C 84 % 1026,6 hPa 0,0 l/m 0,8 km/h (0 Bft) SO 136 0 min 0,000 mm 0,0 UV-I 0 W/m 10,2 C 12,8 C 3,2 km/h (1 Bft) 97,87 %
27.09.2016 20:40 12,9 C 84 % 1026,5 hPa 0,0 l/m 3,3 km/h (1 Bft) SO 136 0 min 0,000 mm 0,0 UV-I 0 W/m 10,3 C 12,9 C 4,8 km/h (1 Bft) 94,00 %
27.09.2016 20:42 13,0 C 84 % 1026,6 hPa 0,0 l/m 3,3 km/h (1 Bft) SO 137 0 min 0,000 mm 0,0 UV-I 0 W/m 10,4 C 13,0 C 4,8 km/h (1 Bft) 97,56 %
27.09.2016 20:44 13,0 C 84 % 1026,6 hPa 0,0 l/m 3,1 km/h (1 Bft) SO 137 0 min 0,000 mm 0,0 UV-I 0 W/m 10,4 C 13,0 C 4,8 km/h (1 Bft) 97,87 %
27.09.2016 20:46 13,0 C 84 % 1026,7 hPa 0,0 l/m 3,1 km/h (1 Bft) SO 137 0 min 0,000 mm 0,0 UV-I 0 W/m 10,4 C 13,0 C 4,8 km/h (1 Bft) 98,11 %
27.09.2016 20:48 12,9 C 84 % 1026,7 hPa 0,0 l/m 4,3 km/h (1 Bft) SO 140 0 min 0,000 mm 0,0 UV-I 0 W/m 10,3 C 12,9 C 4,8 km/h (1 Bft) 98,00 %
27.09.2016 20:50 12,8 C 85 % 1026,7 hPa 0,0 l/m 4,9 km/h (1 Bft) S-SO 168 0 min 0,000 mm 0,0 UV-I 0 W/m 10,3 C 12,8 C 6,4 km/h (2 Bft) 95,74 %
27.09.2016 20:52 12,7 C 85 % 1026,7 hPa 0,0 l/m 4,1 km/h (1 Bft) S-SO 168 0 min 0,000 mm 0,0 UV-I 0 W/m 10,2 C 12,7 C 6,4 km/h (2 Bft) 97,87 %
27.09.2016 20:54 12,6 C 86 % 1026,7 hPa 0,0 l/m 4,6 km/h (1 Bft) S-SO 168 0 min 0,000 mm 0,0 UV-I 0 W/m 10,3 C 12,6 C 6,4 km/h (2 Bft) 100,00 %
27.09.2016 20:56 12,6 C 86 % 1026,7 hPa 0,0 l/m 5,3 km/h (1 Bft) S-SO 168 0 min 0,000 mm 0,0 UV-I 0 W/m 10,3 C 12,6 C 8,0 km/h (2 Bft) 97,01 %
27.09.2016 20:58 12,6 C 87 % 1026,7 hPa 0,0 l/m 4,5 km/h (1 Bft) S-SO 168 0 min 0,000 mm 0,0 UV-I 0 W/m 10,5 C 12,6 C 8,0 km/h (2 Bft) 94,87 %
27.09.2016 21:00 12,6 C 87 % 1026,7 hPa 0,0 l/m 4,3 km/h (1 Bft) S-SO 168 0 min 0,000 mm 0,0 UV-I 0 W/m 10,5 C 12,6 C 6,4 km/h (2 Bft) 97,87 %
27.09.2016 21:02 12,6 C 86 % 1026,7 hPa 0,0 l/m 3,0 km/h (1 Bft) S-SO 168 0 min 0,000 mm 0,0 UV-I 0 W/m 10,3 C 12,6 C 6,4 km/h (2 Bft) 98,00 %
27.09.2016 21:04 12,6 C 85 % 1026,7 hPa 0,0 l/m 3,2 km/h (1 Bft) S-SO 168 0 min 0,000 mm 0,0 UV-I 0 W/m 10,1 C 12,6 C 6,4 km/h (2 Bft) 96,00 %
27.09.2016 21:06 12,6 C 86 % 1026,8 hPa 0,0 l/m 3,5 km/h (1 Bft) S-SO 168 0 min 0,000 mm 0,0 UV-I 0 W/m 10,3 C 12,6 C 6,4 km/h (2 Bft) 95,74 %
27.09.2016 21:08 12,6 C 86 % 1026,8 hPa 0,0 l/m 4,5 km/h (1 Bft) S-SO 168 0 min 0,000 mm 0,0 UV-I 0 W/m 10,3 C 12,6 C 6,4 km/h (2 Bft) 97,56 %
27.09.2016 21:10 12,7 C 86 % 1026,8 hPa 0,0 l/m 3,2 km/h (1 Bft) S-SO 168 0 min 0,000 mm 0,0 UV-I 0 W/m 10,4 C 12,7 C 6,4 km/h (2 Bft) 96,23 %
27.09.2016 21:12 12,7 C 86 % 1026,8 hPa 0,0 l/m 3,0 km/h (1 Bft) S-SO 168 0 min 0,000 mm 0,0 UV-I 0 W/m 10,4 C 12,7 C 6,4 km/h (2 Bft) 97,87 %
27.09.2016 21:14 12,6 C 86 % 1026,8 hPa 0,0 l/m 2,8 km/h (1 Bft) S 169 0 min 0,000 mm 0,0 UV-I 0 W/m 10,3 C 12,6 C 6,4 km/h (2 Bft) 95,74 %
27.09.2016 21:16 12,7 C 86 % 1026,8 hPa 0,0 l/m 2,5 km/h (1 Bft) S-SO 165 0 min 0,000 mm 0,0 UV-I 0 W/m 10,4 C 12,7 C 6,4 km/h (2 Bft) 100,00 %
27.09.2016 21:18 12,9 C 85 % 1026,8 hPa 0,0 l/m 2,4 km/h (1 Bft) S-SO 163 0 min 0,000 mm 0,0 UV-I 0 W/m 10,4 C 12,9 C 6,4 km/h (2 Bft) 98,00 %
27.09.2016 21:20 13,0 C 85 % 1026,8 hPa 0,0 l/m 3,8 km/h (1 Bft) S-SO 167 0 min 0,000 mm 0,0 UV-I 0 W/m 10,5 C 13,0 C 8,0 km/h (2 Bft) 100,00 %
27.09.2016 21:22 13,0 C 84 % 1026,9 hPa 0,0 l/m 5,2 km/h (1 Bft) S 170 0 min 0,000 mm 0,0 UV-I 0 W/m 10,4 C 13,0 C 8,0 km/h (2 Bft) 100,00 %
27.09.2016 21:24 13,1 C 84 % 1027,0 hPa 0,0 l/m 4,3 km/h (1 Bft) S 171 0 min 0,000 mm 0,0 UV-I 0 W/m 10,5 C 13,1 C 8,0 km/h (2 Bft) 95,74 %
27.09.2016 21:26 13,0 C 84 % 1026,9 hPa 0,0 l/m 4,0 km/h (1 Bft) S 171 0 min 0,000 mm 0,0 UV-I 0 W/m 10,4 C 13,0 C 6,4 km/h (2 Bft) 100,00 %
27.09.2016 21:28 12,9 C 84 % 1027,0 hPa 0,0 l/m 4,9 km/h (1 Bft) S-SW 193 0 min 0,000 mm 0,0 UV-I 0 W/m 10,3 C 12,9 C 6,4 km/h (2 Bft) 100,00 %
27.09.2016 21:30 12,8 C 85 % 1027,0 hPa 0,0 l/m 4,7 km/h (1 Bft) S-SW 196 0 min 0,000 mm 0,0 UV-I 0 W/m 10,3 C 12,8 C 6,4 km/h (2 Bft) 100,00 %
27.09.2016 21:32 12,7 C 86 % 1027,0 hPa 0,0 l/m 4,7 km/h (1 Bft) S 180 0 min 0,000 mm 0,0 UV-I 0 W/m 10,4 C 12,7 C 6,4 km/h (2 Bft) 98,00 %
27.09.2016 21:34 12,6 C 86 % 1027,1 hPa 0,0 l/m 4,6 km/h (1 Bft) S-SW 194 0 min 0,000 mm 0,0 UV-I 0 W/m 10,3 C 12,6 C 6,4 km/h (2 Bft) 100,00 %
27.09.2016 21:36 12,6 C 86 % 1027,1 hPa 0,0 l/m 3,9 km/h (1 Bft) S-SW 194 0 min 0,000 mm 0,0 UV-I 0 W/m 10,3 C 12,6 C 6,4 km/h (2 Bft) 97,96 %
27.09.2016 21:38 12,6 C 86 % 1027,1 hPa 0,0 l/m 4,4 km/h (1 Bft) S-SW 207 0 min 0,000 mm 0,0 UV-I 0 W/m 10,3 C 12,6 C 6,4 km/h (2 Bft) 100,00 %
27.09.2016 21:40 12,6 C 86 % 1027,1 hPa 0,0 l/m 5,9 km/h (2 Bft) S-SW 198 0 min 0,000 mm 0,0 UV-I 0 W/m 10,3 C 12,6 C 8,0 km/h (2 Bft) 100,00 %
27.09.2016 21:42 12,6 C 86 % 1027,1 hPa 0,0 l/m 5,6 km/h (1 Bft) S 181 0 min 0,000 mm 0,0 UV-I 0 W/m 10,3 C 12,6 C 8,0 km/h (2 Bft) 100,00 %
27.09.2016 21:44 12,6 C 86 % 1027,1 hPa 0,0 l/m 4,7 km/h (1 Bft) S 184 0 min 0,000 mm 0,0 UV-I 0 W/m 10,3 C 12,6 C 6,4 km/h (2 Bft) 96,23 %
27.09.2016 21:46 12,6 C 86 % 1027,1 hPa 0,0 l/m 3,4 km/h (1 Bft) S 173 0 min 0,000 mm 0,0 UV-I 0 W/m 10,3 C 12,6 C 4,8 km/h (1 Bft) 100,00 %
27.09.2016 21:48 12,6 C 86 % 1027,1 hPa 0,0 l/m 5,1 km/h (1 Bft) S 175 0 min 0,000 mm 0,0 UV-I 0 W/m 10,3 C 12,6 C 6,4 km/h (2 Bft) 100,00 %
27.09.2016 21:50 12,6 C 86 % 1027,1 hPa 0,0 l/m 4,1 km/h (1 Bft) S 188 0 min 0,000 mm 0,0 UV-I 0 W/m 10,3 C 12,6 C 4,8 km/h (1 Bft) 100,00 %
27.09.2016 21:52 12,6 C 85 % 1027,1 hPa 0,0 l/m 4,1 km/h (1 Bft) SW 223 0 min 0,000 mm 0,0 UV-I 0 W/m 10,1 C 12,6 C 6,4 km/h (2 Bft) 98,11 %
27.09.2016 21:54 12,6 C 86 % 1027,2 hPa 0,0 l/m 4,5 km/h (1 Bft) SW 217 0 min 0,000 mm 0,0 UV-I 0 W/m 10,3 C 12,6 C 6,4 km/h (2 Bft) 100,00 %
27.09.2016 21:56 12,4 C 86 % 1027,2 hPa 0,0 l/m 5,4 km/h (1 Bft) SW 215 0 min 0,000 mm 0,0 UV-I 0 W/m 10,1 C 12,4 C 8,0 km/h (2 Bft) 100,00 %
27.09.2016 21:58 12,3 C 86 % 1027,2 hPa 0,0 l/m 5,2 km/h (1 Bft) S-SW 211 0 min 0,000 mm 0,0 UV-I 0 W/m 10,0 C 12,3 C 6,4 km/h (2 Bft) 100,00 %
27.09.2016 22:00 12,2 C 87 % 1027,2 hPa 0,0 l/m 4,7 km/h (1 Bft) S-SW 198 0 min 0,000 mm 0,0 UV-I 0 W/m 10,1 C 12,2 C 6,4 km/h (2 Bft) 97,87 %
27.09.2016 22:02 12,2 C 87 % 1027,2 hPa 0,0 l/m 3,9 km/h (1 Bft) S-SW 196 0 min 0,000 mm 0,0 UV-I 0 W/m 10,1 C 12,2 C 4,8 km/h (1 Bft) 100,00 %
27.09.2016 22:04 12,1 C 87 % 1027,2 hPa 0,0 l/m 4,6 km/h (1 Bft) S 188 0 min 0,000 mm 0,0 UV-I 0 W/m 10,0 C 12,1 C 6,4 km/h (2 Bft) 97,87 %
27.09.2016 22:06 12,1 C 87 % 1027,2 hPa 0,0 l/m 3,5 km/h (1 Bft) S 186 0 min 0,000 mm 0,0 UV-I 0 W/m 10,0 C 12,1 C 6,4 km/h (2 Bft) 100,00 %
27.09.2016 22:08 12,1 C 87 % 1027,1 hPa 0,0 l/m 2,4 km/h (1 Bft) S 181 0 min 0,000 mm 0,0 UV-I 0 W/m 10,0 C 12,1 C 4,8 km/h (1 Bft) 100,00 %
27.09.2016 22:10 12,1 C 87 % 1027,2 hPa 0,0 l/m 4,2 km/h (1 Bft) S 173 0 min 0,000 mm 0,0 UV-I 0 W/m 10,0 C 12,1 C 6,4 km/h (2 Bft) 100,00 %
27.09.2016 22:12 12,2 C 87 % 1027,2 hPa 0,0 l/m 5,2 km/h (1 Bft) S 178 0 min 0,000 mm 0,0 UV-I 0 W/m 10,1 C 12,2 C 8,0 km/h (2 Bft) 100,00 %
27.09.2016 22:14 12,2 C 87 % 1027,2 hPa 0,0 l/m 5,1 km/h (1 Bft) S 180 0 min 0,000 mm 0,0 UV-I 0 W/m 10,1 C 12,2 C 8,0 km/h (2 Bft) 98,08 %
27.09.2016 22:16 12,2 C 87 % 1027,2 hPa 0,0 l/m 4,9 km/h (1 Bft) S-SW 198 0 min 0,000 mm 0,0 UV-I 0 W/m 10,1 C 12,2 C 9,7 km/h (2 Bft) 100,00 %
27.09.2016 22:18 12,3 C 87 % 1027,2 hPa 0,0 l/m 5,5 km/h (1 Bft) S 178 0 min 0,000 mm 0,0 UV-I 0 W/m 10,2 C 12,3 C 9,7 km/h (2 Bft) 100,00 %
27.09.2016 22:20 12,3 C 87 % 1027,2 hPa 0,0 l/m 4,1 km/h (1 Bft) S 184 0 min 0,000 mm 0,0 UV-I 0 W/m 10,2 C 12,3 C 6,4 km/h (2 Bft) 100,00 %
27.09.2016 22:22 12,3 C 87 % 1027,2 hPa 0,0 l/m 3,6 km/h (1 Bft) S 190 0 min 0,000 mm 0,0 UV-I 0 W/m 10,2 C 12,3 C 4,8 km/h (1 Bft) 100,00 %
27.09.2016 22:24 12,3 C 87 % 1027,3 hPa 0,0 l/m 4,3 km/h (1 Bft) S-SW 207 0 min 0,000 mm 0,0 UV-I 0 W/m 10,2 C 12,3 C 6,4 km/h (2 Bft) 97,87 %
27.09.2016 22:26 12,2 C 87 % 1027,2 hPa 0,0 l/m 4,8 km/h (1 Bft) S-SW 195 0 min 0,000 mm 0,0 UV-I 0 W/m 10,1 C 12,2 C 8,0 km/h (2 Bft) 96,00 %
27.09.2016 22:28 12,2 C 87 % 1027,3 hPa 0,0 l/m 3,9 km/h (1 Bft) S 186 0 min 0,000 mm 0,0 UV-I 0 W/m 10,1 C 12,2 C 6,4 km/h (2 Bft) 100,00 %
27.09.2016 22:30 12,1 C 87 % 1027,4 hPa 0,0 l/m 4,8 km/h (1 Bft) SW 215 0 min 0,000 mm 0,0 UV-I 0 W/m 10,0 C 12,1 C 6,4 km/h (2 Bft) 97,87 %
27.09.2016 22:32 12,1 C 87 % 1027,4 hPa 0,0 l/m 5,4 km/h (1 Bft) SW 216 0 min 0,000 mm 0,0 UV-I 0 W/m 10,0 C 12,1 C 6,4 km/h (2 Bft) 100,00 %
27.09.2016 22:34 12,0 C 87 % 1027,3 hPa 0,0 l/m 3,9 km/h (1 Bft) SW 216 0 min 0,000 mm 0,0 UV-I 0 W/m 9,9 C 12,0 C 6,4 km/h (2 Bft) 100,00 %
27.09.2016 22:36 11,9 C 88 % 1027,3 hPa 0,0 l/m 4,2 km/h (1 Bft) SW 216 0 min 0,000 mm 0,0 UV-I 0 W/m 10,0 C 11,9 C 6,4 km/h (2 Bft) 100,00 %
27.09.2016 22:38 11,8 C 88 % 1027,3 hPa 0,0 l/m 4,4 km/h (1 Bft) SW 216 0 min 0,000 mm 0,0 UV-I 0 W/m 9,9 C 11,8 C 6,4 km/h (2 Bft) 97,56 %
27.09.2016 22:40 11,8 C 88 % 1027,4 hPa 0,0 l/m 5,6 km/h (1 Bft) S-SW 209 0 min 0,000 mm 0,0 UV-I 0 W/m 9,9 C 11,8 C 8,0 km/h (2 Bft) 100,00 %
27.09.2016 22:42 11,8 C 88 % 1027,4 hPa 0,0 l/m 5,3 km/h (1 Bft) S-SW 210 0 min 0,000 mm 0,0 UV-I 0 W/m 9,9 C 11,8 C 8,0 km/h (2 Bft) 100,00 %
27.09.2016 22:44 11,7 C 88 % 1027,4 hPa 0,0 l/m 4,4 km/h (1 Bft) S-SW 202 0 min 0,000 mm 0,0 UV-I 0 W/m 9,8 C 11,7 C 8,0 km/h (2 Bft) 100,00 %
27.09.2016 22:46 11,7 C 88 % 1027,4 hPa 0,0 l/m 3,7 km/h (1 Bft) S-SW 205 0 min 0,000 mm 0,0 UV-I 0 W/m 9,8 C 11,7 C 4,8 km/h (1 Bft) 100,00 %
27.09.2016 22:48 11,6 C 89 % 1027,4 hPa 0,0 l/m 5,1 km/h (1 Bft) S-SW 207 0 min 0,000 mm 0,0 UV-I 0 W/m 9,8 C 11,6 C 6,4 km/h (2 Bft) 97,44 %
27.09.2016 22:50 11,5 C 89 % 1027,4 hPa 0,0 l/m 4,8 km/h (1 Bft) S 190 0 min 0,000 mm 0,0 UV-I 0 W/m 9,8 C 11,5 C 6,4 km/h (2 Bft) 98,08 %
27.09.2016 22:52 11,5 C 89 % 1027,3 hPa 0,0 l/m 5,9 km/h (2 Bft) S 180 0 min 0,000 mm 0,0 UV-I 0 W/m 9,8 C 11,5 C 9,7 km/h (2 Bft) 96,23 %
27.09.2016 22:54 11,6 C 89 % 1027,4 hPa 0,0 l/m 6,3 km/h (2 Bft) S-SW 202 0 min 0,000 mm 0,0 UV-I 0 W/m 9,8 C 11,6 C 8,0 km/h (2 Bft) 100,00 %
27.09.2016 22:56 11,7 C 89 % 1027,3 hPa 0,0 l/m 5,5 km/h (1 Bft) S-SW 200 0 min 0,000 mm 0,0 UV-I 0 W/m 9,9 C 11,7 C 8,0 km/h (2 Bft) 96,43 %
27.09.2016 22:58 11,8 C 89 % 1027,4 hPa 0,0 l/m 7,3 km/h (2 Bft) S 182 0 min 0,000 mm 0,0 UV-I 0 W/m 10,0 C 11,2 C 9,7 km/h (2 Bft) 98,00 %
27.09.2016 23:00 11,8 C 88 % 1027,3 hPa 0,0 l/m 5,7 km/h (1 Bft) S-SW 192 0 min 0,000 mm 0,0 UV-I 0 W/m 9,9 C 11,8 C 9,7 km/h (2 Bft) 94,74 %
27.09.2016 23:02 11,8 C 88 % 1027,3 hPa 0,0 l/m 7,4 km/h (2 Bft) S-SO 153 0 min 0,000 mm 0,0 UV-I 0 W/m 9,9 C 11,1 C 12,9 km/h (3 Bft) 98,11 %
27.09.2016 23:04 11,9 C 87 % 1027,3 hPa 0,0 l/m 8,4 km/h (2 Bft) S 186 0 min 0,000 mm 0,0 UV-I 0 W/m 9,8 C 10,6 C 14,5 km/h (3 Bft) 98,00 %
27.09.2016 23:06 12,1 C 87 % 1027,2 hPa 0,0 l/m 10,7 km/h (2 Bft) S-SW 194 0 min 0,000 mm 0,0 UV-I 0 W/m 10,0 C 9,6 C 16,1 km/h (3 Bft) 94,74 %
27.09.2016 23:08 12,1 C 87 % 1027,2 hPa 0,0 l/m 10,0 km/h (2 Bft) S 180 0 min 0,000 mm 0,0 UV-I 0 W/m 10,0 C 9,9 C 14,5 km/h (3 Bft) 98,11 %
27.09.2016 23:10 12,2 C 86 % 1027,2 hPa 0,0 l/m 9,3 km/h (2 Bft) S 170 0 min 0,000 mm 0,0 UV-I 0 W/m 9,9 C 10,4 C 11,3 km/h (2 Bft) 95,45 %
27.09.2016 23:12 12,2 C 86 % 1027,2 hPa 0,0 l/m 9,0 km/h (2 Bft) S-SO 161 0 min 0,000 mm 0,0 UV-I 0 W/m 9,9 C 10,6 C 19,3 km/h (3 Bft) 98,00 %
27.09.2016 23:14 12,2 C 86 % 1027,3 hPa 0,0 l/m 8,2 km/h (2 Bft) S-SW 196 0 min 0,000 mm 0,0 UV-I 0 W/m 9,9 C 11,0 C 11,3 km/h (2 Bft) 100,00 %
27.09.2016 23:16 12,2 C 86 % 1027,3 hPa 0,0 l/m 7,5 km/h (2 Bft) S 177 0 min 0,000 mm 0,0 UV-I 0 W/m 9,9 C 11,5 C 14,5 km/h (3 Bft) 95,74 %
27.09.2016 23:18 12,2 C 86 % 1027,3 hPa 0,0 l/m 6,3 km/h (2 Bft) S-SW 199 0 min 0,000 mm 0,0 UV-I 0 W/m 9,9 C 12,2 C 11,3 km/h (2 Bft) 97,87 %
27.09.2016 23:20 12,2 C 86 % 1027,3 hPa 0,0 l/m 8,0 km/h (2 Bft) S 180 0 min 0,000 mm 0,0 UV-I 0 W/m 9,9 C 11,2 C 12,9 km/h (3 Bft) 98,00 %
27.09.2016 23:22 12,2 C 86 % 1027,3 hPa 0,0 l/m 7,4 km/h (2 Bft) S 179 0 min 0,000 mm 0,0 UV-I 0 W/m 9,9 C 11,5 C 9,7 km/h (2 Bft) 100,00 %
27.09.2016 23:24 12,2 C 86 % 1027,3 hPa 0,0 l/m 6,1 km/h (2 Bft) S-SW 212 0 min 0,000 mm 0,0 UV-I 0 W/m 9,9 C 12,2 C 11,3 km/h (2 Bft) 100,00 %
27.09.2016 23:26 12,1 C 86 % 1027,3 hPa 0,0 l/m 6,1 km/h (2 Bft) S-SW 213 0 min 0,000 mm 0,0 UV-I 0 W/m 9,8 C 12,1 C 9,7 km/h (2 Bft) 100,00 %
27.09.2016 23:28 12,1 C 86 % 1027,3 hPa 0,0 l/m 6,4 km/h (2 Bft) S-SW 206 0 min 0,000 mm 0,0 UV-I 0 W/m 9,8 C 12,1 C 11,3 km/h (2 Bft) 100,00 %
27.09.2016 23:30 11,9 C 87 % 1027,4 hPa 0,0 l/m 6,9 km/h (2 Bft) SW 221 0 min 0,000 mm 0,0 UV-I 0 W/m 9,8 C 11,6 C 9,7 km/h (2 Bft) 97,87 %
27.09.2016 23:32 11,9 C 87 % 1027,4 hPa 0,0 l/m 7,4 km/h (2 Bft) S 181 0 min 0,000 mm 0,0 UV-I 0 W/m 9,8 C 11,2 C 12,9 km/h (3 Bft) 97,87 %
27.09.2016 23:34 11,8 C 87 % 1027,3 hPa 0,0 l/m 5,4 km/h (1 Bft) S 175 0 min 0,000 mm 0,0 UV-I 0 W/m 9,7 C 11,8 C 8,0 km/h (2 Bft) 97,62 %
27.09.2016 23:36 11,7 C 87 % 1027,3 hPa 0,0 l/m 4,6 km/h (1 Bft) S 188 0 min 0,000 mm 0,0 UV-I 0 W/m 9,6 C 11,7 C 8,0 km/h (2 Bft) 100,00 %
27.09.2016 23:38 11,7 C 88 % 1027,4 hPa 0,0 l/m 4,1 km/h (1 Bft) S 182 0 min 0,000 mm 0,0 UV-I 0 W/m 9,8 C 11,7 C 6,4 km/h (2 Bft) 100,00 %
27.09.2016 23:40 11,7 C 88 % 1027,4 hPa 0,0 l/m 6,1 km/h (2 Bft) S-SW 193 0 min 0,000 mm 0,0 UV-I 0 W/m 9,8 C 11,7 C 9,7 km/h (2 Bft) 96,00 %
27.09.2016 23:42 11,7 C 88 % 1027,4 hPa 0,0 l/m 5,0 km/h (1 Bft) S-SW 198 0 min 0,000 mm 0,0 UV-I 0 W/m 9,8 C 11,7 C 6,4 km/h (2 Bft) 100,00 %
27.09.2016 23:44 11,7 C 88 % 1027,4 hPa 0,0 l/m 5,7 km/h (1 Bft) S 174 0 min 0,000 mm 0,0 UV-I 0 W/m 9,8 C 11,7 C 6,4 km/h (2 Bft) 100,00 %
27.09.2016 23:46 11,7 C 88 % 1027,4 hPa 0,0 l/m 6,7 km/h (2 Bft) S 188 0 min 0,000 mm 0,0 UV-I 0 W/m 9,8 C 11,5 C 9,7 km/h (2 Bft) 97,87 %
27.09.2016 23:48 11,7 C 88 % 1027,3 hPa 0,0 l/m 6,7 km/h (2 Bft) S 184 0 min 0,000 mm 0,0 UV-I 0 W/m 9,8 C 11,5 C 9,7 km/h (2 Bft) 100,00 %
27.09.2016 23:50 11,7 C 88 % 1027,2 hPa 0,0 l/m 6,1 km/h (2 Bft) S 185 0 min 0,000 mm 0,0 UV-I 0 W/m 9,8 C 11,7 C 9,7 km/h (2 Bft) 100,00 %
27.09.2016 23:52 11,7 C 87 % 1027,2 hPa 0,0 l/m 5,5 km/h (1 Bft) S 183 0 min 0,000 mm 0,0 UV-I 0 W/m 9,6 C 11,7 C 8,0 km/h (2 Bft) 100,00 %
27.09.2016 23:54 11,8 C 87 % 1027,2 hPa 0,0 l/m 7,5 km/h (2 Bft) S-SW 193 0 min 0,000 mm 0,0 UV-I 0 W/m 9,7 C 11,1 C 9,7 km/h (2 Bft) 100,00 %
27.09.2016 23:56 11,8 C 87 % 1027,2 hPa 0,0 l/m 7,4 km/h (2 Bft) S 175 0 min 0,000 mm 0,0 UV-I 0 W/m 9,7 C 11,1 C 9,7 km/h (2 Bft) 97,87 %
27.09.2016 23:58 11,8 C 87 % 1027,3 hPa 0,0 l/m 8,0 km/h (2 Bft) S 180 0 min 0,000 mm 0,0 UV-I 0 W/m 9,7 C 10,7 C 11,3 km/h (2 Bft) 100,00 %
_ Min-Zeit 06:58 17:08 00:00 - 00:02 - - - - - - 04:22 06:58 00:02 00:46
Minimum _ 8,5 C 48 % 1020,9 hPa - 0,0 km/h (0 Bft) - - - - - - 8,1 C 8,5 C 0,0 km/h (0 Bft) 92,00 %
_ Max-Zeit 16:20 05:26 22:30 07:18 23:06 - - 10:04 14:00 12:42 10:40 13:10 16:20 23:12 00:02
Maximum _ 20,7 C 98 % 1027,4 hPa 0,2 l/m 10,7 km/h
S-SW (2 Bft)
- - 2 min 0,331 mm 2,9 UV-I 672 W/m 14,1 C 20,7 C 19,3 km/h
S-SO (3 Bft)
100,00 %
Durchschnitt _ 13,2 C 84 % 1024,1 hPa #0,2 l/m 1,9 km/h (1 Bft) S-SO - #8:10 h #2,184 mm 1,8 UV-I 331 W/m 10,2 C 13,2 C 3,5 km/h (1 Bft) 98,72 %